GFSGL_sfc_wetblb_000.txt.gz
Wetbulb
51.47 52.60 53.20 53.30 53.46 53.40 53.08 53.29 54.51 55.46 56.23 55.53 56.40 56.66 56.80 57.15 58.37 57.49 57.29 58.51 57.85 57.46 58.39 58.22 57.04 56.58 54.09 51.38 53.46 51.98 51.21 51.55 50.52 52.62 54.39 54.86 55.77 56.79 55.97 56.62 56.74 56.21 54.72
51.33 52.67 52.87 52.65 52.42 52.88 53.03 53.00 53.77 54.74 55.76 56.30 57.23 56.28 55.90 55.75 56.32 57.10 56.52 56.64 55.95 56.25 55.96 55.69 54.00 53.16 53.18 53.54 54.83 54.08 53.60 53.72 53.60 53.33 51.88 49.61 50.38 50.20 52.07 53.47 52.02 51.39 52.12
52.61 52.85 52.13 51.46 51.64 51.94 52.61 52.81 53.37 54.32 55.00 55.69 55.71 55.01 54.21 54.08 53.76 53.69 54.08 53.80 53.73 54.28 55.08 55.01 53.75 54.39 53.58 54.24 54.93 54.53 53.89 54.40 55.34 53.04 48.38 46.76 47.63 47.92 49.56 50.03 49.96 51.13 51.42
53.18 52.91 52.09 50.46 50.97 51.24 52.13 52.66 53.29 53.79 54.01 54.27 54.39 54.07 53.50 52.77 52.40 51.87 51.57 51.03 51.05 51.62 52.54 53.19 53.54 54.28 54.53 53.87 53.84 54.43 54.53 54.63 52.86 49.63 47.43 45.95 46.90 46.73 48.18 48.48 47.87 47.14 47.65
53.19 52.89 52.44 50.62 50.50 51.21 51.80 51.56 52.27 52.94 53.34 53.82 53.26 52.37 52.25 51.96 51.10 50.72 50.93 50.40 50.38 49.64 49.99 50.46 51.69 52.86 52.21 52.45 52.83 54.23 54.52 52.19 50.34 48.70 46.43 45.71 45.78 46.39 48.05 46.61 46.30 45.31 46.64
53.30 52.92 52.66 50.32 50.20 51.02 50.67 50.33 50.95 50.82 51.62 52.71 52.52 52.38 51.77 50.50 45.02 46.39 48.61 48.88 48.79 49.50 49.00 48.04 49.16 50.05 49.32 48.06 48.92 48.75 49.69 52.02 49.88 48.03 45.90 47.35 46.08 45.88 45.26 46.00 44.51 44.09 43.29
53.29 53.77 52.74 50.99 50.49 50.89 50.06 49.63 49.14 49.11 49.79 50.74 51.06 51.46 51.17 49.73 43.51 43.53 44.51 46.43 46.57 46.40 46.30 45.75 46.41 46.37 48.10 48.51 47.11 46.62 45.94 45.35 47.79 50.61 49.32 48.45 47.39 46.78 46.16 43.59 43.47 43.74 44.73
53.19 53.95 53.33 51.46 50.32 50.70 49.97 48.91 47.51 47.54 48.49 48.62 49.23 50.03 50.42 49.48 42.68 41.63 42.28 44.13 43.26 42.90 43.42 43.70 45.85 45.55 45.61 46.96 46.79 46.09 45.65 45.66 46.78 47.44 50.69 51.01 49.82 47.52 47.87 46.77 45.10 43.77 43.04
53.57 54.19 54.03 51.68 49.96 50.25 49.57 48.23 47.14 46.53 46.24 46.74 47.58 47.98 49.32 49.58 42.25 40.73 42.59 43.03 42.53 42.62 42.48 42.48 42.46 43.53 41.04 39.91 45.89 45.21 43.92 42.64 41.02 40.98 40.75 40.19 38.78 39.60 43.02 43.53 42.60 42.96 42.48
54.17 55.07 55.12 52.35 50.66 50.25 49.77 48.34 48.37 47.36 47.56 47.01 47.11 47.42 46.53 49.37 41.85 40.75 42.94 44.13 43.86 43.59 45.34 45.39 42.16 41.47 38.69 38.59 44.30 44.20 44.07 44.17 41.34 40.59 41.60 41.38 41.70 42.04 41.48 46.58 43.97 42.91 41.58
55.67 56.10 55.42 53.01 50.98 50.79 49.92 49.20 49.32 48.30 48.09 47.27 47.21 47.12 47.35 47.11 46.74 41.61 41.35 48.55 48.46 47.24 46.90 46.90 46.80 40.86 38.50 38.37 39.09 43.37 43.32 41.32 40.33 40.48 40.22 40.38 40.96 42.36 43.68 43.90 43.88 44.09 41.86
55.74 56.15 55.89 53.72 52.95 51.03 49.81 49.58 49.95 48.67 47.80 47.04 46.89 46.10 46.06 47.13 43.16 41.16 41.16 42.74 45.87 49.31 48.84 48.07 47.37 40.92 39.74 38.63 39.63 38.14 35.95 37.60 39.95 39.46 38.57 38.89 39.44 40.39 41.53 42.77 43.80 43.40 44.07
55.12 55.53 55.86 54.97 54.03 51.61 49.89 49.40 49.85 49.53 48.59 48.23 47.65 47.46 47.09 47.09 46.91 41.61 40.23 40.08 41.43 47.98 48.72 44.89 41.39 39.99 39.09 40.05 38.41 38.24 36.31 39.26 38.93 37.68 38.41 39.48 39.80 41.47 41.91 41.04 42.76 44.03 43.85
54.29 55.10 55.77 55.52 54.63 52.86 51.84 50.82 50.85 50.25 49.60 49.68 49.31 49.10 49.59 49.67 49.01 48.16 46.30 44.37 41.29 44.21 44.05 45.09 43.22 41.88 39.85 41.91 41.57 41.14 42.10 40.88 40.09 39.30 39.74 40.66 40.43 40.60 40.46 41.66 41.96 42.70 41.56
54.17 54.88 55.52 56.02 54.96 55.07 53.76 52.08 51.76 52.48 51.58 51.54 51.37 51.86 51.23 50.65 51.65 48.66 47.92 47.52 45.02 43.36 43.00 42.80 42.69 44.62 46.12 46.29 42.23 41.64 41.13 40.48 40.80 41.66 40.80 41.22 41.02 41.17 41.34 42.71 42.19 43.11 41.69
53.95 54.50 54.99 55.67 55.37 56.27 55.63 54.75 45.91 45.35 44.30 43.42 42.07 49.79 53.35 46.86 44.27 42.12 42.70 41.74 39.71 38.06 43.61 44.05 43.72 44.33 45.75 45.78 44.29 43.30 40.76 39.14 40.53 41.01 41.87 42.51 42.14 42.38 42.21 43.13 42.62 42.57 42.16
54.16 54.88 55.39 54.56 55.81 55.93 55.92 55.75 55.04 53.64 44.17 42.00 42.14 41.55 41.78 46.62 40.91 40.44 40.68 40.25 37.17 38.99 47.42 45.86 46.33 46.68 46.80 46.72 45.16 45.01 43.18 43.11 42.77 41.64 41.38 40.27 40.46 41.59 40.59 41.81 42.04 40.80 39.72
55.33 48.58 55.64 55.67 56.24 56.23 56.55 56.51 56.80 56.32 55.82 56.30 44.28 42.93 41.00 40.45 40.79 39.60 38.34 41.05 42.84 42.31 48.03 49.30 49.78 49.90 48.90 46.69 44.88 43.78 43.01 42.28 40.25 39.83 38.86 39.47 39.72 39.59 39.81 38.87 39.03 39.35 40.06
55.67 55.26 55.99 55.72 56.41 55.37 56.78 57.06 57.06 57.05 56.76 56.87 48.28 43.38 40.12 38.48 38.84 37.78 40.10 52.56 51.30 48.55 48.05 48.48 47.51 48.64 48.40 47.41 45.62 44.03 41.13 38.69 37.95 37.54 37.73 37.28 37.53 38.17 37.99 38.58 39.08 35.82 37.42
55.90 50.49 52.02 55.34 54.94 55.21 55.55 55.81 55.92 55.98 55.66 54.90 52.63 48.56 46.40 47.46 49.15 47.37 50.35 51.61 50.85 50.47 49.86 49.53 48.93 46.98 44.05 42.15 40.80 39.33 38.88 38.68 38.33 38.07 38.23 38.13 38.57 38.46 38.47 38.80 39.41 39.87 39.87
55.00 53.73 48.28 54.65 52.85 54.18 54.95 54.79 55.06 55.03 51.36 48.90 46.87 43.34 38.00 49.27 47.05 45.93 45.11 44.41 44.22 44.10 43.11 41.46 41.42 41.05 40.45 40.41 39.57 39.38 39.28 39.55 40.30 40.28 40.07 39.77 40.04 40.02 41.21 41.20 41.46 41.34 41.14
53.73 51.57 52.73 53.49 54.51 54.33 54.03 52.94 50.87 48.58 46.70 44.94 44.97 42.79 36.37 45.83 45.90 45.42 44.04 42.10 41.37 40.63 40.24 40.08 39.29 39.72 39.67 39.83 40.31 40.53 40.06 39.78 40.12 40.55 40.54 40.73 41.17 41.14 40.84 40.41 40.65 40.63 40.34
54.48 54.13 53.58 52.43 51.57 46.97 50.26 49.94 48.54 46.99 46.15 46.74 46.23 45.98 45.97 45.56 45.35 44.06 42.15 41.24 40.79 40.37 39.90 39.95 39.92 39.71 39.89 39.95 40.12 39.74 38.83 38.24 38.88 39.98 39.83 40.02 40.59 40.88 41.03 40.71 39.63 38.22 37.73
54.46 53.43 52.88 52.54 52.41 51.34 49.75 48.35 47.70 44.71 47.56 46.70 46.12 45.25 44.18 43.00 41.59 39.80 39.04 38.78 39.29 39.42 39.93 39.85 39.54 39.78 39.78 39.74 39.75 39.25 38.06 37.47 39.04 39.39 40.25 40.55 40.33 39.90 40.46 40.01 39.18 37.79 36.65
55.09 53.11 52.29 52.08 51.79 50.39 49.62 49.06 47.96 46.40 45.00 43.64 42.59 41.52 40.43 39.44 39.21 38.94 39.70 39.83 39.84 39.63 38.87 39.49 39.93 39.63 39.36 38.54 37.79 36.93 33.44 32.27 36.38 34.25 40.07 39.86 39.45 39.33 39.74 39.41 37.47 36.44 36.05
54.85 53.84 52.35 51.61 50.67 49.24 47.60 45.71 44.67 43.76 42.69 41.65 40.89 40.51 40.42 39.76 39.69 40.07 39.52 39.28 39.33 39.59 39.38 39.35 39.42 39.32 39.07 38.12 36.35 32.77 31.76 31.48 34.01 31.68 37.95 38.59 38.17 37.75 37.70 36.36 35.80 35.74 35.19

GFSGL_sfc_wetblb_006.txt.gz
Wetbulb
61.70 62.21 62.47 62.24 63.13 63.82 63.94 64.54 64.60 63.15 64.58 63.19 61.30 61.71 62.74 64.91 65.80 66.96 65.92 63.62 63.03 62.94 63.71 62.38 61.26 61.58 60.23 59.81 59.04 59.19 62.72 61.62 59.00 59.41 60.96 62.83 62.30 61.46 60.52 63.04 61.56 60.66 59.06
61.14 61.53 62.13 61.97 62.83 63.15 63.74 64.48 65.34 65.06 64.58 64.62 63.51 61.80 61.77 61.43 63.40 64.17 65.45 64.43 64.89 63.60 64.06 63.66 61.33 63.45 63.64 64.42 63.35 63.93 63.37 63.25 60.79 57.90 60.51 60.98 62.20 63.93 63.36 64.17 62.79 63.20 62.51
59.93 60.63 61.66 61.65 62.52 62.88 63.45 63.60 64.12 63.64 64.84 65.18 63.53 62.75 61.98 61.18 62.11 62.97 63.34 64.29 64.98 65.42 65.63 65.24 64.33 65.64 65.08 65.32 65.07 62.52 61.36 60.62 61.40 58.95 58.55 60.68 61.89 62.77 62.74 62.61 62.16 62.28 61.24
59.75 59.44 60.44 61.61 62.11 62.75 63.49 63.87 63.49 63.04 63.19 63.91 64.24 63.79 64.20 63.51 62.61 64.87 66.39 66.19 65.78 65.88 65.77 66.16 66.05 65.75 65.65 65.86 64.52 62.92 61.08 60.57 60.98 59.75 59.56 59.45 59.77 61.12 61.69 59.42 58.18 59.23 58.13
59.56 59.55 59.72 61.81 61.73 62.33 62.47 63.58 64.04 63.31 62.58 62.17 62.35 62.52 63.13 63.01 62.38 63.38 63.60 64.06 63.99 63.82 64.47 64.55 65.09 60.37 56.00 59.07 61.04 62.60 63.10 60.99 60.33 59.31 58.66 58.83 58.82 58.60 59.00 60.30 59.29 59.47 59.42
60.06 59.93 59.83 59.79 60.90 61.46 62.44 63.26 63.42 63.05 62.63 62.44 62.12 62.01 62.18 60.24 47.46 52.02 60.47 62.52 62.58 62.38 61.99 60.95 59.47 56.38 53.32 50.60 52.20 52.26 60.38 63.04 62.06 59.91 59.31 59.08 60.69 60.27 60.66 60.32 59.45 58.46 55.97
60.20 60.48 59.69 58.87 59.62 61.05 61.19 61.85 62.86 63.43 64.09 62.79 62.51 62.39 62.54 60.18 45.49 47.82 53.84 64.65 63.74 63.56 63.42 63.22 61.03 58.68 59.55 59.90 49.49 49.56 49.92 49.84 52.35 63.60 62.44 61.89 61.81 63.01 62.77 60.91 60.64 59.71 58.63
60.14 60.25 60.02 58.24 58.41 60.26 60.96 61.58 63.21 63.98 64.04 63.56 63.14 63.10 62.81 57.69 44.37 45.58 51.71 63.97 63.79 63.53 63.74 63.50 62.92 62.19 59.69 60.50 60.84 60.88 60.68 60.76 60.54 60.86 63.92 64.46 64.45 64.58 64.03 62.69 62.07 61.72 61.20
59.53 60.06 60.17 58.72 58.30 59.54 60.08 61.61 62.82 63.24 63.57 63.24 63.11 62.87 62.31 60.36 43.43 43.15 50.80 61.53 61.24 60.62 59.94 59.82 60.26 59.61 44.49 44.97 58.53 59.11 59.56 60.01 43.07 43.32 44.09 41.87 40.93 41.56 49.28 60.85 58.12 57.03 56.14
59.60 60.03 60.64 59.60 59.02 59.07 60.23 61.57 62.46 62.59 62.00 61.04 61.31 62.40 56.44 61.49 42.15 41.58 49.14 57.28 58.57 56.86 57.03 56.23 44.19 51.77 40.72 42.07 58.91 58.91 57.81 58.72 58.03 56.08 56.45 49.78 45.02 50.93 42.30 55.45 57.08 54.52 54.97
60.64 60.35 61.08 60.72 59.68 60.83 61.65 61.93 61.57 61.31 60.58 60.62 59.93 61.06 61.02 59.65 56.78 40.73 41.39 57.02 56.07 54.46 53.56 54.07 52.35 40.47 39.98 39.63 40.79 58.34 56.50 56.91 53.18 54.85 55.97 55.95 56.13 55.80 55.22 54.48 55.59 54.43 52.52
61.22 60.18 61.17 61.55 59.34 60.27 61.72 61.60 61.21 60.61 59.79 59.45 59.10 59.12 59.40 60.67 49.78 41.70 40.27 41.17 49.19 57.36 57.52 57.83 56.54 38.19 38.02 38.73 41.53 42.73 41.04 42.90 54.74 55.78 55.48 55.08 55.18 55.14 55.58 55.42 56.15 55.49 54.93
61.23 60.59 61.43 61.93 60.20 60.73 61.24 60.77 59.67 60.33 58.24 57.93 57.50 57.42 57.79 59.24 59.84 43.99 40.84 39.72 41.04 57.43 61.04 52.67 43.53 39.77 38.40 38.91 37.83 39.18 37.73 53.05 54.46 55.20 56.08 56.39 56.86 56.64 55.82 55.01 55.80 55.05 54.66
61.47 61.18 61.66 61.48 60.35 59.98 60.79 60.73 59.31 59.10 58.39 57.80 57.48 57.63 58.33 58.37 58.82 59.37 55.54 52.42 43.78 49.42 50.73 56.03 52.07 48.38 46.65 48.18 50.59 48.36 52.98 55.41 56.14 57.19 57.02 56.95 56.14 55.72 55.66 55.41 54.62 53.70 49.33
62.00 61.77 61.76 61.56 60.91 60.03 60.09 60.16 59.37 62.45 58.42 58.81 58.97 58.85 58.86 58.56 58.59 54.69 55.63 58.38 58.39 54.36 55.94 58.82 56.99 56.25 56.05 57.32 58.36 58.77 59.52 59.15 57.56 57.76 56.73 56.85 57.13 56.09 55.62 54.97 51.23 50.64 50.99
63.33 62.03 61.62 60.93 61.02 60.25 59.14 58.79 47.61 47.02 46.14 44.53 44.99 53.93 59.35 48.61 43.66 43.91 45.71 45.27 43.62 41.26 54.63 58.60 59.35 59.29 59.04 60.41 61.93 62.48 62.12 54.92 58.63 56.12 55.57 53.70 52.09 50.46 49.30 50.58 51.13 50.34 49.64
63.87 63.38 61.95 59.40 60.84 59.64 59.31 58.31 57.47 53.16 42.89 41.98 41.31 42.34 42.28 48.38 41.27 42.39 41.24 39.22 38.11 42.03 57.67 60.69 59.59 59.60 60.34 61.20 61.36 60.18 57.30 54.23 53.41 52.71 51.12 50.22 48.47 49.30 49.29 49.95 50.06 49.58 49.41
64.78 53.00 62.33 62.00 61.09 60.57 60.07 59.43 58.92 57.82 56.88 57.07 43.72 44.28 40.04 40.89 40.09 38.78 38.64 41.88 50.17 50.51 59.56 59.55 59.93 60.56 59.48 56.86 55.37 52.06 52.09 51.03 48.07 47.21 47.79 47.62 48.25 48.61 48.68 48.58 48.52 48.79 48.02
63.74 62.22 63.06 61.76 61.70 60.08 60.91 60.73 59.74 59.32 58.83 57.88 57.41 48.94 42.48 38.11 38.52 37.78 38.46 58.35 60.99 60.02 59.49 58.95 58.81 57.21 52.88 51.51 48.09 49.37 47.63 46.10 47.20 46.90 47.02 47.73 48.17 47.83 47.06 47.33 46.89 39.55 41.30
63.34 54.36 56.77 61.99 61.24 61.20 61.24 60.82 60.62 60.33 60.12 60.38 62.32 61.91 55.19 53.12 56.98 57.41 60.11 61.70 60.74 57.97 56.78 53.56 49.85 48.73 49.78 48.11 45.20 45.47 44.01 43.66 44.56 47.20 46.93 46.47 46.29 46.85 46.23 46.03 46.16 45.80 44.92
62.78 62.44 53.64 61.30 61.31 61.15 61.26 61.04 61.26 60.82 60.60 60.87 61.53 59.56 46.57 61.78 60.28 60.18 58.46 58.83 56.52 53.96 52.14 48.97 49.55 50.08 49.18 44.75 47.31 48.61 48.68 46.95 46.30 44.91 45.10 44.99 46.07 45.33 45.47 46.01 45.49 44.92 44.67
62.44 62.34 61.37 60.61 61.08 60.93 61.03 61.49 61.71 61.56 61.64 61.92 60.19 55.27 39.55 61.17 58.92 55.62 54.23 51.12 49.57 51.86 51.71 50.71 48.20 47.41 46.53 46.50 47.84 47.13 45.99 45.13 44.83 45.58 45.62 45.71 45.53 45.47 45.99 45.31 44.77 44.13 43.02
61.72 61.44 61.88 61.02 61.16 55.28 59.78 61.35 61.59 61.87 62.57 60.25 58.48 56.75 57.44 55.97 54.24 52.85 52.20 52.07 50.32 47.94 47.98 47.60 47.04 46.03 46.37 46.51 45.15 45.32 44.09 45.03 45.62 45.73 45.21 45.17 45.47 45.44 45.64 45.37 44.45 44.00 43.00
62.26 62.02 61.63 61.07 60.44 60.82 60.75 60.84 61.97 55.09 59.83 57.49 57.04 56.78 55.59 54.62 53.63 52.40 51.61 50.29 47.47 45.64 44.66 45.33 45.50 45.10 45.13 45.49 45.43 45.62 46.58 47.32 46.69 46.40 45.82 45.79 45.14 44.02 44.81 43.98 43.83 43.01 40.62
61.70 61.39 61.35 61.13 60.48 60.37 60.31 60.74 60.47 58.84 57.27 56.85 55.90 54.91 54.12 52.36 50.84 47.94 47.12 44.80 44.18 44.92 45.40 45.13 44.98 45.38 45.57 45.55 45.60 44.48 34.77 32.45 41.01 33.93 46.56 45.76 44.92 45.22 44.63 43.83 43.44 42.92 42.60
59.90 60.61 61.05 60.72 59.34 58.99 57.67 56.78 56.73 56.63 55.35 53.99 53.27 49.44 47.64 45.83 43.96 44.00 44.83 45.93 43.75 44.07 44.91 44.57 44.97 44.66 44.38 44.02 42.52 33.87 32.33 32.32 38.43 32.25 42.93 46.08 44.86 44.44 43.86 42.57 42.22 42.14 41.33

GFSGL_sfc_wetblb_009.txt.gz
Wetbulb
62.58 63.22 63.17 63.61 64.71 65.29 65.27 65.61 64.22 65.94 63.92 65.41 65.46 65.83 65.19 64.99 66.52 67.07 66.15 65.31 63.92 63.43 62.43 61.42 59.92 59.35 58.64 58.21 58.19 59.18 59.64 60.30 58.25 60.98 63.05 64.90 65.51 63.72 61.53 63.49 60.28 58.99 57.65
61.97 62.55 62.35 63.18 64.03 64.70 65.04 65.67 65.90 65.18 63.97 62.84 64.62 65.29 64.99 65.20 64.79 65.76 65.16 64.06 62.86 62.87 61.96 61.33 59.70 60.30 59.21 59.16 57.74 58.93 61.89 62.87 60.85 60.01 62.63 62.04 62.30 64.86 62.63 65.13 62.34 60.68 61.26
60.74 61.81 62.21 62.51 63.27 63.86 64.24 64.58 65.98 66.12 65.47 63.78 63.44 62.70 63.39 65.21 65.46 65.86 63.37 64.69 64.46 64.09 62.58 61.01 60.99 60.53 60.14 60.28 60.44 61.41 64.66 64.16 62.37 60.78 59.94 61.75 62.21 63.27 62.81 65.29 65.40 66.19 63.50
60.21 60.64 61.80 61.95 62.71 64.11 64.37 64.12 64.37 65.13 65.20 65.35 64.84 63.47 62.51 64.00 65.53 66.04 66.10 65.87 64.76 63.81 64.07 64.60 64.48 62.71 63.52 65.37 64.86 63.33 64.91 63.87 63.95 61.25 60.14 60.70 61.38 63.57 63.18 61.03 60.33 61.54 60.89
59.58 59.73 61.44 61.92 62.44 63.77 63.89 64.03 63.26 63.04 63.35 63.60 64.02 64.42 64.30 65.00 65.01 66.13 66.52 66.62 66.13 65.92 66.07 65.23 66.18 63.63 59.81 61.47 65.02 65.39 65.43 63.11 60.65 59.73 58.92 59.55 59.12 59.72 60.04 61.64 60.42 61.58 62.63
59.76 59.22 60.82 61.16 61.18 62.21 63.51 63.84 63.56 62.80 62.57 62.63 62.37 62.80 62.75 60.50 49.04 54.16 62.86 65.29 65.31 64.22 61.96 62.43 61.76 58.99 54.95 51.59 53.02 53.66 61.37 66.65 64.86 59.65 59.57 59.62 63.28 62.57 61.60 60.97 61.02 59.78 57.85
60.33 59.96 59.39 60.68 60.53 61.08 62.07 62.14 62.45 63.47 64.21 63.43 62.84 62.78 62.09 61.32 48.11 50.41 55.42 64.73 64.92 65.19 64.92 64.19 61.69 59.47 59.96 61.47 52.54 51.67 52.06 51.82 55.13 65.24 63.66 63.81 64.82 65.03 65.58 64.75 63.39 62.44 60.64
60.07 60.00 58.94 59.24 60.54 61.04 61.24 62.10 63.79 64.32 64.32 63.80 62.73 62.76 62.42 56.85 47.04 49.99 54.39 65.99 66.11 64.92 64.62 64.13 63.56 63.45 60.70 61.15 61.47 61.42 61.54 61.81 61.95 62.81 65.37 66.11 65.92 66.35 67.58 66.11 65.90 65.05 63.77
59.79 60.13 59.40 58.31 59.67 60.80 61.16 62.72 64.05 64.43 64.88 63.80 63.19 62.90 62.38 59.87 45.20 45.79 52.03 64.86 63.23 63.06 62.68 63.19 63.19 62.66 47.95 47.82 61.29 60.84 61.11 61.43 45.90 46.66 45.58 43.35 42.39 42.72 47.62 61.02 59.98 58.87 58.18
60.09 60.56 60.57 59.01 59.26 60.18 62.09 63.47 64.24 64.32 63.78 62.81 62.66 63.16 58.09 62.11 44.04 43.25 50.41 59.92 61.31 59.52 60.32 58.79 46.13 55.53 43.95 43.85 61.27 60.96 59.76 60.82 59.88 56.98 58.17 54.81 47.87 53.83 44.06 53.97 57.42 54.56 55.88
60.84 60.91 61.07 60.35 60.57 62.42 64.67 64.69 64.00 63.21 63.16 62.62 61.62 62.72 62.35 61.54 56.43 42.97 43.23 58.92 57.82 56.52 55.29 54.93 54.25 42.62 41.49 40.95 40.54 60.73 57.15 54.99 56.54 58.56 58.02 58.44 59.88 60.10 57.99 57.53 57.60 54.31 52.13
61.32 60.62 60.97 61.28 60.40 60.83 63.71 63.31 62.68 63.63 62.87 61.67 61.52 60.84 60.71 61.57 53.15 42.55 41.91 41.25 47.52 58.87 57.89 57.67 54.64 40.25 40.33 40.17 43.17 41.67 42.61 45.72 55.46 56.17 57.10 57.91 58.37 58.34 59.29 59.27 60.76 59.11 57.62
61.41 60.78 61.49 61.49 60.38 61.72 62.60 62.16 60.43 62.48 59.81 59.36 58.44 58.16 57.92 59.73 60.37 44.99 41.88 40.70 42.79 58.83 60.18 47.63 40.36 38.22 38.55 39.11 38.30 39.61 38.99 54.22 55.64 56.29 57.43 59.35 60.11 59.83 59.69 59.75 61.39 59.25 55.09
61.67 62.38 62.90 61.79 60.37 62.02 61.78 61.59 59.97 59.39 58.68 57.81 57.36 57.62 58.24 59.06 59.79 58.38 55.77 53.31 43.20 51.36 52.01 55.24 53.23 49.96 48.42 49.50 51.53 47.81 53.92 55.55 56.41 57.99 58.22 59.26 59.64 58.82 57.94 55.49 54.78 54.07 52.64
64.32 63.23 63.54 61.80 61.59 61.97 62.03 60.88 59.83 62.28 59.10 58.95 59.65 59.01 60.00 59.22 59.26 55.89 54.59 57.00 57.85 55.08 57.54 59.54 58.19 57.85 57.27 57.52 57.61 58.86 60.07 60.11 59.46 59.83 58.23 56.43 54.79 53.44 51.71 52.41 52.55 52.20 50.17
64.53 62.98 61.83 61.28 61.47 59.73 60.16 60.42 48.40 48.67 46.82 44.21 43.61 53.28 59.40 50.32 43.84 44.53 45.24 45.25 45.17 44.00 55.25 59.83 59.86 60.30 60.22 60.45 60.87 61.44 59.36 55.77 56.56 56.58 54.40 52.74 51.39 51.34 48.91 48.36 48.97 48.59 48.08
64.67 64.39 62.02 59.63 61.15 59.70 59.36 58.92 58.20 53.16 43.35 43.65 41.56 43.26 45.59 45.68 42.54 42.56 41.39 40.21 40.34 44.03 57.54 59.74 60.89 61.74 61.08 61.93 61.82 59.88 54.38 53.45 53.55 51.80 49.51 48.67 47.30 46.84 46.53 47.79 47.59 47.92 47.10
66.07 52.80 63.04 62.49 61.74 60.63 60.47 59.31 58.81 58.25 57.49 58.23 44.88 48.43 42.75 41.77 40.90 39.90 39.41 44.17 52.74 50.16 59.34 60.76 61.31 60.97 61.17 59.67 57.15 54.33 52.27 50.65 50.35 48.47 47.38 46.99 47.73 47.31 46.68 47.10 47.11 46.43 45.90
66.17 64.11 63.89 63.45 62.20 60.47 61.16 60.37 58.77 58.74 58.70 58.13 59.40 47.57 43.29 38.52 38.18 37.99 39.60 57.72 58.96 59.99 60.35 61.33 61.91 60.09 57.55 54.97 53.29 52.23 49.88 50.04 48.36 48.61 48.99 49.58 49.09 47.96 47.08 46.85 46.48 39.25 40.99
66.11 57.11 58.19 63.70 62.92 62.03 61.90 60.19 60.32 60.33 60.45 59.45 59.45 58.17 54.40 49.39 53.26 53.61 54.12 57.35 60.70 62.24 61.65 60.21 58.49 55.95 54.04 52.63 52.07 51.48 49.94 47.82 49.21 48.76 47.85 47.36 47.35 47.67 46.53 45.98 46.01 45.06 44.48
64.83 64.85 54.13 62.98 62.18 62.30 62.09 61.53 61.68 60.44 59.74 59.56 60.95 58.93 47.21 57.67 58.09 57.70 58.61 61.95 62.41 60.84 57.62 55.03 53.88 51.90 52.72 52.26 50.30 48.43 47.90 47.25 47.16 46.47 46.66 46.92 47.56 45.99 46.82 46.51 45.58 45.08 44.33
65.03 64.68 64.07 63.11 63.41 62.57 62.48 62.40 62.27 60.01 60.91 60.03 60.98 54.39 41.02 61.36 62.38 62.36 62.10 60.55 59.68 56.42 54.69 54.34 53.03 52.12 49.92 48.95 48.12 46.95 45.81 45.48 45.74 46.30 47.06 46.99 46.88 46.17 46.42 46.07 45.28 44.40 43.81
64.27 63.85 64.07 63.60 63.56 57.20 60.89 61.95 60.76 61.21 60.75 61.60 60.29 58.94 59.29 62.74 61.59 59.03 55.90 55.39 53.79 53.81 53.31 51.93 49.71 48.86 48.95 46.65 47.02 46.66 45.73 45.60 45.96 46.75 46.08 46.20 46.39 45.54 45.35 45.56 44.14 43.84 43.20
63.97 63.62 63.24 63.25 62.17 61.60 61.68 60.87 60.06 52.52 59.28 62.69 61.49 60.89 61.78 59.65 56.53 54.49 53.87 53.74 53.42 51.53 50.52 48.94 47.18 46.03 46.05 46.20 46.29 46.33 47.29 45.78 46.80 47.02 46.73 45.71 45.27 44.25 45.37 44.69 43.83 43.53 43.31
63.99 64.35 64.00 63.76 62.52 61.79 61.88 62.00 61.22 61.52 62.14 61.43 60.13 59.71 57.59 56.34 55.43 54.17 52.85 50.91 48.21 45.76 45.29 45.02 45.06 45.86 45.65 45.99 44.78 43.90 35.33 32.82 40.58 33.94 45.54 46.01 45.66 45.57 45.08 43.74 43.02 43.02 42.71
63.04 63.59 63.27 63.35 62.66 62.39 62.91 62.71 62.05 62.08 59.51 59.44 58.32 57.08 55.76 54.61 52.98 49.47 48.11 46.41 45.12 43.45 43.60 45.17 45.07 45.56 45.50 44.37 41.52 33.89 32.48 32.67 37.74 32.31 42.43 46.21 44.62 44.06 42.63 41.32 41.56 41.01 40.84

GFSGL_sfc_wetblb_012.txt.gz
Wetbulb
64.81 65.03 65.90 65.61 65.83 65.33 64.96 64.65 63.88 63.72 64.41 64.31 63.28 63.52 64.87 65.29 64.91 65.07 63.74 63.52 63.38 62.46 61.82 60.11 59.69 60.51 59.83 59.51 60.58 60.31 60.17 59.62 57.90 60.07 61.42 63.33 62.82 62.16 62.51 62.64 60.50 58.57 57.11
63.42 63.73 64.82 65.62 65.78 65.58 64.64 65.57 64.40 62.15 64.33 64.32 64.66 64.08 64.51 64.14 65.22 63.66 62.97 63.46 62.20 61.47 61.05 59.86 59.22 59.86 58.95 58.81 60.29 59.05 59.64 59.51 59.61 57.93 59.34 61.26 60.90 59.62 59.42 59.79 57.71 56.94 55.83
61.74 62.52 64.29 64.95 64.83 65.16 63.74 65.66 65.60 62.88 63.74 64.14 64.22 64.20 64.04 64.21 63.61 63.99 63.37 63.16 62.54 61.59 60.64 59.39 59.18 59.18 58.81 58.82 59.10 58.17 58.16 61.15 60.43 59.51 58.66 58.83 58.90 57.27 56.89 59.83 59.91 58.78 58.47
60.77 61.87 62.80 64.45 64.62 65.29 64.50 65.60 64.95 65.51 63.16 63.24 63.91 63.73 64.40 64.50 64.75 64.09 64.03 63.32 63.13 61.66 61.31 60.55 59.85 59.88 59.95 59.98 59.19 59.14 61.43 60.28 59.87 58.72 58.56 57.34 57.42 59.20 57.01 58.10 58.67 59.05 58.09
60.29 61.04 62.41 64.45 65.29 65.44 64.55 64.16 64.94 64.95 64.26 63.27 63.30 64.45 64.65 65.03 65.30 64.02 63.92 62.86 62.23 61.81 61.85 61.81 61.12 60.60 59.58 60.37 62.09 61.10 61.88 59.55 58.67 57.49 56.49 57.28 57.63 57.58 57.38 58.58 57.29 57.62 57.88
60.39 59.93 61.60 61.71 62.76 65.11 65.13 64.51 63.47 63.09 63.12 62.59 62.34 62.29 61.72 58.42 50.31 56.11 62.95 64.01 63.54 63.13 62.74 61.67 60.19 57.25 55.98 54.46 55.62 54.83 58.33 58.44 57.68 57.10 56.90 55.89 55.87 57.70 57.91 57.30 57.55 56.04 54.77
60.11 59.67 60.72 61.06 60.97 63.15 63.83 63.87 63.73 64.16 64.55 62.34 61.38 60.96 60.46 57.06 48.90 50.80 56.43 62.82 61.46 61.10 60.99 60.63 60.49 60.52 58.67 57.93 51.77 51.90 51.92 51.57 55.24 62.27 58.65 58.48 58.98 59.66 59.13 58.61 57.61 57.23 57.55
59.75 59.13 59.68 60.01 60.01 61.34 62.31 63.30 64.22 64.64 64.57 62.91 61.57 61.21 59.74 53.69 48.65 49.66 56.35 63.69 63.53 62.79 62.77 61.09 58.34 60.32 57.85 60.01 59.81 59.61 59.43 59.66 59.59 61.45 61.41 60.42 57.85 56.81 59.87 61.34 60.47 59.97 60.08
59.20 59.43 58.55 59.68 60.29 60.35 61.53 63.12 64.68 65.13 64.58 63.91 62.61 61.47 59.51 57.27 47.80 48.13 57.65 63.08 63.00 62.31 60.61 60.01 62.68 59.64 47.56 47.62 60.03 58.88 58.91 55.76 47.54 46.02 45.15 44.24 43.37 43.22 46.57 56.61 56.15 55.49 54.12
59.33 60.14 59.26 58.78 60.81 60.86 62.81 63.60 64.73 65.72 64.57 63.06 62.86 62.60 57.95 59.10 44.76 45.06 50.46 61.61 61.08 59.96 59.00 53.12 48.40 54.87 44.51 45.98 58.42 58.76 57.30 57.85 53.35 50.69 51.72 47.71 45.43 49.49 44.95 51.65 52.16 49.87 48.73
60.70 61.01 60.59 59.83 60.99 62.37 64.11 64.19 64.73 64.58 63.64 64.22 62.50 63.42 62.30 59.74 54.12 44.76 44.23 57.30 58.99 56.74 55.96 54.95 50.40 43.51 42.11 42.22 46.93 56.44 51.17 51.52 54.31 55.49 54.71 55.86 57.14 57.08 54.00 52.94 53.60 51.17 48.98
61.11 60.66 60.77 61.35 59.48 62.29 63.47 63.22 63.55 63.50 64.07 62.43 62.49 61.41 62.08 61.47 53.18 43.03 42.04 43.89 45.08 57.22 54.09 54.31 48.84 40.52 40.76 41.24 45.12 41.97 43.06 48.19 53.39 53.71 54.33 55.14 56.64 55.71 54.78 56.35 56.27 54.93 53.98
61.43 61.27 61.69 60.93 60.60 61.72 62.13 62.15 61.71 62.62 61.28 59.53 59.71 58.88 58.95 60.32 56.03 45.69 41.80 42.18 45.20 55.54 54.34 49.90 40.84 39.76 40.65 40.42 39.65 41.60 42.87 52.03 53.46 53.91 55.12 56.98 56.77 56.40 52.28 53.94 53.94 53.76 54.40
61.97 62.14 61.79 60.17 59.89 61.10 61.50 61.90 60.20 59.71 59.27 58.99 57.91 57.29 57.72 58.15 58.54 54.25 51.83 49.44 44.01 52.15 46.87 45.69 44.27 45.99 46.47 48.76 46.04 42.49 50.40 53.18 53.88 55.31 56.05 55.46 52.94 51.90 49.97 50.74 49.48 49.41 48.22
62.53 62.09 61.69 60.81 59.45 60.88 61.05 61.18 60.09 60.49 58.23 58.67 58.01 57.85 57.82 56.94 57.89 52.84 52.18 54.42 56.57 55.12 57.42 55.16 55.08 54.92 54.02 53.98 54.95 55.42 55.70 55.26 55.63 56.60 55.16 52.50 51.00 50.10 48.14 48.57 47.29 46.36 45.19
62.37 61.92 61.40 60.87 59.37 60.72 60.18 60.39 46.31 49.54 45.55 44.04 44.66 54.15 59.46 53.18 45.14 45.13 45.21 45.73 45.83 45.00 53.36 56.67 56.42 56.72 56.59 56.71 56.59 57.39 56.15 54.28 54.89 52.31 49.75 48.48 47.32 46.82 45.73 46.76 46.23 45.55 44.39
62.56 62.31 61.00 59.57 60.17 59.13 59.72 59.71 57.52 51.43 42.99 41.78 44.54 44.53 48.89 48.79 44.14 43.57 44.01 43.38 42.04 43.19 54.47 56.22 58.21 58.93 59.03 59.88 56.27 54.39 51.18 51.49 50.23 49.25 48.34 47.22 46.78 46.41 44.85 45.17 45.54 44.83 43.62
63.56 53.06 61.90 60.44 61.44 59.60 59.71 59.56 59.82 57.69 56.27 54.44 44.49 48.34 42.01 40.34 40.72 40.73 40.33 44.49 50.04 49.36 56.03 56.06 58.26 59.63 59.81 56.72 53.78 50.43 49.90 49.45 48.60 47.92 47.26 46.69 46.08 45.52 45.04 44.29 44.21 43.36 42.66
63.41 62.77 62.57 61.89 61.35 59.51 59.81 59.61 59.22 59.22 57.75 57.75 53.29 47.56 40.36 38.42 38.79 38.91 40.93 55.59 54.59 54.39 54.59 56.44 60.51 59.06 54.95 53.01 51.46 50.60 49.37 48.38 48.08 47.42 47.35 46.92 46.02 44.73 44.36 43.95 43.16 38.22 39.20
64.25 55.94 57.63 62.39 61.09 61.23 60.18 59.61 58.25 57.81 58.48 57.61 57.72 54.67 50.84 48.60 52.17 52.42 52.56 55.57 56.52 57.71 58.32 59.50 57.27 54.32 53.32 50.84 49.00 49.43 47.51 47.29 47.00 46.77 45.57 45.56 46.07 45.24 44.05 43.72 43.24 41.85 41.04
65.13 63.04 54.44 61.90 62.55 60.70 61.12 59.75 59.60 58.78 57.97 58.09 57.55 56.25 45.20 53.21 52.93 53.37 53.19 54.39 55.56 57.12 60.25 57.22 54.72 52.84 51.69 51.46 50.01 47.77 47.60 46.20 44.54 44.76 45.34 45.51 45.59 43.78 44.68 43.89 43.08 42.35 41.17
65.13 64.67 62.39 61.88 61.75 61.22 60.25 61.12 60.28 59.70 59.34 58.43 58.47 52.67 40.67 53.99 54.92 54.82 55.69 55.45 58.68 57.78 56.00 53.57 52.01 52.05 50.88 48.38 47.65 46.56 44.83 44.10 44.47 45.39 45.57 45.31 44.83 43.68 43.35 43.00 41.88 41.26 40.87
64.44 64.78 63.58 62.32 62.52 55.93 60.00 60.69 60.41 60.72 59.96 59.80 57.58 50.78 50.74 53.46 55.84 56.93 58.59 57.34 54.75 53.66 53.24 52.75 50.50 48.96 48.52 47.66 46.49 45.42 43.88 43.71 44.36 44.66 44.24 43.73 43.96 42.35 42.66 40.55 41.69 40.32 39.60
64.62 64.24 64.10 63.21 61.87 61.90 61.63 61.16 60.88 53.00 59.96 58.24 56.07 53.75 53.75 57.66 57.80 53.80 52.36 52.76 52.42 51.73 50.15 48.84 47.74 46.10 45.38 44.79 44.75 44.48 43.18 43.56 45.50 45.22 45.41 43.63 42.99 40.68 42.60 41.66 40.28 40.28 38.49
63.65 64.71 64.59 64.17 62.23 61.04 60.64 59.95 59.88 58.82 59.09 58.93 58.01 56.82 58.73 54.62 53.81 52.87 52.44 51.60 50.14 47.26 45.64 45.23 44.89 44.40 43.76 42.96 41.80 39.23 34.50 33.95 38.83 36.05 44.42 44.79 43.55 43.21 41.48 38.92 38.83 39.08 37.27
62.76 63.72 64.10 63.25 63.34 61.31 60.92 60.58 60.34 60.03 59.58 59.92 59.06 59.51 55.84 52.81 52.60 52.24 49.31 45.96 45.16 44.61 44.08 44.15 44.23 43.81 42.80 41.80 39.43 33.90 32.71 32.59 33.94 32.68 40.55 43.26 42.08 39.74 38.19 37.53 38.47 35.94 35.64

GFSGL_sfc_wetblb_015.txt.gz
Wetbulb
57.82 57.48 58.81 59.39 60.75 61.69 60.54 61.78 60.06 61.42 61.49 62.42 62.30 61.78 61.85 62.77 62.62 62.02 61.66 60.87 60.07 59.85 59.86 60.05 59.84 60.75 60.42 60.70 61.36 61.14 59.86 60.20 57.91 58.82 61.59 62.09 62.07 62.68 62.60 62.33 61.62 59.29 58.73
57.68 57.31 58.36 59.80 60.78 61.19 60.79 61.25 61.37 60.34 61.46 62.09 62.94 62.70 62.67 61.86 61.11 61.15 61.25 60.93 59.99 58.53 58.46 59.86 59.29 60.19 60.17 60.59 60.96 59.99 59.38 59.67 59.48 57.91 60.10 60.48 60.34 60.54 61.28 58.43 58.92 59.74 57.23
57.78 56.28 58.11 59.25 59.17 59.83 60.38 59.99 61.35 60.66 60.70 61.77 62.29 62.32 62.67 62.36 61.97 62.18 61.82 61.19 60.22 59.84 59.35 59.38 59.39 59.38 59.67 60.26 59.96 59.38 59.31 61.07 59.56 58.37 57.51 58.06 57.11 56.01 56.42 56.82 54.00 52.59 54.89
57.02 55.60 57.40 58.03 58.54 58.82 59.73 60.88 61.42 61.66 61.11 60.82 61.57 62.63 62.55 62.87 62.98 62.67 62.38 61.29 60.68 59.92 59.84 59.88 59.70 59.82 59.52 59.70 60.07 58.26 58.36 58.63 59.23 57.60 56.20 54.85 54.69 53.76 52.79 52.66 55.31 56.27 56.57
56.99 55.54 56.80 57.88 59.43 59.60 59.56 60.29 61.14 61.91 61.10 61.47 61.10 61.89 62.54 63.23 63.46 62.79 62.58 61.76 60.66 60.22 60.21 60.42 60.45 60.20 59.38 59.54 59.34 57.77 57.98 57.58 56.88 55.53 54.03 53.70 52.73 53.56 51.37 52.94 54.52 54.83 55.23
56.74 56.01 57.41 57.42 58.98 59.52 57.92 57.53 59.13 59.72 59.63 59.28 58.83 57.80 58.06 60.28 51.75 55.76 60.63 61.14 61.11 60.67 60.12 60.32 59.39 58.84 57.85 56.39 56.25 55.71 58.14 56.28 53.95 53.88 53.19 53.31 53.48 54.80 54.83 55.21 54.51 53.03 52.11
56.87 57.63 57.24 57.11 59.03 58.95 58.55 58.02 57.68 57.98 56.93 57.00 57.10 56.29 53.25 52.45 50.95 53.21 56.17 62.53 61.78 60.88 59.86 59.52 60.25 60.89 58.23 58.54 51.26 51.04 51.66 52.50 54.87 54.89 53.77 53.78 52.98 55.01 55.04 53.28 52.94 53.49 53.28
55.57 57.11 57.21 56.90 57.87 58.32 57.85 57.34 57.70 57.84 56.83 56.28 56.54 55.14 52.77 50.10 47.64 50.24 53.47 59.20 58.51 59.02 59.02 58.93 58.94 57.45 56.33 55.49 55.04 55.61 55.85 55.20 56.10 59.83 57.25 55.59 55.57 55.71 56.97 57.08 55.69 55.09 55.21
54.90 55.50 57.04 56.36 56.10 56.68 57.31 56.68 57.80 57.63 56.88 56.00 55.37 54.21 52.79 49.68 48.05 50.86 57.67 58.33 57.83 58.03 57.13 55.97 57.17 54.82 48.88 50.60 56.19 54.75 53.95 50.72 46.38 46.18 46.68 44.19 43.57 46.43 50.98 54.11 52.78 50.35 48.29
54.72 55.53 56.88 56.57 55.96 55.29 57.56 57.49 58.27 58.19 58.06 57.93 55.90 54.25 52.38 51.00 45.01 46.11 55.32 58.27 54.76 53.01 50.50 52.80 51.14 50.51 44.78 49.88 54.74 54.62 52.87 51.37 48.74 47.80 47.41 44.07 43.05 44.48 45.48 48.51 50.13 45.52 44.83
55.69 56.04 55.13 56.14 56.14 56.13 58.57 58.92 58.78 58.63 57.76 56.59 56.79 54.91 53.99 51.69 48.35 43.79 46.52 55.88 54.63 52.93 50.81 48.37 48.88 42.76 44.49 46.24 50.75 53.91 51.75 50.33 49.09 51.52 51.12 51.44 51.78 51.37 47.99 49.83 48.45 47.24 45.54
56.01 56.38 54.87 55.08 58.55 59.96 58.91 58.70 58.91 58.34 56.98 56.63 55.79 55.02 56.14 53.15 48.61 42.78 42.55 45.55 46.03 52.09 50.66 48.46 43.63 40.38 41.16 41.46 42.78 41.23 43.39 46.82 48.69 48.82 49.74 51.41 50.09 50.62 51.69 51.38 50.72 50.89 50.47
55.39 54.85 55.27 55.99 56.49 59.52 58.92 58.10 57.40 57.25 57.00 54.99 55.76 53.86 55.15 55.35 50.65 42.37 40.97 45.04 45.87 52.17 49.81 47.24 40.45 39.66 40.24 40.00 39.97 42.43 44.53 47.13 47.98 49.75 51.02 48.28 46.40 46.28 47.12 47.20 47.38 47.82 49.04
55.18 55.19 55.92 54.45 55.73 58.71 59.49 58.98 57.81 56.04 55.37 53.99 53.89 53.00 52.85 53.96 50.43 44.37 43.30 45.66 44.66 43.40 43.61 42.06 40.50 40.21 41.12 41.23 39.30 39.60 43.91 46.93 49.61 51.28 47.99 47.39 46.68 45.42 44.69 45.03 43.94 44.13 45.26
56.03 56.67 55.35 55.04 56.62 56.92 58.33 58.48 57.41 56.23 55.25 54.27 52.74 52.96 51.56 53.60 53.31 46.72 45.52 47.11 48.72 47.66 46.40 44.49 44.21 42.11 44.03 46.53 48.13 45.47 47.35 49.53 52.39 50.35 47.07 45.40 44.30 44.18 43.67 43.75 43.25 41.91 40.50
56.71 56.99 55.78 54.85 56.08 56.92 56.35 55.32 44.56 46.65 46.95 47.04 47.18 51.36 53.34 50.80 45.57 43.23 43.35 44.40 44.97 44.87 50.39 49.46 48.76 48.53 48.27 48.60 49.35 50.39 51.27 50.63 46.85 46.22 44.66 44.46 43.49 42.70 42.43 42.61 41.78 40.03 39.17
57.61 57.36 56.71 54.67 56.03 56.09 56.30 55.81 53.75 45.80 42.24 41.53 43.39 44.40 47.70 47.92 43.90 42.17 42.59 42.07 42.69 43.24 48.46 50.45 50.80 51.48 51.87 52.50 51.74 48.68 46.86 45.76 45.58 45.63 44.02 43.26 43.23 41.30 41.33 41.96 41.07 40.69 39.88
57.71 50.17 57.74 56.96 55.51 56.29 56.35 56.10 55.47 52.50 48.72 47.88 43.56 42.83 42.03 42.38 42.18 41.70 40.56 41.88 44.05 45.21 48.08 49.23 50.54 53.02 54.54 52.13 48.21 46.78 46.16 45.47 45.52 44.88 45.10 43.13 41.75 41.72 40.80 40.14 40.27 39.19 38.79
59.82 57.77 57.96 57.78 57.03 55.10 56.41 56.32 55.17 54.44 52.72 51.79 46.96 42.58 37.94 38.05 38.54 38.83 40.60 50.70 49.46 48.86 49.03 50.07 51.50 53.51 51.53 48.31 47.17 46.22 45.88 45.56 45.68 45.09 44.79 42.92 41.56 42.40 40.85 40.45 38.70 35.51 35.99
60.02 53.09 54.85 57.60 56.53 56.43 55.72 55.79 55.60 53.33 53.80 53.25 50.33 48.40 42.69 42.84 43.93 44.64 47.04 49.63 49.84 50.27 50.35 50.47 50.72 49.35 48.06 47.50 46.69 46.10 44.71 43.67 44.71 43.67 41.39 42.25 42.74 41.50 40.20 39.14 38.46 37.87 37.02
60.68 57.79 51.11 57.69 57.10 57.11 56.71 55.59 55.44 55.22 52.91 53.89 53.22 49.39 41.03 49.39 48.27 48.74 49.56 50.81 51.48 50.84 52.05 51.83 49.95 47.85 47.50 47.11 45.74 44.66 44.39 44.01 43.10 43.27 43.76 42.22 41.70 40.42 40.23 40.50 39.34 38.60 38.05
61.68 60.15 57.41 58.66 58.25 57.24 56.63 56.61 54.92 54.89 54.44 53.11 54.01 50.07 39.34 51.46 51.14 50.86 51.00 52.10 51.82 53.70 53.04 50.54 48.75 48.66 48.09 46.32 45.60 44.72 42.85 43.44 43.69 43.45 42.79 41.85 41.23 41.22 41.45 40.07 38.95 38.28 37.85
61.58 60.56 58.94 58.91 58.72 51.95 52.46 55.97 55.64 55.51 55.06 54.42 53.86 50.99 47.53 51.98 52.17 51.75 51.83 51.86 52.59 50.83 49.81 49.85 48.80 46.92 46.90 46.24 45.40 44.90 44.04 43.82 44.11 44.39 42.97 42.42 41.48 40.15 40.84 37.36 38.56 36.76 36.07
59.23 59.05 59.48 58.88 58.44 57.10 57.43 56.88 55.43 49.12 54.43 54.47 53.26 51.39 49.79 51.37 52.23 52.05 53.17 52.44 50.80 50.69 50.31 49.09 46.79 45.38 44.05 43.81 44.29 44.03 44.59 44.29 44.05 43.58 42.73 42.04 40.57 38.68 39.59 37.44 36.71 36.90 33.03
57.62 58.42 58.53 58.88 58.54 57.59 57.37 55.83 56.96 56.32 55.24 53.82 51.49 49.91 50.71 51.55 51.53 51.69 51.05 51.14 49.89 48.18 46.17 44.79 44.24 43.29 42.72 42.01 41.05 40.49 35.67 35.46 40.35 38.14 42.82 41.84 39.98 38.31 36.60 34.77 34.74 31.65 29.69
57.75 57.79 58.25 58.46 58.54 57.56 56.32 55.78 56.41 55.82 54.91 54.33 52.40 53.21 52.43 50.94 50.49 50.33 49.70 47.13 44.84 44.15 43.83 43.48 42.82 41.65 41.21 40.69 39.25 34.37 33.37 33.73 35.04 34.90 41.01 40.08 36.96 35.21 33.93 33.06 33.10 30.71 29.51

GFSGL_sfc_wetblb_021.txt.gz
Wetbulb
56.58 56.28 57.92 57.98 58.32 58.11 57.66 58.02 58.46 58.18 59.01 59.23 58.83 58.51 58.57 58.92 59.42 60.29 59.63 59.87 59.45 59.96 59.82 59.63 59.20 59.35 59.68 59.44 59.94 59.94 59.98 59.87 57.61 59.72 61.64 62.88 62.39 62.32 62.11 61.45 61.32 59.89 59.56
56.30 56.22 57.54 58.30 58.21 57.10 57.38 58.24 58.50 58.36 59.49 59.81 59.85 59.59 59.66 58.83 59.76 59.93 59.12 57.85 58.39 59.49 59.79 59.46 59.64 60.15 59.18 58.81 60.78 59.96 60.00 60.44 59.59 58.21 60.50 61.13 61.56 62.09 60.98 60.08 60.62 60.81 57.91
54.88 56.64 57.25 57.81 57.57 56.62 57.56 58.26 58.78 59.12 59.23 60.07 59.71 59.41 59.37 58.75 59.20 59.62 59.96 59.45 59.22 59.42 59.70 59.96 60.05 60.49 59.50 59.40 60.36 60.24 60.60 60.80 60.34 59.65 58.96 59.40 59.04 60.25 59.14 56.54 57.46 56.56 57.76
54.12 56.61 56.41 55.94 56.66 57.38 57.45 58.43 58.63 59.55 59.42 59.59 60.03 60.29 60.36 60.15 59.96 59.56 59.22 58.81 58.80 59.37 59.62 60.56 60.47 60.54 59.90 59.81 59.89 59.82 60.21 59.66 59.52 59.02 57.83 56.64 56.91 55.83 57.17 56.42 54.47 52.89 52.56
54.64 55.95 55.01 55.63 56.80 58.13 58.54 58.43 59.05 59.52 60.04 61.12 61.48 61.51 61.60 61.11 60.70 59.51 59.02 58.72 58.49 58.79 59.25 60.24 60.55 59.87 58.79 58.65 60.07 59.28 59.39 58.74 58.01 56.93 55.68 54.36 53.23 53.07 54.62 53.68 53.74 51.50 52.98
54.45 55.57 55.50 56.17 57.43 57.56 58.01 58.07 58.25 58.22 58.88 60.73 61.73 61.49 61.02 61.16 50.38 53.46 58.05 59.19 59.40 59.15 59.11 59.60 59.36 57.93 56.36 54.37 55.21 55.64 57.71 57.39 56.02 55.56 53.40 52.55 51.36 51.64 50.24 51.11 50.44 50.26 50.09
53.59 55.68 55.91 56.72 57.16 55.73 58.05 57.31 56.10 54.99 55.84 57.19 59.21 59.95 59.10 58.55 49.11 50.02 53.46 60.20 59.68 59.80 59.56 59.72 60.54 59.41 58.67 58.85 53.80 53.58 52.47 52.22 53.33 55.94 54.46 53.53 51.34 51.88 50.96 49.29 49.48 50.35 51.64
53.28 55.57 55.21 56.89 55.62 54.99 56.04 55.05 53.51 53.25 53.62 54.01 55.43 58.08 58.29 55.54 47.30 48.39 52.55 60.56 59.94 60.00 59.56 59.58 59.77 59.42 58.69 58.27 57.57 54.92 54.83 54.33 54.84 55.67 55.47 54.78 53.35 53.08 53.38 53.27 52.82 51.93 51.81
53.71 54.48 54.66 56.82 55.39 54.97 55.03 53.33 52.48 52.77 53.19 52.79 53.58 55.20 56.00 54.41 45.48 47.48 56.42 59.95 59.40 58.88 59.39 59.35 59.74 58.41 48.73 49.19 54.66 52.71 52.19 50.77 46.65 48.36 46.24 44.85 44.89 48.87 52.26 55.16 52.56 51.55 47.26
54.28 54.81 54.49 56.29 55.64 55.06 54.52 53.45 52.64 52.10 53.06 53.39 53.25 54.10 51.55 53.36 45.12 46.75 54.77 58.19 56.93 57.37 57.58 57.34 52.40 55.56 45.67 45.57 53.10 51.34 51.29 49.69 50.19 48.80 46.97 44.39 44.93 45.18 46.57 49.99 50.92 45.34 42.25
55.62 54.89 53.81 54.89 55.10 54.96 54.66 54.22 53.07 52.61 52.42 51.94 51.60 50.59 51.03 51.34 49.75 45.67 48.98 57.00 55.83 55.40 55.70 54.34 53.81 45.57 43.49 43.33 47.77 51.05 50.30 47.91 46.10 47.29 47.36 47.73 47.12 46.96 45.88 46.00 45.78 46.40 44.38
55.13 54.65 53.29 53.23 56.01 55.72 54.82 54.61 54.06 52.56 51.28 50.71 50.53 50.00 49.44 47.74 45.93 45.41 45.85 48.48 49.16 54.42 54.42 53.19 49.06 42.32 43.02 42.57 47.21 44.78 41.24 45.96 48.20 48.59 48.51 48.13 48.20 47.03 47.55 47.03 46.48 45.81 45.49
53.94 53.41 52.13 52.65 53.32 55.14 54.29 54.43 54.02 52.56 51.64 50.42 50.40 50.16 50.45 48.99 45.37 42.62 44.00 43.64 45.86 51.11 52.00 48.62 40.88 39.68 40.33 42.26 41.19 40.79 42.95 47.48 48.43 47.51 46.45 45.25 46.15 46.63 44.99 44.68 43.97 43.61 42.95
52.63 52.25 51.83 52.60 51.84 54.52 55.25 55.34 55.45 53.85 52.52 52.83 51.51 49.87 50.26 49.94 46.78 43.04 45.83 46.18 45.45 46.57 43.68 41.97 41.18 40.69 40.89 41.44 42.48 43.49 45.55 48.71 48.60 46.09 43.99 43.23 42.75 42.90 42.26 42.41 42.03 40.78 39.82
52.44 51.42 51.48 53.16 53.21 54.64 55.61 55.54 55.84 55.85 55.21 54.72 54.22 53.48 51.41 50.86 49.69 44.39 43.76 45.92 47.53 45.70 39.69 38.34 38.04 39.12 39.04 38.74 38.98 42.10 45.70 47.66 45.70 43.66 42.86 41.60 41.69 41.74 40.99 40.86 40.03 38.29 37.37
51.75 50.98 51.17 52.79 53.74 54.88 55.15 52.90 43.03 46.53 45.75 45.70 46.51 51.70 53.27 49.65 44.89 42.08 40.30 40.82 39.83 38.75 40.14 38.01 37.09 38.53 39.94 39.15 39.81 40.74 44.62 46.74 44.87 43.68 41.96 42.31 41.86 41.23 40.38 38.77 38.34 37.58 37.01
53.08 52.08 51.32 51.74 54.12 54.59 55.04 55.01 53.66 48.94 43.69 43.16 42.08 44.67 45.68 48.98 42.22 41.47 39.71 38.81 37.43 39.03 42.30 39.63 39.15 38.84 40.42 41.10 42.94 43.90 45.03 46.54 44.26 43.52 42.65 41.28 41.48 40.57 39.87 38.96 39.04 37.92 35.55
54.21 47.37 52.08 52.65 54.13 54.93 55.19 55.24 55.43 54.50 53.23 51.84 43.34 43.71 41.23 41.02 41.48 40.94 38.07 40.21 40.05 41.21 43.78 43.06 41.88 41.34 40.65 42.51 44.60 46.17 45.72 43.74 42.93 41.85 41.34 40.87 41.61 41.03 39.89 39.35 39.57 37.71 36.51
54.72 53.13 53.64 52.94 53.84 53.64 54.95 55.00 54.84 54.19 53.74 52.21 45.54 41.21 38.23 38.60 38.72 38.02 38.22 47.70 45.81 44.09 45.47 45.33 45.50 45.26 45.05 44.96 46.39 46.90 46.44 45.11 43.65 42.05 40.88 41.60 42.04 42.36 40.76 40.32 39.15 35.83 34.66
55.67 49.42 50.54 53.16 53.08 53.28 54.04 53.95 53.67 53.35 52.46 52.38 50.17 51.51 40.68 40.95 43.45 41.50 41.71 46.16 46.36 47.57 48.87 48.95 48.42 48.73 49.49 49.18 47.27 47.24 46.18 42.89 42.58 42.53 41.87 42.54 43.11 43.02 41.16 39.95 38.19 36.73 35.74
56.28 52.32 47.10 52.97 53.40 53.79 53.81 53.77 53.93 53.58 52.93 51.98 51.79 50.13 40.43 47.17 48.15 45.04 44.07 46.02 48.34 46.69 47.32 49.81 49.20 48.78 50.82 50.16 48.21 47.22 45.56 44.68 44.22 43.38 43.25 42.78 43.34 41.99 40.78 40.25 39.34 37.75 36.74
56.64 54.30 53.80 53.94 53.60 53.96 53.86 54.18 53.81 53.64 53.25 52.56 52.35 49.01 37.15 47.90 49.60 47.44 46.79 47.46 48.92 48.97 47.90 48.31 49.00 50.42 50.74 48.98 47.66 46.59 46.20 45.33 44.90 43.93 43.60 43.58 43.39 41.73 40.92 40.10 38.41 37.22 36.71
56.73 54.85 54.68 55.12 54.60 48.21 49.57 53.93 53.70 53.57 53.46 53.20 52.72 50.08 43.00 46.89 49.87 49.35 48.75 48.79 49.03 49.30 47.44 48.00 48.88 49.17 49.24 49.07 48.95 48.54 47.22 46.18 45.69 44.88 44.11 43.39 42.14 41.05 40.72 38.95 38.41 36.12 35.42
57.14 56.19 54.94 55.15 54.60 53.40 52.96 53.00 53.46 48.10 53.47 53.17 52.42 51.70 49.38 48.21 49.42 50.30 49.68 49.16 49.13 49.41 49.74 50.20 49.97 50.01 49.37 48.17 48.52 48.29 48.01 46.54 46.42 45.66 44.87 43.58 42.28 40.41 40.37 39.06 36.90 36.11 34.11
57.21 56.75 55.69 55.15 54.89 53.46 53.11 53.48 52.84 52.41 52.28 52.80 51.68 52.15 51.55 50.29 49.73 49.74 50.46 49.28 50.30 50.55 49.70 50.49 50.09 49.16 48.08 47.15 45.94 45.74 39.55 38.88 44.76 42.56 44.98 44.25 42.79 40.97 39.49 37.05 35.54 33.24 31.85
56.35 57.11 56.24 55.48 55.28 54.10 54.12 52.76 53.03 53.43 52.37 52.25 52.38 51.59 51.20 50.46 50.90 51.69 50.51 50.65 49.39 49.52 48.69 47.68 47.09 46.90 45.11 44.42 43.63 38.86 37.19 37.72 40.07 39.60 44.23 43.83 42.22 39.51 38.15 35.41 33.42 32.15 31.05

GFSGL_sfc_wetblb_027.txt.gz
Wetbulb
64.13 63.78 64.23 64.97 64.28 63.86 65.13 64.91 65.36 65.43 65.12 64.65 64.44 64.57 64.47 64.00 64.43 64.52 64.42 63.97 63.42 62.34 62.44 62.67 61.86 63.60 63.71 63.77 63.66 63.19 62.16 61.38 58.70 59.67 61.35 61.89 61.69 61.69 62.11 62.28 62.49 61.58 60.36
63.89 63.19 64.16 64.47 63.78 63.89 64.42 64.61 65.64 64.97 64.72 64.75 64.39 64.21 62.33 62.31 63.07 63.31 62.12 62.75 62.11 61.80 61.93 62.07 62.04 62.62 63.62 63.20 63.98 63.51 62.61 61.84 60.33 58.38 59.75 60.15 60.51 61.20 61.22 60.99 61.19 61.77 61.45
63.09 63.22 64.06 63.83 63.41 63.62 64.43 64.80 65.05 65.04 64.39 64.36 64.13 61.37 61.04 61.82 62.04 62.06 61.45 61.20 61.48 62.02 62.44 62.10 62.40 63.70 63.66 63.08 62.31 62.77 62.45 62.65 61.36 59.77 58.68 60.35 60.07 60.93 60.41 60.29 60.29 60.49 60.99
62.47 62.91 63.52 63.76 63.57 63.67 64.48 64.74 64.89 64.97 64.25 63.56 63.09 61.19 61.28 61.37 61.43 61.35 61.35 61.65 62.69 62.33 62.89 63.50 63.20 63.71 63.09 62.06 61.48 62.27 61.86 60.87 60.81 59.96 59.08 59.00 59.76 60.11 59.74 57.54 57.68 59.98 59.15
61.99 62.74 62.88 63.23 64.06 64.11 64.28 64.45 64.88 64.69 64.44 64.23 63.17 61.13 61.17 60.87 60.91 60.94 61.21 61.82 61.93 62.03 62.82 62.94 63.57 62.07 59.43 61.33 61.82 62.67 62.35 60.19 59.70 59.18 58.24 58.24 57.80 58.18 58.08 58.87 59.14 59.99 59.68
61.65 61.93 62.21 63.54 63.64 63.73 64.14 64.59 64.88 64.36 62.50 64.11 62.96 61.77 60.71 60.34 49.68 53.22 58.90 61.51 61.92 62.03 61.42 61.48 60.98 58.67 56.52 53.74 54.02 54.92 59.94 60.25 58.72 58.54 58.28 57.72 58.26 58.70 59.24 60.07 57.64 57.46 56.62
61.33 61.50 62.05 62.98 63.16 63.42 63.59 63.83 64.09 63.42 64.22 61.55 63.46 62.16 59.65 59.57 48.60 50.05 53.83 62.76 62.83 61.78 60.98 60.80 59.96 59.34 59.41 58.43 53.36 52.91 52.89 52.40 55.51 60.05 58.63 58.71 58.52 60.31 61.89 60.20 59.81 59.23 59.19
60.89 60.95 61.65 62.26 62.74 63.28 63.11 62.14 62.24 62.57 62.67 62.11 60.69 61.86 58.92 56.70 46.78 47.51 52.49 62.70 62.33 61.88 61.24 61.39 60.39 59.99 59.82 60.08 59.24 58.38 59.07 59.67 60.11 61.85 62.53 61.90 63.21 62.91 63.54 63.24 60.96 58.75 58.59
60.35 60.81 61.30 62.04 62.66 62.28 61.68 61.15 62.17 63.02 63.56 62.50 62.52 61.87 57.54 53.66 45.52 46.42 56.33 61.01 61.36 61.15 61.85 61.61 60.73 62.65 47.67 50.32 58.03 57.87 58.32 57.78 48.40 46.99 47.54 46.65 47.20 49.62 55.81 59.82 58.05 58.76 56.77
60.46 60.95 61.84 62.67 62.43 62.15 62.00 61.21 62.30 63.27 63.01 63.47 62.62 62.12 54.79 55.59 45.15 47.15 57.11 60.72 59.52 59.71 60.56 58.74 52.43 58.92 45.52 48.62 61.19 61.36 60.05 58.47 57.80 58.92 58.64 53.81 55.56 53.10 51.35 63.87 61.39 59.60 57.87
61.53 61.51 61.52 62.76 62.13 63.15 61.89 61.78 62.84 62.85 62.87 62.50 62.33 62.39 62.21 58.06 53.11 46.42 50.77 61.74 61.71 61.67 61.15 61.19 61.21 44.59 45.15 46.57 51.04 62.84 59.15 58.38 54.10 59.52 58.79 59.09 59.56 59.53 59.52 60.95 62.83 62.00 57.71
61.51 60.91 61.06 62.74 61.41 61.67 61.87 61.48 62.39 62.92 62.52 62.16 61.56 61.12 61.98 62.30 51.09 46.13 47.87 53.21 55.24 62.16 61.84 61.99 60.35 43.52 43.70 44.36 51.87 41.36 43.33 51.38 58.47 58.49 56.90 55.43 56.31 55.41 55.65 56.40 56.68 56.49 57.72
61.01 60.89 60.97 62.47 61.90 62.22 61.49 60.81 60.99 62.17 61.72 60.86 59.85 60.06 60.07 60.83 60.42 45.45 44.77 45.70 49.79 62.36 63.72 55.84 44.15 42.09 41.39 46.04 41.23 41.86 46.67 56.87 57.71 56.74 55.82 55.88 55.58 54.75 53.86 53.20 52.69 52.22 51.37
60.66 60.76 60.84 61.22 61.49 62.17 61.75 60.90 60.17 60.67 60.54 59.93 59.27 59.12 59.35 60.11 61.07 61.11 58.47 57.90 48.32 56.84 49.64 54.13 49.35 48.97 45.82 51.49 51.21 49.77 58.39 58.96 58.49 58.29 57.03 56.35 54.35 53.55 53.47 53.45 51.95 51.34 49.38
60.84 60.38 60.07 60.58 60.95 61.50 61.84 61.15 60.34 61.32 59.69 60.30 60.53 60.69 59.76 59.10 59.80 55.64 56.74 61.11 61.91 56.62 55.58 56.90 57.82 57.93 58.22 58.29 58.71 58.73 58.89 58.01 57.97 58.48 56.81 54.64 54.06 54.00 53.31 53.52 52.22 51.84 50.43
60.28 59.73 59.40 59.52 60.27 60.90 61.01 60.06 43.61 49.07 46.86 45.13 47.79 56.49 60.53 51.00 42.86 42.01 43.95 43.48 41.32 41.78 57.68 58.94 57.80 57.53 57.46 57.81 57.76 57.29 57.52 54.64 58.04 57.45 57.34 55.88 54.18 53.57 52.77 52.40 52.51 51.52 48.52
61.41 60.92 59.47 57.56 59.39 59.54 59.96 59.99 59.24 53.86 44.56 43.34 42.93 43.80 47.01 50.71 41.59 40.09 39.55 39.39 38.43 42.17 59.35 59.19 59.04 58.50 58.23 57.91 58.26 58.22 57.38 58.12 58.49 57.38 56.90 55.93 54.86 54.51 50.83 51.79 51.35 49.61 47.37
62.16 50.75 59.84 59.24 59.10 59.48 59.76 59.76 60.01 59.54 58.85 59.43 45.70 48.09 41.86 42.66 40.90 39.46 37.90 41.61 49.49 48.22 57.67 58.65 58.09 58.53 59.08 58.30 57.79 57.71 57.83 57.71 57.02 56.84 56.01 55.85 55.27 54.04 52.24 51.73 50.40 48.98 44.14
61.25 59.03 60.74 60.24 59.62 58.14 60.07 60.06 59.92 59.89 59.61 59.70 60.73 47.23 46.79 40.19 39.08 37.62 38.01 57.79 57.11 55.90 56.04 56.24 57.59 58.05 57.37 57.64 58.28 57.32 57.21 57.00 56.40 55.66 55.49 54.98 55.16 54.21 53.23 52.50 50.99 40.28 40.08
60.83 52.28 55.52 60.17 59.50 59.07 59.54 59.63 59.57 59.57 59.71 59.80 59.68 59.50 58.57 50.48 55.80 55.57 52.66 56.33 59.91 59.46 58.59 57.62 57.27 56.78 56.93 56.64 56.41 56.61 56.19 54.62 54.99 55.23 55.24 54.77 53.97 53.73 53.20 51.75 49.86 45.20 41.96
60.20 58.08 51.04 59.39 59.50 59.32 59.28 59.31 59.77 59.68 59.48 59.57 59.95 58.82 47.33 58.11 59.27 59.65 59.18 58.37 59.09 60.02 59.96 59.32 58.52 57.70 56.78 55.89 55.52 54.82 54.85 55.23 55.12 54.99 54.46 53.90 53.54 52.22 52.70 51.45 47.10 42.91 40.06
60.72 59.40 57.79 59.08 59.87 59.41 59.80 59.88 59.80 59.74 59.82 59.77 60.12 58.79 39.10 56.61 59.86 59.74 59.85 59.76 59.81 60.31 60.71 60.38 59.36 59.22 58.38 57.28 55.79 55.21 54.53 54.16 54.45 54.60 54.04 53.60 53.23 51.94 51.00 48.81 44.35 41.47 39.48
60.48 59.59 58.15 59.28 60.04 53.81 57.91 60.10 59.85 59.91 59.98 60.23 60.51 59.99 54.82 57.02 59.00 60.09 60.06 60.46 60.19 59.96 60.06 60.06 59.66 59.74 60.01 59.83 59.10 57.67 55.90 55.55 55.36 54.66 53.25 51.96 49.05 48.47 49.05 46.46 43.81 42.98 41.24
61.04 60.46 59.14 59.58 59.34 59.21 59.33 59.29 60.04 53.20 59.70 60.24 60.39 60.35 59.98 57.98 58.57 59.76 60.65 60.74 60.11 59.92 59.83 59.53 59.21 59.33 59.48 59.52 59.43 59.29 59.01 58.35 57.00 56.37 54.62 52.71 52.19 47.42 48.15 45.81 43.33 40.72 39.20
60.86 60.51 60.56 60.30 60.02 59.29 59.86 59.68 60.27 60.20 59.53 59.72 60.30 60.45 60.79 60.41 59.29 59.51 60.11 60.59 60.27 59.62 59.21 59.05 59.04 58.71 58.52 58.56 58.72 59.08 52.76 38.99 54.06 48.04 55.43 54.20 51.61 46.77 46.17 44.87 41.22 39.42 38.61
60.77 60.78 60.55 60.27 60.18 59.48 59.68 59.35 59.84 60.03 60.01 59.76 60.00 60.53 60.71 60.65 60.41 59.88 59.92 59.86 59.68 59.34 59.21 59.07 58.86 58.95 58.78 58.21 57.66 49.70 37.81 37.82 46.36 41.56 53.81 51.75 46.41 46.72 42.99 41.52 40.64 39.26 38.07

GFSGL_sfc_wetblb_030.txt.gz
Wetbulb
65.91 66.40 66.36 66.76 67.04 67.46 67.74 66.82 66.45 67.08 66.43 65.57 65.83 65.84 65.88 66.14 66.28 66.46 66.33 65.97 65.16 65.44 66.09 65.86 64.66 66.41 65.31 63.87 64.71 65.86 64.12 65.00 59.77 60.44 61.17 61.67 61.42 61.34 62.04 62.20 63.16 62.35 60.32
65.77 65.50 65.85 66.52 66.87 67.31 66.27 66.17 66.34 66.13 66.50 65.74 65.88 65.44 65.17 65.41 66.02 65.82 64.65 64.90 64.50 64.51 63.28 63.29 63.84 64.42 64.28 65.26 67.29 64.51 63.52 61.51 60.17 57.57 59.80 60.10 60.41 61.52 61.66 61.55 61.37 61.64 61.09
64.67 64.89 65.69 65.73 66.53 65.89 66.07 66.23 66.47 66.09 65.52 65.60 65.69 64.97 64.93 65.00 65.12 65.38 64.68 64.37 63.97 62.78 63.44 64.02 63.54 63.65 63.94 64.62 65.16 63.60 64.22 61.89 61.09 58.93 58.11 59.94 60.22 60.93 60.03 60.63 60.26 60.86 61.37
63.80 64.22 65.12 65.46 65.95 66.17 66.50 66.00 66.35 66.23 65.61 65.09 65.16 64.42 64.38 63.97 63.87 63.48 63.73 63.87 63.02 63.73 64.86 65.37 65.21 64.75 64.79 62.04 64.42 63.31 63.65 60.65 60.04 59.13 58.39 58.41 59.13 59.96 59.91 57.99 57.41 59.34 60.09
63.22 63.80 64.75 65.65 66.07 66.21 66.33 66.02 66.11 65.93 65.34 64.84 63.79 63.40 63.12 63.03 62.99 63.06 63.04 62.95 63.92 64.63 65.07 64.82 65.65 63.23 59.78 60.98 64.89 64.38 62.13 60.66 59.23 58.39 57.95 57.89 57.93 57.91 57.65 58.68 58.23 58.73 60.34
63.05 63.24 64.66 65.56 65.30 66.14 66.24 66.17 65.68 64.77 64.70 64.46 63.16 62.42 62.44 62.94 50.78 53.64 60.13 62.66 62.84 62.86 63.41 63.53 64.72 61.00 57.98 53.06 54.17 56.31 60.72 60.47 59.02 58.57 57.97 57.27 57.91 59.05 59.02 58.81 57.50 57.48 56.58
62.55 63.16 64.37 65.33 64.98 65.67 66.02 65.71 64.92 64.91 62.44 64.90 64.12 63.41 62.16 62.67 49.56 50.69 53.53 63.72 63.08 64.05 63.85 63.01 62.46 62.25 61.45 61.04 52.99 53.00 52.96 52.36 56.56 59.95 58.71 59.45 58.83 59.92 60.02 59.56 59.68 59.76 58.55
62.29 62.08 64.43 64.71 64.27 65.51 65.89 65.84 66.14 64.53 62.85 61.43 61.36 60.47 60.55 61.76 48.51 49.11 52.14 64.75 63.57 63.28 63.28 62.79 63.06 61.20 60.13 59.73 60.23 60.74 60.02 59.34 61.24 61.31 60.92 61.00 61.84 63.85 63.32 60.67 63.07 63.83 61.59
61.85 61.67 63.64 64.54 64.25 64.73 64.14 64.97 66.46 66.23 65.32 64.62 63.72 60.21 57.37 59.77 46.39 46.57 56.01 63.74 61.88 61.67 63.35 61.96 62.36 60.43 47.39 50.64 59.27 59.19 57.36 55.93 49.45 49.66 52.36 52.38 50.87 52.56 59.53 62.82 60.40 59.73 57.91
62.17 61.93 63.20 64.29 64.35 64.10 63.98 65.12 66.72 66.67 65.63 65.64 63.15 61.17 54.36 57.19 44.22 46.03 56.16 63.18 61.55 61.22 63.79 60.96 51.82 55.47 47.30 50.74 61.28 60.59 61.34 61.93 62.12 60.39 58.24 54.54 56.54 54.99 51.38 64.61 62.29 59.73 60.07
62.81 62.64 62.79 64.86 64.44 64.93 64.56 66.28 66.53 66.20 65.40 64.47 64.05 63.74 59.79 57.50 52.94 46.39 51.47 61.30 60.67 60.88 61.71 62.08 59.64 44.74 45.82 49.21 53.93 62.65 60.07 62.37 58.34 63.08 63.03 62.93 62.13 61.90 62.49 65.17 65.38 64.09 60.87
62.95 62.59 62.57 64.89 63.94 64.32 64.35 66.26 66.43 65.77 64.80 63.95 63.98 63.32 61.87 61.72 53.60 47.50 48.75 53.82 55.63 60.67 61.30 63.25 58.93 43.62 44.57 45.92 52.56 44.84 46.42 54.78 62.43 61.03 60.71 59.96 60.59 61.91 63.03 63.83 63.74 63.32 62.64
62.87 62.83 62.78 63.75 64.22 64.07 63.60 65.02 65.30 65.92 64.52 63.60 63.93 63.31 63.11 63.84 62.86 46.94 45.85 47.12 50.39 63.08 64.14 52.98 44.42 42.35 42.21 45.86 42.82 44.84 47.43 62.46 62.52 61.84 61.44 61.31 61.35 60.48 58.93 57.92 58.20 57.10 57.70
62.72 62.99 63.01 63.11 63.67 64.46 63.48 63.33 64.20 64.35 63.78 61.38 61.23 63.62 64.00 64.07 63.85 63.75 62.69 62.50 51.05 59.68 51.79 58.56 53.37 51.06 46.58 51.24 50.10 52.89 63.23 62.61 61.10 59.57 57.91 58.02 57.94 57.52 58.06 58.40 57.01 56.73 55.03
63.21 63.32 63.18 62.86 62.98 64.21 64.26 62.53 61.74 64.62 61.34 61.36 60.93 60.93 62.10 63.54 63.85 59.08 60.31 64.51 64.90 60.62 61.48 61.99 62.58 62.25 61.75 61.22 61.44 61.80 62.68 62.32 61.72 61.91 60.48 58.90 58.24 58.51 58.18 58.58 58.09 56.74 54.96
62.89 63.19 62.78 61.91 62.58 62.80 63.62 62.88 43.63 47.43 48.90 47.66 49.20 55.67 60.54 50.39 46.12 46.55 46.74 45.84 44.49 46.96 61.66 62.92 63.14 62.45 61.25 61.22 61.57 61.87 62.35 59.07 61.77 61.44 60.64 59.34 58.28 57.98 57.71 57.69 57.66 56.81 55.94
63.48 63.64 62.94 59.75 61.70 61.39 61.84 62.75 61.51 55.35 46.85 44.46 44.96 45.91 45.61 47.98 42.95 42.26 41.21 40.14 40.40 46.00 63.34 63.75 62.90 61.53 60.64 60.69 61.07 61.27 60.94 61.67 62.19 60.83 60.34 59.65 59.04 58.37 56.06 56.82 56.95 57.09 55.45
64.33 51.94 63.04 61.98 61.58 61.56 61.04 61.23 61.62 61.03 59.97 60.16 46.27 49.42 43.07 42.24 39.70 39.54 39.30 44.40 55.33 53.40 60.67 60.70 60.77 60.94 60.07 59.66 60.17 60.43 60.86 61.32 61.12 60.83 60.50 60.45 59.57 58.33 56.78 56.76 56.69 56.29 54.96
64.14 62.92 62.98 62.56 62.05 59.86 61.72 61.00 60.87 60.73 60.17 60.43 60.86 48.55 45.65 40.16 38.92 37.66 39.23 60.62 59.96 59.71 60.06 59.97 61.05 60.88 61.01 61.15 60.96 60.63 61.01 60.84 60.85 60.66 60.51 60.40 60.01 58.66 57.37 57.25 56.96 45.33 47.52
64.67 55.04 57.60 62.61 61.83 61.33 61.36 61.09 60.49 60.51 60.44 60.25 60.52 60.97 60.60 52.81 57.31 57.42 55.81 59.03 60.14 59.91 59.63 59.36 59.66 60.35 60.84 60.56 60.25 60.83 60.39 59.66 60.39 60.48 60.39 60.28 59.89 59.13 57.65 57.22 56.94 53.31 50.41
64.75 63.52 54.92 62.57 62.17 61.36 61.10 61.04 60.97 60.76 60.77 60.80 60.81 59.95 48.73 60.17 59.67 60.46 61.13 61.18 61.36 61.26 61.61 61.26 60.33 60.20 60.12 60.19 60.14 59.61 59.32 59.59 59.75 59.72 59.76 59.79 59.25 57.86 57.64 57.63 56.86 52.51 47.58
64.78 64.18 62.12 62.11 62.64 61.96 60.96 61.22 61.40 61.10 61.10 60.93 61.53 59.86 40.11 61.06 60.29 60.07 60.43 61.04 61.74 62.30 62.65 62.36 61.65 61.27 60.40 60.07 59.59 59.22 58.72 58.62 58.98 59.03 59.01 59.10 58.79 58.18 57.40 56.72 55.97 52.46 48.61
64.63 64.23 62.52 62.57 62.89 56.16 61.04 61.05 60.90 61.40 61.36 61.52 61.67 61.47 59.73 61.32 61.37 61.13 61.20 61.92 62.25 62.34 62.44 62.36 62.10 61.80 61.75 61.23 60.89 59.94 58.42 58.21 58.92 59.28 58.74 58.36 57.73 57.24 56.67 56.17 54.30 50.33 47.29
64.65 64.33 63.35 62.53 62.72 62.54 62.30 61.81 61.66 53.99 60.67 61.28 61.66 61.55 62.01 62.19 62.23 62.48 62.49 62.98 63.33 63.74 63.73 62.90 62.49 61.88 62.00 61.69 61.44 61.39 60.80 60.07 59.36 59.16 59.69 58.57 57.83 54.37 56.35 54.82 52.97 50.57 48.52
64.42 64.17 64.05 63.27 62.96 62.38 62.56 62.63 62.60 62.66 62.05 61.79 61.96 62.18 62.59 62.92 62.90 62.75 63.12 63.42 63.83 63.96 63.92 63.77 63.45 62.93 62.54 61.97 61.74 61.82 55.83 40.08 57.10 52.28 60.48 59.39 58.24 57.32 55.06 54.29 52.08 49.98 44.50
63.68 64.30 64.09 63.91 63.54 63.39 62.99 63.04 63.04 63.35 63.06 62.97 62.99 63.39 63.61 63.48 63.61 63.80 63.68 63.83 63.69 63.95 64.16 63.84 63.74 63.66 63.14 62.48 62.02 54.35 40.07 37.63 50.50 39.30 59.17 59.68 57.81 56.75 55.15 53.36 49.89 42.90 39.35

GFSGL_sfc_wetblb_033.txt.gz
Wetbulb
66.28 66.29 66.84 67.29 66.59 66.95 67.41 66.95 66.94 67.32 65.97 65.32 65.93 65.85 65.74 65.78 66.46 66.84 66.74 65.57 64.67 65.56 64.69 64.92 64.73 63.92 66.81 64.36 65.58 65.83 64.91 65.31 60.40 61.75 62.50 61.11 60.56 60.64 61.33 61.52 62.00 62.09 60.21
65.84 65.84 66.20 67.51 65.92 66.54 66.06 66.58 67.09 66.41 66.26 65.29 65.83 64.98 64.85 65.37 66.36 65.75 64.97 65.38 64.92 64.45 65.10 64.61 63.75 64.88 65.26 66.19 66.54 64.98 63.46 65.00 60.44 58.30 59.91 59.77 59.88 60.08 60.35 59.76 61.25 62.02 60.49
65.09 64.87 65.76 65.95 66.89 66.11 66.13 66.00 66.47 66.16 65.64 65.58 65.86 65.02 64.49 64.81 65.21 65.06 64.92 64.65 64.61 63.40 63.64 64.51 63.17 64.52 64.32 62.33 62.13 61.93 62.44 61.76 60.74 58.88 58.16 59.58 59.78 60.71 59.89 59.92 59.91 59.92 60.26
64.14 64.88 65.41 66.49 66.13 66.64 66.30 66.16 66.24 66.22 65.50 65.08 65.56 64.95 65.12 65.08 64.87 64.65 64.74 64.00 63.57 64.39 65.34 65.38 63.57 64.20 61.57 62.61 62.12 61.19 60.87 59.92 59.76 58.61 58.02 58.08 58.68 59.42 58.95 57.80 57.28 59.10 58.10
63.73 64.45 65.47 66.14 66.93 66.22 65.98 66.17 66.28 66.36 65.00 65.04 64.77 65.08 64.27 64.04 63.36 63.89 64.12 63.63 64.07 64.58 65.59 65.11 64.92 62.37 59.10 60.46 63.16 61.73 60.34 59.13 58.56 57.94 57.30 57.50 57.24 57.18 56.69 58.08 57.18 58.22 57.92
63.85 64.14 65.60 65.23 65.13 65.85 65.98 66.22 66.14 65.99 65.33 64.48 63.18 62.94 63.49 64.24 52.28 54.96 60.56 64.43 64.60 64.70 64.72 65.10 64.08 61.13 57.45 53.03 56.15 57.53 60.29 59.69 58.43 57.89 57.41 56.47 57.10 58.08 58.46 57.62 57.26 57.05 56.15
63.57 64.71 65.11 65.13 64.39 65.27 65.63 65.32 64.58 65.28 65.34 64.60 64.03 63.32 64.53 62.80 51.25 51.94 54.02 64.57 64.29 64.91 64.29 64.19 63.85 62.88 62.21 61.29 53.76 53.23 52.69 52.62 56.07 59.57 58.13 58.47 57.92 58.59 58.15 56.75 56.69 59.06 59.20
63.15 64.13 65.35 65.15 64.24 64.88 65.42 65.67 65.26 64.55 63.74 62.07 61.80 63.22 64.36 60.89 49.90 49.70 53.27 64.83 65.08 64.87 64.42 63.91 62.65 62.54 62.23 62.65 61.50 59.99 60.05 60.31 60.57 61.15 60.83 60.56 60.36 59.44 57.97 57.13 59.36 63.12 61.30
62.55 63.56 65.12 64.97 65.00 64.57 64.71 65.67 66.76 65.54 65.54 64.52 62.91 60.38 61.97 61.00 48.20 46.99 54.10 64.81 64.64 63.93 64.09 63.70 61.70 60.63 48.87 50.74 59.78 57.95 57.60 57.78 52.37 51.34 51.50 50.61 48.80 51.52 57.48 61.04 60.93 59.14 56.50
62.60 63.01 65.18 65.33 65.00 65.11 65.37 66.06 67.33 66.86 65.59 65.24 62.98 61.69 55.02 62.69 46.22 45.53 53.30 63.03 63.88 61.74 61.10 59.58 49.64 56.62 47.35 50.80 61.45 58.98 58.00 58.56 59.32 60.06 59.33 54.18 56.90 56.55 52.39 64.01 62.78 59.68 58.85
63.45 63.21 64.66 65.30 65.36 65.97 65.71 66.90 66.90 66.00 65.62 64.64 62.32 60.49 60.27 61.90 59.39 46.08 49.34 64.00 63.17 62.89 61.50 60.90 58.28 46.25 48.52 50.37 54.60 64.14 60.90 61.23 57.89 62.06 62.56 61.96 62.64 62.40 62.86 64.46 64.95 65.83 61.70
63.80 63.08 63.93 65.24 64.84 65.44 65.61 66.64 66.25 65.56 64.07 63.99 62.67 60.24 60.40 61.15 52.37 46.52 47.89 54.10 56.34 62.81 60.27 61.28 56.70 44.13 46.29 48.02 55.80 47.63 48.91 56.50 63.45 62.18 62.35 62.19 62.15 63.11 63.55 64.70 66.60 64.30 62.73
63.52 63.33 63.84 65.37 64.59 65.02 65.06 66.08 64.55 65.87 63.97 64.34 64.25 62.00 61.92 62.29 59.96 48.25 47.17 47.35 50.42 62.18 63.77 53.73 43.82 43.32 44.05 48.73 45.53 47.13 48.12 63.43 62.58 62.35 61.03 60.36 60.80 63.20 63.93 63.06 61.36 60.57 61.32
62.97 63.56 63.78 64.64 63.75 64.36 64.04 65.50 65.26 64.47 62.61 64.00 63.21 63.66 62.60 63.18 63.23 63.80 58.92 61.15 50.33 55.86 51.68 55.47 54.35 51.28 46.63 54.68 55.03 55.19 62.12 63.19 61.91 61.66 61.89 62.42 63.16 61.08 60.31 60.51 58.16 57.68 56.67
63.19 63.45 63.47 63.87 64.33 63.79 63.71 63.30 64.31 66.15 61.14 61.71 64.61 64.31 63.33 62.70 62.81 58.82 60.61 63.56 64.21 60.50 61.55 62.21 61.25 61.28 60.11 60.43 60.61 61.14 62.83 62.88 62.41 61.93 60.47 58.53 57.86 57.75 58.47 59.44 58.65 57.95 56.26
63.81 62.79 62.79 63.02 63.30 64.70 63.30 61.86 43.19 46.75 47.08 45.57 44.78 55.53 62.44 53.20 47.92 46.72 48.64 47.87 46.05 48.49 61.91 62.24 61.77 61.31 60.51 60.67 60.93 61.51 62.26 59.90 62.83 62.70 61.52 60.10 58.63 58.48 58.79 59.09 59.41 58.31 57.03
65.32 65.10 62.80 60.15 62.82 63.14 64.11 63.25 60.40 56.09 47.10 47.06 44.04 45.33 49.11 50.77 45.65 44.03 43.34 42.94 44.64 48.88 62.94 62.41 62.53 61.74 60.60 60.80 61.04 61.36 61.34 62.22 63.97 62.30 61.55 60.56 59.47 59.25 56.63 57.98 58.00 57.71 57.41
65.58 52.25 64.06 62.08 62.30 62.21 63.43 63.92 63.26 61.05 59.63 60.29 48.16 51.09 45.04 43.53 42.82 41.87 41.41 47.24 59.08 55.74 63.28 63.71 62.96 62.68 61.81 60.96 60.98 61.42 61.88 62.72 62.01 61.64 61.47 61.59 61.37 59.36 58.35 57.55 57.58 57.55 57.32
65.14 63.39 64.06 63.17 62.47 60.56 62.16 62.68 63.30 62.77 60.99 59.28 59.68 50.09 45.23 39.68 39.39 39.65 41.33 60.47 60.89 61.64 62.60 63.33 63.11 62.97 62.27 61.30 61.86 61.84 62.79 62.72 62.21 62.48 62.33 62.10 62.27 60.91 59.78 58.42 57.73 46.65 50.71
65.21 55.39 58.21 63.06 62.16 61.84 61.79 61.17 61.05 61.12 61.33 60.60 59.76 59.17 58.29 52.68 56.81 57.59 57.77 60.35 59.88 59.52 59.62 59.77 60.70 61.80 61.84 61.50 61.73 61.40 60.75 61.71 62.35 62.98 62.63 62.44 62.42 61.86 59.91 59.19 58.35 57.98 56.39
64.51 63.83 55.40 62.80 62.42 61.85 61.28 61.39 60.97 60.64 60.52 60.67 60.71 60.02 49.83 58.63 58.53 59.17 59.49 59.98 60.40 60.83 60.78 60.91 60.35 60.49 61.51 62.41 62.01 61.91 61.94 61.87 62.27 62.32 62.41 62.41 62.47 60.95 61.88 60.94 59.75 59.00 57.75
65.78 65.01 63.51 62.56 63.02 62.09 61.53 61.55 61.52 60.89 60.69 60.59 61.08 59.24 41.65 60.70 59.20 59.41 60.17 60.88 61.09 61.92 61.94 62.77 61.73 61.42 61.42 61.45 61.65 62.17 61.10 61.03 62.19 62.27 61.87 61.93 62.00 61.78 61.26 60.27 59.23 59.08 57.69
65.69 65.43 64.51 63.91 63.42 56.90 61.30 61.46 61.25 61.38 61.08 61.17 61.39 61.08 58.68 61.65 61.47 60.78 61.33 62.80 63.89 64.17 64.48 64.25 63.29 62.61 63.12 63.46 63.51 62.61 61.01 61.30 62.09 62.63 62.10 61.45 61.20 61.20 61.10 59.98 58.71 58.22 57.02
65.88 65.55 65.38 64.39 63.79 63.39 62.76 62.64 61.32 53.71 60.79 61.36 62.00 61.67 61.96 62.77 62.69 62.69 62.56 62.90 63.48 63.91 64.22 64.32 63.84 63.01 63.91 64.49 63.87 63.22 62.80 62.61 62.56 62.00 62.02 61.64 60.98 58.47 60.10 58.90 57.98 57.31 55.89
65.68 66.24 66.27 66.11 64.66 64.46 63.55 63.12 63.48 61.13 61.12 61.22 62.42 62.44 62.09 63.74 63.64 63.84 64.42 64.25 64.39 64.48 64.62 64.85 64.78 64.05 63.99 63.31 63.32 63.04 57.42 39.72 57.72 51.88 61.05 61.73 60.98 60.64 59.43 58.03 57.62 57.72 53.55
64.70 65.42 66.31 66.51 65.76 65.42 64.89 64.47 64.57 64.34 62.82 63.03 63.13 63.40 63.46 63.34 63.11 64.83 65.11 64.95 64.64 64.53 65.09 65.71 65.99 65.55 65.09 64.32 64.00 56.14 41.08 37.61 50.21 39.41 60.01 61.67 60.59 59.67 59.00 58.68 57.35 55.56 49.77

GFSGL_sfc_wetblb_036.txt.gz
Wetbulb
66.87 67.53 66.25 67.26 65.99 67.14 67.75 67.74 67.17 67.43 65.70 65.75 66.14 66.09 65.49 64.94 65.52 65.03 64.30 64.59 63.40 63.40 62.41 62.23 61.80 61.85 63.07 64.17 63.93 62.21 61.44 61.50 58.02 60.33 61.32 60.93 60.46 60.54 61.14 61.64 61.97 61.60 60.54
66.37 66.36 65.73 65.42 66.23 67.05 66.78 67.13 67.47 66.85 66.20 64.91 64.77 63.82 65.06 65.30 65.19 64.71 64.88 64.06 63.64 62.40 62.21 61.50 61.87 62.83 61.19 62.44 62.35 61.53 61.40 61.71 59.43 57.69 58.92 59.14 59.34 60.33 60.88 60.72 61.09 61.62 60.67
65.29 65.71 65.10 66.08 66.42 66.60 66.29 66.85 66.88 66.45 65.29 63.79 64.02 63.52 63.83 64.82 64.74 64.96 64.21 64.17 63.27 63.07 62.58 62.21 61.75 61.88 61.40 61.54 61.34 61.22 61.49 61.46 60.16 58.23 57.51 59.08 59.10 59.90 59.36 59.66 59.42 59.10 59.48
64.70 64.95 65.75 66.31 66.53 66.16 66.61 67.19 67.22 66.63 65.06 63.59 63.27 64.15 63.44 63.60 64.53 64.00 64.20 63.62 63.24 63.43 63.46 62.41 62.22 62.32 61.32 60.82 60.34 60.02 60.32 60.13 59.47 58.29 57.41 57.83 58.21 58.99 58.57 57.13 56.43 58.33 57.69
63.95 65.37 65.92 67.00 66.28 66.47 65.48 65.50 66.06 66.50 65.32 63.37 63.86 64.22 64.71 63.96 62.77 63.64 63.78 63.36 63.38 62.96 63.07 63.24 62.39 60.44 59.80 60.43 60.76 59.72 59.63 58.93 58.33 57.57 56.77 56.69 56.75 56.71 56.27 56.79 55.38 55.97 55.40
64.24 65.30 65.67 65.74 64.55 66.01 65.34 65.62 65.85 65.39 64.52 63.73 63.63 63.38 64.11 62.19 51.64 54.98 60.16 62.77 63.06 63.14 61.98 61.92 61.43 58.96 56.49 55.48 55.99 55.75 58.13 58.65 57.62 57.04 56.57 55.95 56.31 56.91 57.03 55.53 55.23 53.84 53.11
64.01 65.25 64.81 64.92 64.71 65.37 65.08 65.04 64.71 64.83 64.61 63.38 63.20 63.57 62.33 60.43 51.78 51.88 53.79 64.60 63.81 63.54 63.32 63.22 62.17 61.14 60.22 58.56 52.61 53.58 53.24 52.88 55.43 58.60 56.96 57.09 56.77 57.55 57.06 56.71 55.91 55.61 55.08
63.57 64.47 64.52 64.55 64.59 65.18 65.32 64.96 64.96 65.41 63.84 62.73 62.91 64.01 61.65 58.77 49.78 48.69 50.48 64.41 63.42 63.28 63.35 63.08 62.66 62.29 60.68 60.61 59.80 59.32 59.10 59.52 59.29 59.97 59.29 58.95 59.13 59.07 58.74 58.14 57.68 59.36 58.61
62.98 64.11 65.05 64.85 64.32 64.85 64.60 65.38 64.65 64.65 63.94 62.55 62.23 60.94 60.87 60.06 46.88 47.24 53.67 63.93 62.72 62.77 62.57 61.66 61.15 59.52 49.56 50.50 59.21 58.35 58.27 57.55 51.92 51.23 51.19 49.78 48.33 50.14 55.41 57.03 58.08 56.00 54.10
62.66 64.18 64.75 65.40 65.16 63.99 65.51 65.10 66.18 65.48 64.14 62.02 60.55 60.83 56.76 60.52 46.70 45.97 52.06 62.88 61.36 60.47 59.84 57.79 50.63 54.91 48.69 50.69 59.29 58.91 57.59 58.27 59.01 58.36 56.45 52.10 52.43 52.46 50.10 59.01 59.02 55.58 54.51
63.08 64.66 65.04 65.49 66.17 66.17 66.05 66.16 65.96 64.90 64.00 62.39 60.87 60.69 62.88 61.01 56.82 45.61 48.15 63.49 61.37 59.88 59.13 58.86 55.55 47.42 50.09 50.67 53.51 59.85 58.14 59.50 56.15 59.41 60.23 60.24 59.70 59.61 58.92 59.23 61.98 60.14 56.41
63.23 63.46 64.83 65.73 64.96 65.44 65.74 66.08 65.60 64.90 63.28 60.46 59.52 59.55 61.23 62.10 53.70 48.65 48.51 55.47 56.59 60.83 59.98 58.64 51.02 45.65 48.40 51.77 54.02 46.70 47.97 55.01 60.59 60.39 60.10 59.81 60.10 60.15 60.17 61.07 61.64 60.80 60.56
63.05 63.45 64.54 65.00 65.25 65.37 65.59 65.27 64.66 64.26 63.02 61.23 60.47 59.84 59.91 60.84 59.54 48.15 47.78 47.42 53.63 61.07 61.85 50.33 43.20 44.81 45.23 47.60 47.06 47.24 49.70 60.80 60.39 60.02 59.62 59.97 60.71 61.74 61.93 59.52 58.92 58.64 58.01
63.42 63.62 64.64 64.00 63.63 64.37 65.99 65.79 64.53 64.46 63.46 62.53 61.20 60.94 60.85 60.72 60.37 60.10 59.44 57.13 50.83 53.91 49.88 52.85 51.64 51.21 50.40 53.28 53.05 53.51 61.59 62.17 61.16 60.29 60.33 61.03 60.75 60.76 59.78 59.25 56.35 55.22 53.55
63.94 63.44 64.37 64.03 63.61 63.38 65.09 62.70 64.34 56.33 61.54 64.13 63.27 62.56 61.31 60.87 61.13 57.47 58.68 61.70 61.63 57.76 58.20 58.64 58.17 58.87 58.15 58.55 60.51 60.74 60.40 60.04 60.30 60.08 58.94 58.31 58.94 58.95 58.24 58.30 56.40 54.50 52.90
63.46 63.40 63.10 63.61 63.69 62.52 61.32 59.38 43.05 45.70 44.98 43.91 50.82 59.85 62.94 54.45 48.50 48.89 48.72 48.55 48.32 47.97 59.71 59.69 58.92 58.71 57.99 57.81 58.42 58.92 60.76 58.74 60.64 59.84 58.70 58.06 57.17 56.76 56.69 56.24 55.92 54.81 53.27
63.20 63.46 62.78 61.74 63.26 62.65 61.78 60.84 58.80 52.50 44.08 44.38 44.39 48.63 53.42 51.29 46.81 45.28 45.29 44.12 45.28 48.39 61.25 60.67 59.70 59.54 58.96 59.42 59.05 59.22 59.62 60.06 60.68 60.50 58.85 57.46 56.97 56.70 52.17 55.94 55.83 55.72 54.79
64.24 53.54 63.31 62.61 62.85 63.95 63.52 62.03 60.81 60.09 59.30 58.68 49.33 51.14 46.30 44.65 44.66 43.82 43.06 48.81 56.09 53.87 61.48 61.78 61.46 60.74 59.96 59.68 60.00 59.77 60.14 60.69 60.19 60.19 59.96 59.24 57.83 57.10 55.97 55.89 55.57 54.79 54.11
63.92 63.36 63.40 62.08 63.31 60.89 63.96 64.01 62.57 60.79 60.22 60.53 56.75 51.04 43.24 40.97 40.89 41.59 43.84 61.92 60.86 60.63 60.89 61.93 62.98 62.61 61.00 60.58 60.04 60.24 60.56 60.33 60.22 59.66 59.51 59.40 58.77 57.39 56.29 56.01 55.47 46.04 48.28
64.52 56.01 58.10 63.02 62.06 61.98 62.14 62.60 62.82 61.99 59.96 58.51 59.13 58.18 53.92 50.49 55.55 56.67 57.20 61.33 62.12 62.08 62.13 61.76 62.56 62.45 62.59 61.32 60.38 60.10 59.79 58.45 59.40 60.30 59.44 59.40 59.21 59.01 57.51 56.89 55.90 54.46 52.40
64.46 63.31 54.48 62.88 61.93 61.86 61.19 61.11 61.37 61.80 61.62 59.62 58.74 58.32 47.80 57.27 57.67 57.63 57.42 58.34 58.70 58.96 60.08 61.09 61.97 60.31 60.45 60.81 60.30 59.54 59.00 59.02 59.60 59.77 60.08 59.60 59.25 58.57 58.89 58.20 56.84 55.49 54.08
64.12 63.87 62.29 61.93 62.92 61.95 61.41 61.68 61.26 60.78 60.51 60.98 60.80 56.22 42.15 58.09 59.30 59.19 59.04 58.84 59.60 59.97 60.84 61.00 59.84 59.48 59.24 59.54 60.23 60.12 59.76 59.09 59.22 59.32 59.45 59.80 59.70 59.19 58.62 58.13 57.15 55.90 54.19
64.88 64.20 63.03 62.28 62.22 56.24 59.05 61.37 61.47 61.19 60.54 60.69 60.90 58.17 54.17 57.43 57.99 58.21 58.81 59.68 60.15 60.35 60.75 60.80 60.33 60.75 61.14 60.52 60.22 60.14 59.94 59.83 59.55 60.15 59.61 59.09 58.91 58.46 58.43 56.70 56.63 55.33 54.34
64.86 65.32 64.61 62.68 62.23 62.50 62.53 61.35 61.16 53.72 60.89 60.70 60.78 59.84 57.46 58.67 59.72 59.00 59.14 59.85 60.08 60.50 60.40 60.34 59.97 59.97 60.85 61.80 61.85 61.27 60.59 60.30 60.60 60.23 60.15 59.45 58.79 53.59 57.89 57.23 56.83 55.71 53.74
65.78 65.25 65.78 63.98 62.85 61.79 62.84 62.47 61.54 61.26 60.72 60.86 61.11 61.05 59.64 60.31 60.90 61.23 61.71 61.02 60.29 60.85 61.81 62.27 62.15 61.94 61.68 61.50 61.99 62.12 55.58 39.85 56.17 52.22 59.38 59.22 58.58 58.00 57.70 56.64 55.60 54.30 48.96
65.00 66.28 65.43 66.18 64.79 63.84 62.36 63.51 62.42 61.58 61.04 60.52 61.13 61.88 61.80 61.28 61.51 61.96 61.99 61.69 61.06 61.49 61.65 61.49 62.06 62.38 62.28 62.03 61.62 54.42 41.98 37.91 45.69 39.65 57.64 57.79 57.17 57.35 56.85 55.42 54.84 52.73 45.79

GFSGL_sfc_wetblb_039.txt.gz
Wetbulb
62.01 61.32 63.35 62.15 62.53 61.98 62.15 62.56 61.76 61.20 61.36 61.69 62.07 61.74 61.48 61.21 61.82 61.59 60.74 60.83 60.01 59.84 59.86 60.24 59.06 60.24 60.70 60.72 60.52 60.23 58.67 58.21 57.60 59.30 60.09 61.39 61.73 60.44 59.71 59.95 60.38 58.99 58.03
62.02 61.58 63.20 62.42 62.32 61.84 62.14 62.29 61.75 61.47 61.74 62.13 62.02 61.78 62.00 62.09 61.60 61.17 60.99 61.28 61.21 60.16 60.41 60.75 58.96 61.43 60.58 60.22 59.15 58.27 58.55 58.98 58.43 57.33 58.76 59.37 59.76 60.28 59.17 59.57 59.97 60.50 59.40
61.71 62.25 63.22 61.31 61.65 61.29 61.82 62.42 62.47 61.85 61.65 62.39 62.76 62.48 62.17 62.05 61.53 61.41 61.92 61.41 61.26 60.81 60.98 60.86 59.86 60.74 60.08 59.84 60.11 59.70 59.54 60.05 59.66 58.39 57.35 59.08 59.42 59.84 59.62 59.90 59.40 59.46 60.10
63.03 60.83 61.61 61.38 61.30 61.18 61.67 62.11 61.72 61.95 62.80 61.86 62.17 62.71 63.01 62.63 62.31 62.48 61.65 60.74 61.00 62.09 61.66 61.59 61.49 60.82 59.86 59.24 59.68 60.14 59.89 59.09 58.75 58.03 57.59 57.63 58.47 59.14 58.67 56.77 56.43 57.85 56.07
61.52 62.82 62.19 61.70 61.60 61.86 62.13 61.89 62.07 61.48 62.13 62.82 62.33 61.19 60.64 60.35 61.20 60.82 60.56 60.64 61.17 61.81 62.16 62.22 61.22 61.20 59.74 59.36 60.20 60.09 59.87 58.85 58.07 57.25 56.73 56.63 56.59 56.75 56.09 56.85 54.88 55.12 54.84
62.14 62.24 63.06 62.02 62.33 61.22 61.20 61.76 61.63 61.06 60.82 60.53 60.00 60.26 58.69 59.46 50.26 52.94 57.52 59.96 61.21 59.88 60.16 60.29 58.96 58.28 56.67 54.11 53.89 55.02 58.68 58.45 57.51 57.07 56.37 56.11 56.03 55.81 56.35 55.65 54.82 54.16 52.33
62.14 62.87 63.15 62.02 62.16 61.70 62.68 62.02 61.29 59.97 59.47 59.35 59.16 58.66 57.13 55.49 49.70 50.19 52.56 61.40 61.11 60.40 59.90 59.74 59.89 59.46 58.06 56.96 52.85 52.92 52.09 52.07 55.50 58.12 56.55 56.59 55.73 56.13 56.11 54.81 54.33 53.86 53.35
61.70 62.28 62.62 62.50 61.88 61.74 61.63 61.00 60.07 59.82 59.34 58.52 58.92 58.76 56.23 54.03 48.15 47.42 50.32 61.10 60.75 60.47 60.92 60.45 60.48 59.73 58.38 59.31 58.86 58.64 58.73 58.74 58.59 59.22 58.47 58.19 57.61 57.69 57.12 56.06 55.16 55.73 54.91
61.55 61.67 62.53 62.70 61.61 61.77 61.55 60.62 60.55 60.16 60.11 59.29 60.08 56.79 55.43 53.48 46.12 45.97 56.69 62.27 61.20 59.68 59.95 61.08 59.95 59.35 49.58 50.12 58.84 57.99 57.89 57.01 51.19 50.14 51.30 50.12 48.87 50.07 54.96 56.55 56.09 53.69 52.15
60.81 62.06 62.76 62.81 62.09 61.71 61.41 60.83 60.93 60.61 59.95 60.15 59.55 59.35 54.00 54.18 44.87 45.25 57.59 60.50 58.49 57.15 57.69 57.23 51.41 55.55 47.78 49.60 59.06 58.13 56.89 57.17 57.73 57.09 55.68 52.26 53.17 51.19 51.33 56.80 56.76 54.12 53.60
60.99 62.69 62.49 62.01 61.98 62.20 61.49 61.22 60.87 60.75 59.34 58.29 58.11 57.89 57.55 55.57 52.14 45.97 51.23 59.01 57.65 57.35 57.65 56.81 54.56 48.33 46.52 48.33 52.88 58.95 57.34 58.29 54.98 57.90 57.33 56.57 56.63 55.59 54.90 56.51 57.32 55.75 53.53
59.80 62.40 62.24 62.62 64.17 62.77 61.81 61.19 61.15 59.72 57.03 57.09 58.05 57.77 57.27 56.27 51.41 47.60 49.23 54.63 54.28 58.69 57.21 56.52 51.62 46.52 46.70 47.42 53.69 45.61 46.70 53.63 59.03 58.79 57.53 57.25 56.27 56.63 56.55 56.19 58.42 60.73 56.34
58.79 61.34 61.36 61.28 63.09 62.25 61.86 61.05 60.91 59.30 57.17 56.63 58.05 58.67 57.27 56.83 54.23 46.86 46.88 46.88 51.97 57.23 57.09 50.75 43.98 45.79 45.97 46.52 46.33 47.06 50.60 59.16 59.04 58.45 57.62 57.89 58.14 58.38 57.79 57.49 56.56 56.26 56.21
60.15 60.26 60.46 60.80 60.26 62.05 62.69 62.32 61.27 60.26 58.45 57.88 57.62 57.17 56.97 56.39 55.84 55.94 54.96 52.91 49.57 50.69 48.11 48.91 49.97 49.02 50.87 52.22 51.65 53.33 59.15 59.10 58.56 58.08 57.49 57.73 58.71 57.77 56.13 55.67 53.18 52.20 51.37
60.60 59.87 60.18 60.37 59.43 60.66 57.19 57.87 60.63 61.10 60.02 59.58 58.96 58.71 57.77 57.21 57.69 54.86 55.62 58.08 56.45 54.06 52.87 52.94 53.63 55.03 55.70 56.59 57.33 57.35 58.72 59.36 58.56 57.55 57.95 57.83 58.07 57.53 57.31 55.67 53.96 51.53 49.75
60.02 59.80 59.58 59.74 58.65 57.50 53.65 51.78 43.25 42.46 48.76 50.60 52.27 57.84 59.12 53.08 47.24 47.24 48.51 47.93 46.95 46.39 55.07 54.21 54.27 54.53 56.77 57.05 57.33 57.60 56.73 56.80 59.39 58.78 56.71 56.32 57.37 57.24 55.49 54.57 53.19 51.32 49.99
59.74 59.99 59.22 59.03 58.59 56.67 55.56 53.89 51.98 51.05 42.88 44.91 48.64 49.36 50.91 49.58 46.88 46.57 46.07 45.13 44.85 47.60 55.81 55.49 55.45 55.20 55.59 56.17 56.80 55.79 55.61 56.53 57.57 57.54 56.65 56.24 56.45 56.28 52.43 54.17 53.08 52.05 50.62
59.85 51.86 59.54 59.90 59.44 57.57 56.93 55.60 54.68 53.11 52.79 53.42 46.56 47.89 45.94 45.56 45.87 44.50 42.84 45.98 51.25 51.35 56.82 56.69 55.83 56.11 55.96 55.77 55.48 54.94 55.46 56.28 56.81 57.08 55.61 55.66 55.48 55.44 53.57 53.47 52.95 51.93 50.82
59.81 59.50 59.43 58.62 60.11 58.59 58.06 56.67 56.56 56.06 54.97 53.90 51.35 47.10 41.68 41.45 43.33 42.62 43.72 57.81 57.38 56.83 56.56 57.10 58.08 57.98 57.24 57.45 57.47 57.00 56.37 56.52 56.54 55.64 56.51 56.14 55.28 53.99 53.53 53.41 53.04 45.22 46.65
60.06 53.37 54.72 58.50 59.11 58.23 59.68 58.84 56.66 56.67 56.33 54.47 53.82 52.94 47.62 47.53 51.70 51.36 52.59 58.29 58.22 58.32 58.34 58.04 58.07 58.59 59.22 57.99 57.96 57.96 57.44 54.82 56.63 57.00 56.89 56.62 56.91 55.80 54.23 53.41 52.86 51.64 50.35
60.58 56.21 51.44 58.01 56.80 58.45 56.87 59.57 57.87 57.26 56.37 55.81 55.41 54.42 44.98 55.91 55.77 55.73 55.93 57.68 59.32 59.45 59.42 59.54 59.32 58.28 57.64 57.97 57.65 57.12 56.85 57.16 56.92 57.50 57.55 56.91 56.03 55.96 55.51 54.06 53.04 52.68 50.85
61.20 59.24 58.44 58.27 57.87 57.44 57.46 56.98 57.55 57.33 57.30 55.88 56.50 53.98 40.59 57.22 56.80 56.80 56.99 57.56 59.02 59.09 56.86 59.57 60.17 59.83 58.14 54.84 56.31 56.85 55.92 55.25 55.45 56.44 57.40 57.25 56.77 56.36 55.77 54.98 54.30 52.46 50.85
61.68 60.34 58.61 59.08 58.18 51.86 52.81 57.37 56.41 56.37 56.31 57.74 56.32 55.72 50.23 55.81 55.82 56.02 56.08 56.31 56.86 57.32 57.60 55.75 55.15 55.78 55.61 54.63 54.23 56.13 56.55 56.01 55.92 55.92 56.07 56.67 56.65 56.32 55.88 53.88 53.98 53.04 51.21
61.19 60.91 59.62 59.24 58.59 58.03 55.69 56.77 56.35 50.47 55.99 55.57 57.08 55.07 54.33 54.72 56.12 56.82 57.28 57.29 56.89 56.69 57.03 56.76 56.91 56.92 56.26 55.58 55.89 57.13 57.38 56.71 56.87 57.01 56.85 56.37 55.94 51.23 56.26 55.25 53.82 53.53 51.33
59.53 59.41 59.95 59.14 58.94 57.30 57.44 56.09 56.50 56.11 56.47 56.71 55.74 53.92 54.75 55.38 55.22 55.81 56.24 56.60 57.12 57.44 57.37 57.88 58.13 57.31 56.54 56.03 57.00 56.78 51.57 40.79 53.38 50.52 56.89 56.19 55.76 54.96 55.54 55.37 52.67 51.32 44.41
59.93 60.49 59.67 59.99 59.51 59.05 58.15 57.54 57.48 56.95 56.71 57.20 56.48 55.67 54.79 55.31 55.98 56.55 56.79 56.06 56.17 56.70 57.02 57.70 57.90 57.51 57.44 57.45 56.95 51.71 42.07 39.83 43.83 40.29 55.76 56.89 55.68 55.57 55.26 53.52 52.17 49.39 44.23

GFSGL_sfc_wetblb_042.txt.gz
Wetbulb
60.46 59.55 59.63 60.14 61.45 60.45 61.16 61.10 60.35 60.15 60.48 60.53 60.77 60.44 60.49 60.75 60.78 59.46 59.25 59.69 59.04 59.36 59.01 58.80 58.47 58.69 59.54 59.34 58.31 58.73 57.39 57.57 55.92 57.98 60.46 60.69 59.70 59.64 58.13 58.04 58.30 58.38 58.11
59.94 60.32 60.07 60.86 60.56 60.72 61.01 61.05 60.03 59.91 60.14 61.16 61.34 61.03 60.71 61.14 60.34 60.03 60.50 60.45 59.61 60.50 59.75 59.28 58.11 60.50 59.03 58.76 58.11 56.81 57.25 57.55 58.26 56.75 59.05 59.14 58.21 58.63 58.59 57.73 57.99 57.93 57.34
60.39 60.37 60.55 60.30 60.28 60.30 60.60 60.91 60.55 60.41 60.57 60.53 60.27 60.73 60.86 60.94 60.68 60.33 60.90 60.54 60.50 59.78 60.23 60.17 59.23 59.90 58.41 59.34 58.01 57.75 58.03 59.37 58.65 57.86 57.65 59.38 58.09 58.80 58.01 58.23 57.79 58.13 59.45
60.90 60.49 59.67 59.86 60.06 60.18 60.47 60.76 61.12 61.09 61.30 61.08 60.97 62.05 61.47 61.09 61.70 61.40 60.77 59.64 60.10 60.56 61.21 60.90 60.41 60.04 59.15 59.26 59.50 59.35 59.67 59.17 57.84 57.57 57.51 57.37 57.45 58.87 58.41 57.23 56.55 57.89 56.19
60.00 60.91 59.53 60.20 60.26 60.37 60.66 60.84 60.74 60.49 61.86 62.33 61.88 60.27 59.90 60.34 60.66 60.14 59.92 59.80 59.92 60.32 61.13 61.43 61.13 60.23 58.97 58.75 60.26 60.02 59.48 58.53 57.43 57.25 56.77 56.77 56.49 56.33 56.01 56.35 54.60 54.68 54.07
60.69 60.97 61.25 60.57 60.84 60.12 60.19 60.67 59.92 59.97 59.90 59.68 60.14 58.44 57.82 57.97 49.31 52.20 57.65 59.62 59.64 59.63 60.03 59.30 59.84 57.83 55.92 53.67 55.26 56.29 58.52 58.33 57.57 57.17 56.57 55.68 55.95 55.89 56.11 55.71 54.90 54.24 51.32
61.15 61.69 61.64 60.89 60.66 60.16 60.87 60.79 58.82 58.14 58.06 57.99 57.21 56.95 55.79 54.48 46.78 48.41 52.40 59.69 58.35 58.52 58.48 59.68 60.20 58.19 57.09 55.77 51.41 52.56 52.84 52.58 55.74 57.87 56.63 56.27 55.61 56.43 56.21 55.21 54.97 54.17 53.37
61.08 62.01 61.49 61.23 60.59 60.93 60.45 59.48 58.44 57.21 56.99 57.05 56.15 55.71 54.79 53.36 46.23 47.86 51.85 59.17 58.78 60.66 59.05 60.49 59.19 58.33 58.15 58.37 58.44 57.85 57.97 58.24 58.06 59.15 58.29 57.83 57.73 57.66 57.17 56.70 55.25 53.90 53.68
60.87 60.88 61.24 61.08 60.57 60.60 59.62 58.77 58.31 58.01 57.43 56.99 56.71 54.67 54.13 54.06 46.05 49.50 57.03 60.90 59.76 59.70 60.83 60.53 59.32 58.33 48.39 49.64 58.03 57.13 56.55 55.44 49.77 49.10 49.82 48.75 47.86 48.82 53.70 56.65 53.66 52.42 50.53
60.44 61.02 61.61 61.55 60.97 60.47 59.36 58.75 58.41 58.41 59.78 59.55 57.79 55.93 52.21 56.15 44.42 48.41 56.75 59.70 58.11 57.83 57.99 57.47 51.31 55.23 46.78 48.88 58.05 57.34 56.05 56.37 56.63 56.09 54.80 51.78 52.28 50.59 50.37 56.73 54.42 51.71 50.87
61.50 61.38 61.28 60.98 60.87 60.61 59.67 59.19 58.94 57.93 57.97 58.55 57.33 56.43 54.51 53.85 52.21 46.60 50.22 56.55 57.05 57.43 57.45 56.81 54.80 46.23 45.51 46.78 51.75 57.92 55.67 57.08 54.06 57.18 56.67 56.53 56.38 56.06 55.69 55.77 54.43 54.48 52.39
60.82 61.26 60.69 60.54 62.36 61.47 59.99 58.82 59.12 57.51 56.11 55.54 56.93 55.18 55.22 54.45 47.68 46.05 47.68 50.95 52.61 57.77 57.51 56.79 52.27 44.06 44.42 46.05 51.80 44.24 46.60 53.13 57.66 56.79 56.43 55.97 55.49 53.70 53.57 55.67 55.99 55.06 54.45
60.65 60.24 60.51 61.51 61.01 60.65 60.17 58.78 58.50 56.21 56.71 57.77 58.18 57.67 56.17 55.24 53.98 45.87 46.05 45.69 49.46 56.39 57.78 51.92 44.06 43.15 44.06 45.85 44.78 46.60 50.72 58.24 57.11 56.21 56.01 55.51 54.56 55.67 54.73 54.97 55.03 56.11 54.88
59.99 60.17 60.64 60.99 59.33 60.01 60.82 60.26 58.96 56.19 55.52 57.31 58.29 57.27 55.66 54.69 54.84 55.12 53.53 51.61 47.48 50.68 47.88 50.27 49.87 50.22 49.50 50.23 51.24 54.01 58.55 58.10 57.00 56.82 56.47 56.37 55.62 54.94 53.98 53.95 52.78 51.63 51.45
59.96 60.10 60.30 60.49 59.99 59.67 58.71 58.88 60.22 58.29 56.96 57.07 57.46 57.26 56.53 56.57 55.80 52.50 53.37 55.32 53.96 52.29 51.48 52.12 55.74 56.45 55.68 56.53 57.29 57.75 57.61 57.55 56.53 56.45 56.83 57.33 56.21 56.53 54.76 53.54 52.55 50.61 50.43
58.79 59.46 59.50 59.73 59.71 57.84 54.87 51.26 41.65 44.84 48.53 49.40 50.88 54.95 57.30 51.80 44.24 44.24 46.05 45.51 43.15 44.96 52.92 52.32 55.34 56.63 56.41 56.75 56.99 56.99 56.41 55.90 57.15 57.13 56.41 57.43 57.27 56.79 55.94 53.56 52.69 51.13 49.76
58.54 59.03 58.48 58.13 58.05 54.76 53.49 53.64 52.19 48.98 43.44 43.84 45.87 47.32 49.62 48.41 43.15 44.42 44.06 42.79 42.25 47.23 53.21 53.14 54.44 56.01 56.32 56.76 57.17 57.20 56.49 56.93 56.69 58.02 56.83 55.87 56.37 56.89 52.00 55.77 55.13 53.11 50.83
58.76 51.87 58.67 58.34 57.74 55.09 53.95 52.64 52.39 55.35 57.17 55.19 45.38 45.27 44.24 42.79 43.70 43.51 41.52 44.86 51.30 50.68 53.98 54.19 54.76 55.43 56.03 56.31 56.83 56.55 55.65 56.03 57.16 57.46 56.73 56.70 56.57 56.65 54.67 55.49 55.23 54.12 53.49
59.03 58.64 59.30 58.70 57.39 55.85 55.05 53.62 52.72 53.51 58.49 55.78 50.92 46.62 41.47 39.89 40.61 41.34 41.70 57.12 55.37 54.80 54.35 54.97 55.33 55.17 56.20 57.12 57.42 57.41 57.12 56.00 56.11 56.37 56.59 56.08 55.82 55.74 54.94 55.27 54.33 45.53 47.18
59.36 53.04 54.95 58.74 57.66 56.29 55.99 54.92 53.72 52.90 54.13 55.75 56.15 55.65 46.96 48.03 51.34 50.54 49.92 57.16 57.16 57.16 56.51 56.49 56.47 56.30 55.70 55.49 56.45 56.95 56.57 53.78 54.17 55.70 56.24 55.96 55.52 55.31 55.09 54.27 53.56 52.71 50.08
59.33 55.64 50.25 58.39 58.09 58.03 57.39 55.90 55.39 55.17 54.01 53.71 56.02 52.80 43.86 56.08 55.84 55.68 54.78 55.37 57.41 58.15 58.15 57.33 57.29 57.48 57.65 57.14 56.55 56.16 55.93 55.65 55.48 55.90 56.38 56.63 56.08 54.68 55.03 54.62 53.79 52.55 51.88
59.52 58.22 56.94 58.04 58.48 58.25 57.76 58.70 56.42 55.90 55.80 54.93 53.99 51.88 38.97 56.33 56.95 56.71 56.61 56.99 58.25 58.98 59.29 58.97 58.74 58.57 58.48 58.33 57.25 56.94 56.58 56.07 55.87 55.62 56.30 56.64 55.88 56.04 55.88 54.56 53.38 52.49 51.37
59.35 58.44 58.10 58.31 57.30 51.40 52.57 57.04 58.21 56.81 56.09 56.19 55.86 54.53 48.56 53.57 56.88 57.07 57.23 57.72 58.27 58.72 58.92 57.68 59.53 59.46 59.38 58.61 58.79 58.00 56.94 56.82 57.13 56.95 56.32 56.43 56.27 55.64 55.28 54.63 54.26 53.07 51.39
59.07 58.85 57.97 57.98 57.57 55.28 56.27 55.69 56.17 50.42 57.00 56.31 55.41 55.90 52.57 53.73 56.78 57.09 57.48 57.78 57.86 58.26 58.78 59.29 58.29 57.42 58.60 57.91 56.72 56.80 57.80 57.79 57.65 56.29 56.75 56.50 56.39 52.37 55.68 54.98 54.68 54.41 53.72
58.08 58.50 57.34 56.88 56.54 54.80 54.39 54.01 54.84 55.13 55.18 56.92 56.58 55.40 54.76 54.47 55.85 56.85 56.49 56.53 56.37 56.45 56.64 57.08 57.76 58.51 56.76 56.07 56.86 55.51 50.68 40.86 52.56 49.66 55.10 55.61 54.87 54.93 54.91 55.57 54.59 52.22 46.23
60.47 60.11 58.62 57.54 56.66 55.85 55.45 54.98 55.21 55.18 55.56 56.21 55.82 56.51 55.10 55.00 54.96 55.44 55.99 56.12 56.31 56.27 56.35 56.40 56.24 55.80 55.57 55.67 55.51 50.51 42.11 40.91 43.12 38.93 52.99 54.74 54.41 54.39 54.43 53.86 53.43 53.04 48.62

GFSGL_sfc_wetblb_045.txt.gz
Wetbulb
59.15 58.98 58.81 59.32 59.82 59.84 59.96 59.84 59.87 59.76 59.64 59.59 59.86 59.36 59.45 59.44 59.00 58.31 57.91 59.00 58.37 57.85 57.69 58.09 57.63 57.73 59.28 58.18 57.82 56.56 55.78 57.14 57.22 58.29 59.85 60.13 58.38 57.46 58.74 60.19 60.65 59.66 58.64
58.90 58.62 58.51 59.07 58.80 59.10 59.91 60.00 58.89 59.09 59.33 60.04 60.18 59.81 59.98 59.82 59.13 58.52 58.80 58.81 58.38 58.12 58.18 57.47 58.62 59.41 58.60 58.24 57.24 55.70 55.88 56.34 58.13 56.74 58.32 57.84 56.90 56.90 56.64 57.46 58.77 59.34 58.13
58.83 59.07 58.79 58.57 58.80 59.27 59.60 59.52 58.93 58.91 59.26 60.25 60.25 59.90 59.84 59.99 59.64 59.55 59.94 59.26 59.26 60.05 59.17 58.71 58.69 58.62 57.66 58.00 56.11 56.46 57.28 57.78 58.24 57.96 56.88 57.60 57.54 57.08 56.36 56.40 55.69 55.80 57.21
59.21 59.02 58.59 58.45 59.12 59.24 59.58 59.80 59.63 59.77 59.55 59.51 59.20 60.48 60.51 60.23 60.39 60.45 59.73 58.76 59.71 60.06 60.56 59.85 60.16 59.52 58.74 58.58 57.72 58.56 58.48 57.90 57.86 57.74 56.58 56.27 56.76 57.02 56.64 55.47 55.17 55.66 55.87
59.15 58.94 58.43 58.74 59.42 59.42 59.46 59.60 59.92 59.78 60.46 61.07 61.28 61.09 59.60 59.80 59.79 59.76 58.78 58.65 59.19 60.06 60.41 60.84 60.41 59.74 58.59 58.82 59.46 59.40 58.09 57.47 57.52 57.00 55.89 56.09 55.81 55.73 54.83 56.16 54.39 54.41 53.64
59.24 58.86 59.61 59.33 59.60 59.02 59.40 59.28 58.74 58.92 60.72 60.20 59.98 58.09 57.01 57.38 48.90 52.79 57.43 59.04 58.48 59.26 59.09 59.45 59.61 58.04 55.69 54.34 55.63 55.92 57.52 57.45 57.13 56.62 56.36 55.63 55.64 55.87 55.71 54.95 53.97 53.47 50.56
59.54 60.27 60.71 59.93 59.72 59.04 59.49 58.77 57.76 57.63 58.07 56.96 56.74 56.30 55.24 54.67 46.18 47.63 51.44 58.78 58.04 59.25 58.69 59.97 59.95 58.42 57.30 57.86 53.15 53.43 53.18 52.97 55.41 57.78 56.49 56.28 55.23 55.98 56.02 55.33 55.04 54.18 53.20
59.96 60.54 60.10 60.14 59.49 59.35 59.09 57.69 56.74 56.20 57.48 55.47 55.16 54.84 54.06 53.96 46.36 47.27 50.53 58.16 58.04 58.74 59.65 59.79 58.24 58.16 57.40 57.44 58.30 57.76 58.09 58.16 58.00 58.61 57.92 57.53 57.55 57.75 57.38 56.65 54.34 52.54 52.60
60.14 60.33 60.38 60.25 59.66 59.31 58.36 56.98 56.28 55.78 56.28 55.11 54.69 53.96 53.92 53.47 45.64 47.09 55.21 60.01 59.95 60.15 60.37 59.40 58.88 57.64 47.43 49.08 57.62 55.89 55.27 54.71 50.44 49.71 49.68 48.16 47.27 48.54 53.71 55.62 53.37 52.42 50.51
60.10 60.53 60.70 60.11 60.15 59.07 57.98 57.10 56.56 57.04 58.86 57.00 55.60 53.84 51.41 54.39 45.64 47.81 56.19 59.52 58.35 58.02 58.35 57.06 51.40 54.17 45.82 48.72 57.52 56.41 54.79 55.09 54.97 54.53 53.68 51.32 52.64 51.45 50.82 56.01 54.79 52.31 50.21
60.58 60.43 60.38 60.00 59.71 59.03 57.92 57.28 57.14 58.89 59.39 57.46 55.68 53.35 54.33 54.54 52.86 46.00 49.81 56.74 58.14 57.78 57.12 56.48 54.25 44.89 45.09 46.00 51.25 57.49 55.02 56.18 53.63 56.37 56.26 55.66 55.76 55.97 56.50 55.26 54.84 53.24 50.80
59.97 60.15 59.73 59.42 60.94 59.77 58.12 57.22 57.04 56.35 55.83 55.09 55.53 53.12 56.24 56.33 46.73 45.46 46.00 50.15 51.60 57.72 57.32 56.58 51.12 43.46 44.37 44.73 50.46 45.09 46.54 52.89 57.01 56.40 55.86 55.14 55.03 55.14 55.59 54.64 53.26 53.71 53.00
59.42 59.05 59.12 59.91 59.90 59.12 58.02 58.68 58.06 55.77 57.34 56.58 56.48 56.16 56.05 56.19 54.63 44.91 43.28 44.73 48.90 56.33 57.44 51.51 43.25 42.37 42.92 45.24 44.19 45.09 50.07 57.03 56.50 56.00 55.62 55.44 55.28 53.94 53.03 53.53 53.62 54.04 53.35
58.50 58.59 59.61 59.49 58.18 58.63 58.89 59.29 58.28 57.36 57.42 57.83 57.11 55.87 56.34 55.27 56.09 55.01 53.04 51.10 47.96 50.77 48.41 50.25 48.55 48.90 49.06 50.00 50.94 54.46 56.87 56.46 55.94 55.56 55.08 53.40 53.28 52.68 52.29 52.69 52.49 51.59 52.06
58.89 59.11 59.85 59.08 58.62 57.84 58.81 58.22 58.27 56.52 57.04 57.37 58.56 56.90 56.16 54.68 56.12 51.74 52.27 53.64 54.53 51.54 52.94 55.11 56.27 56.03 55.07 55.93 57.18 57.04 56.54 56.28 55.88 54.57 55.41 54.16 53.70 53.20 52.69 52.53 51.82 50.06 50.14
58.39 58.96 59.28 58.78 58.40 57.80 56.19 53.93 40.84 44.73 47.63 47.99 48.36 53.71 56.22 50.13 43.82 43.10 43.28 42.74 42.37 44.01 53.96 55.83 55.95 56.21 55.89 56.32 56.84 57.18 56.56 54.02 55.55 55.76 55.27 56.75 56.41 55.15 53.77 51.84 51.39 50.60 49.74
58.62 58.78 58.60 58.14 58.78 56.62 55.09 55.37 54.09 48.89 43.01 42.92 43.10 45.64 48.16 46.89 41.29 41.47 40.92 40.20 40.74 45.64 52.11 55.55 56.40 56.66 56.90 57.13 57.23 57.51 56.95 56.28 55.35 56.36 55.86 56.17 55.21 54.67 52.80 53.00 52.34 51.67 50.62
58.79 51.21 58.72 58.93 58.51 56.82 56.10 55.56 55.06 53.39 53.13 54.22 42.90 45.09 41.45 41.47 40.74 40.02 39.47 43.45 50.69 49.28 52.29 54.17 56.25 56.54 56.67 57.21 57.13 56.82 56.89 55.07 56.40 56.06 55.43 55.25 55.11 55.21 54.02 54.47 54.79 54.31 53.41
58.05 57.73 58.88 58.58 58.01 55.65 54.83 53.53 53.17 54.75 55.94 54.71 49.84 45.40 40.54 38.73 38.91 38.17 40.38 54.38 52.98 52.25 52.28 52.99 55.31 56.39 56.75 56.99 57.06 56.97 56.44 56.50 56.66 56.48 56.18 55.64 55.47 55.76 55.52 55.54 55.18 43.82 46.83
57.76 52.12 54.21 57.41 55.31 54.74 53.69 52.33 51.54 53.73 55.67 54.61 53.85 53.53 48.10 49.82 52.48 51.35 50.52 54.01 54.35 53.72 53.66 53.62 53.93 55.10 56.28 56.74 56.54 56.48 55.82 53.32 54.03 55.84 56.14 56.38 55.98 55.84 55.58 54.80 53.93 52.91 50.81
58.02 54.92 49.83 56.99 56.04 56.18 54.89 53.61 52.39 52.25 54.44 54.84 55.82 52.11 42.19 54.80 54.59 53.95 53.68 53.68 55.33 56.32 55.70 55.10 54.92 55.10 54.75 55.22 55.16 55.28 55.38 55.80 55.10 55.00 54.64 54.50 54.78 53.98 55.08 55.09 54.35 53.64 53.51
57.55 56.59 56.49 57.31 57.04 56.09 55.53 55.15 53.86 53.47 52.97 54.12 54.35 50.97 37.28 53.95 55.96 55.78 55.66 55.64 56.41 57.40 58.07 57.49 56.70 56.81 57.01 55.89 55.45 55.43 55.75 55.79 55.42 54.48 54.42 55.01 55.05 55.01 54.71 54.04 53.67 52.84 52.05
57.67 56.73 56.24 56.51 56.99 51.02 52.57 55.78 54.74 54.43 54.29 53.92 53.69 52.42 47.14 52.62 56.10 56.19 56.30 56.61 56.62 57.20 57.77 58.07 58.15 57.71 57.99 58.27 58.13 57.16 56.04 55.93 56.15 56.08 54.97 54.91 55.07 55.23 55.24 54.59 54.22 53.40 51.97
58.31 57.43 56.38 55.73 54.88 54.45 54.64 55.82 56.54 49.68 54.69 54.97 54.70 53.72 51.42 52.91 55.50 56.73 57.31 57.29 57.22 57.41 58.04 58.19 58.78 58.88 58.70 58.53 58.67 58.97 59.14 58.83 58.03 57.21 56.15 55.55 55.14 52.73 54.81 54.51 54.44 54.15 53.44
58.50 58.20 57.26 55.79 55.08 53.83 53.72 53.88 54.23 55.52 56.11 55.73 55.15 55.44 54.43 53.45 53.74 56.17 57.34 57.66 57.60 57.57 57.60 58.20 58.90 58.63 58.16 58.71 58.83 57.94 53.88 43.45 53.83 50.76 56.64 56.17 55.64 54.96 54.84 54.66 54.53 53.67 52.39
55.72 58.18 57.91 57.71 56.87 55.05 53.46 52.81 53.29 53.03 54.12 55.77 56.09 55.01 55.30 54.41 54.58 54.87 56.07 56.77 56.84 56.94 57.16 57.55 57.95 57.95 58.47 58.34 57.77 53.51 44.34 41.55 45.29 41.31 54.53 55.21 54.63 54.44 54.37 54.21 53.45 53.24 51.37

GFSGL_sfc_wetblb_051.txt.gz
Wetbulb
66.40 66.53 66.32 66.35 66.53 67.04 67.11 66.78 66.86 66.85 66.27 65.74 65.36 65.41 65.22 65.49 65.87 65.71 65.53 64.79 63.78 64.80 65.02 64.50 64.51 65.05 64.49 64.21 63.13 63.86 62.51 62.84 59.47 58.63 60.54 59.45 59.93 61.65 63.61 64.46 63.18 62.84 60.85
66.01 66.06 66.24 66.31 66.58 66.68 66.39 66.53 66.72 66.01 65.98 65.28 65.12 64.78 64.90 65.14 65.83 65.31 64.52 64.26 63.83 63.49 63.33 63.45 60.96 63.19 64.19 64.01 63.43 61.23 63.38 64.51 61.29 57.92 57.72 56.64 58.10 59.51 60.47 60.63 61.28 61.75 61.19
65.29 65.33 65.67 65.74 66.00 66.03 66.04 66.25 66.08 65.70 65.50 65.60 65.14 64.75 64.85 65.11 65.31 65.31 64.71 64.24 63.37 61.54 61.23 58.83 60.29 61.68 61.81 63.37 61.92 62.77 63.93 62.98 62.80 60.35 56.86 57.28 56.52 57.30 57.08 58.69 58.51 58.51 58.42
65.00 64.97 65.02 65.16 65.58 66.22 66.24 65.83 65.79 65.86 65.26 65.53 65.41 65.10 65.04 65.20 65.12 64.99 64.98 64.33 63.15 62.14 61.18 61.84 61.02 60.74 61.54 61.89 62.86 63.83 62.26 60.74 61.55 57.61 56.34 55.64 55.64 56.64 56.70 55.78 55.13 56.68 56.70
63.50 64.05 64.76 65.24 65.72 65.94 65.69 64.98 65.46 65.50 65.66 65.52 65.35 65.34 65.51 65.35 64.37 64.91 64.38 64.14 64.18 61.72 61.37 61.28 61.25 60.54 59.33 59.98 62.90 62.58 61.55 60.35 58.51 56.46 55.22 54.72 53.99 54.41 54.08 55.06 54.81 54.83 55.01
63.66 63.87 64.46 64.78 65.07 65.55 65.70 65.01 65.18 65.22 65.69 65.32 64.92 65.11 64.94 63.35 47.58 51.22 59.96 64.15 63.94 62.36 60.71 61.01 60.45 58.41 57.38 54.54 55.92 56.73 60.18 60.23 57.80 56.24 55.72 54.29 54.06 54.38 55.07 53.95 53.07 51.85 49.93
63.89 64.19 64.17 64.59 64.35 64.76 64.98 64.90 64.74 65.26 65.99 64.59 63.51 64.60 64.59 63.38 46.47 47.59 51.76 64.33 63.66 63.47 61.07 60.38 59.71 60.42 60.68 59.72 53.32 52.99 53.29 53.06 56.80 59.75 56.56 56.36 54.98 55.30 56.16 54.16 53.92 54.13 53.73
63.63 63.63 64.03 64.21 64.06 64.43 64.61 64.55 64.47 65.14 64.99 65.10 64.43 64.45 64.15 59.90 46.14 46.87 50.31 64.87 62.97 62.73 61.79 60.70 59.07 58.59 61.71 60.47 61.15 60.97 61.10 61.60 61.45 62.29 61.27 59.61 59.92 60.37 58.10 57.02 55.60 54.52 53.92
63.18 63.69 63.97 64.20 63.77 64.19 64.11 64.23 63.96 64.17 63.82 63.35 63.74 63.26 63.45 61.93 45.96 45.96 56.10 62.82 61.76 61.64 61.33 60.34 59.61 58.27 48.86 49.23 60.57 60.16 59.33 57.98 51.04 50.18 51.07 48.83 47.54 48.66 55.11 56.04 54.08 53.44 51.89
63.83 64.20 64.71 64.61 64.20 64.09 64.49 63.95 64.01 64.42 63.41 62.09 62.43 62.84 54.15 62.89 45.96 45.78 56.20 61.44 60.20 59.06 58.56 58.13 49.41 55.16 44.69 47.96 59.52 59.64 56.80 56.78 57.19 57.68 56.16 51.78 55.52 52.95 51.49 57.96 57.25 54.38 53.81
64.97 64.84 64.90 65.10 64.80 65.24 64.75 64.50 64.14 63.32 61.67 61.66 61.90 62.37 61.51 60.41 54.74 46.87 50.68 61.63 60.13 59.18 58.03 57.43 56.00 44.33 44.15 46.87 52.31 60.16 56.84 58.91 54.28 57.88 57.03 57.36 57.59 57.08 57.39 57.99 58.62 60.21 58.36
64.94 64.65 64.73 65.27 64.75 64.47 64.51 64.01 63.87 63.00 60.73 58.25 61.17 60.71 59.65 58.88 48.83 46.04 47.23 51.73 54.27 59.60 58.07 57.36 52.12 42.70 43.61 44.69 52.14 44.88 46.51 52.56 58.06 56.52 55.52 55.62 55.76 55.82 56.52 56.97 58.73 60.14 61.62
64.61 64.56 64.82 64.94 64.84 64.79 64.02 62.32 60.68 61.31 59.46 58.10 60.09 60.40 59.60 58.97 56.31 43.34 43.61 45.96 49.75 58.85 58.68 50.36 41.96 41.79 42.52 44.79 44.13 45.42 49.37 57.77 57.11 55.74 55.66 56.54 57.00 58.15 57.96 58.88 60.61 61.15 60.87
64.47 64.63 64.84 64.52 64.07 64.54 63.72 62.31 61.52 59.28 59.11 59.34 59.08 59.23 60.06 59.14 57.80 58.25 58.78 56.15 47.61 50.61 47.65 50.84 48.74 48.43 48.61 49.72 51.68 54.50 57.78 57.66 57.40 57.24 57.75 57.84 59.32 59.16 58.52 58.94 58.40 58.05 57.40
64.29 64.41 64.48 64.24 64.31 61.97 61.65 60.63 61.37 61.35 59.64 59.97 59.25 59.08 59.64 57.49 58.04 53.34 55.25 57.53 56.06 51.82 53.07 56.34 56.16 55.60 55.24 56.60 57.11 58.09 58.79 59.10 58.50 59.32 58.17 58.99 59.26 59.71 59.86 60.56 60.23 59.40 58.67
63.77 64.02 64.08 64.01 63.52 61.21 58.50 57.38 42.83 46.71 47.59 47.96 49.66 56.09 60.87 49.19 43.79 44.51 43.79 43.06 43.61 45.06 56.08 55.88 55.78 56.02 56.04 56.70 56.79 57.23 58.51 56.95 59.37 60.38 60.93 60.86 60.07 59.49 59.94 60.42 60.54 59.24 58.43
63.77 64.24 63.98 62.36 63.52 60.03 58.87 59.67 58.59 51.06 41.40 41.43 43.61 45.96 47.59 47.43 41.60 40.71 41.25 41.07 42.34 49.83 57.27 56.60 57.62 57.55 57.59 57.83 58.11 58.36 58.76 60.81 61.73 61.73 61.63 61.30 61.19 60.78 58.77 59.55 59.32 59.35 59.28
64.69 52.68 64.23 64.61 64.30 62.64 61.69 62.25 62.68 61.39 59.13 58.69 44.62 48.13 40.36 40.16 39.98 39.42 40.71 46.11 55.60 55.09 58.55 57.98 57.64 59.55 59.12 58.81 59.04 59.64 60.16 60.22 61.47 61.62 61.78 61.81 61.61 60.90 59.51 59.63 59.74 59.66 59.97
64.04 63.63 64.62 64.95 64.81 62.34 63.82 63.20 63.19 63.09 62.86 61.03 55.10 47.09 40.47 37.76 37.97 38.71 41.61 60.45 58.12 58.46 59.66 59.04 59.08 59.20 59.15 59.10 59.23 60.95 61.75 61.11 61.45 61.80 61.85 62.02 61.66 61.30 60.44 60.34 60.04 47.47 51.41
63.69 54.34 58.53 64.68 64.15 63.85 63.57 62.58 62.61 62.74 62.56 62.13 60.92 58.82 50.42 49.81 54.36 52.85 53.56 59.66 60.26 60.29 61.16 61.46 61.28 60.25 59.57 60.00 60.62 60.41 60.15 59.93 59.47 60.54 61.79 62.06 62.16 62.22 61.54 61.55 61.30 60.45 60.20
63.32 62.68 52.36 64.08 63.96 64.15 63.77 62.73 62.57 62.69 62.74 61.98 62.98 58.69 44.68 60.53 60.03 58.53 57.50 59.19 60.55 62.17 61.75 61.66 62.24 62.66 62.22 61.78 61.46 60.67 59.71 59.13 58.87 60.75 62.25 62.57 62.59 61.69 62.34 62.32 62.22 62.22 62.11
63.18 62.88 62.85 63.42 63.95 63.82 63.92 63.62 62.83 62.48 63.02 62.54 63.31 56.48 38.89 60.79 61.91 61.03 60.39 59.95 61.48 63.49 63.74 62.81 62.23 62.44 62.79 62.50 62.24 61.03 60.31 59.79 61.01 62.53 62.76 62.76 62.76 62.59 62.47 62.21 62.22 62.21 62.05
62.80 62.37 62.75 63.17 63.44 55.39 61.83 63.51 63.02 62.60 62.15 62.79 63.28 59.51 54.50 60.34 62.82 62.74 62.27 62.70 63.05 63.66 64.28 64.02 63.50 62.96 63.18 63.20 63.92 63.60 62.61 62.67 63.55 63.92 63.21 63.03 62.79 62.71 62.69 62.22 62.11 61.79 61.32
62.69 62.51 62.41 62.44 62.59 62.30 62.66 63.04 62.91 54.14 61.70 61.99 62.26 62.16 61.05 61.94 63.14 63.74 63.92 64.07 63.92 63.98 64.34 64.45 64.32 64.34 64.17 63.97 63.82 63.79 63.82 64.03 64.26 64.17 64.21 63.41 62.99 60.60 62.43 62.37 62.01 61.56 61.33
61.61 61.34 61.42 61.32 61.10 61.48 61.31 62.17 62.35 62.56 61.95 62.49 62.59 62.56 62.82 62.46 62.33 62.94 63.94 64.42 64.45 64.03 63.95 64.26 64.44 64.53 64.66 64.79 64.68 64.69 57.91 41.16 58.12 53.75 63.96 63.60 63.00 62.69 62.39 62.39 62.40 62.61 63.11
57.88 57.50 57.28 57.43 58.23 58.78 58.97 59.29 59.77 60.29 60.39 60.44 60.72 60.77 61.00 61.64 61.92 61.67 61.90 61.98 62.50 62.96 63.19 63.68 63.89 63.91 63.88 64.24 64.05 54.49 42.78 39.60 49.88 40.52 60.34 63.31 62.97 62.82 62.91 62.77 62.55 62.35 62.24

GFSGL_sfc_wetblb_054.txt.gz
Wetbulb
71.08 70.94 70.48 69.97 70.25 70.37 70.05 70.16 70.10 70.12 69.32 68.56 68.18 67.73 66.98 66.63 67.00 67.04 67.04 66.56 65.93 65.91 66.27 65.71 65.04 66.04 66.31 65.93 68.61 65.67 65.51 67.14 63.40 61.92 62.02 62.31 63.12 65.64 67.64 66.41 67.02 65.34 61.85
69.69 69.46 69.45 69.56 69.65 69.59 69.29 69.48 69.59 68.67 68.51 67.49 66.97 66.42 65.99 66.44 67.27 67.10 66.28 65.98 65.70 64.97 64.90 65.06 64.72 65.64 65.86 66.64 65.40 64.30 65.97 67.31 64.69 59.78 59.09 58.66 59.71 61.83 64.42 64.51 63.13 63.25 61.97
68.89 68.94 68.87 68.94 68.75 68.58 68.53 68.75 68.48 68.02 67.27 66.98 66.61 65.88 65.91 66.46 66.75 66.87 66.18 65.75 65.11 64.37 62.18 61.96 63.33 63.38 64.88 66.23 65.52 64.32 66.75 66.96 64.66 61.51 57.08 57.68 58.93 59.48 59.96 61.00 60.92 59.87 59.83
68.10 68.00 67.69 67.67 67.34 67.70 68.45 68.26 67.62 67.37 66.94 66.63 66.58 65.84 66.21 66.74 66.58 66.49 66.00 65.90 65.10 63.02 61.74 62.36 61.73 61.14 61.86 64.61 64.88 64.99 65.88 65.45 63.38 60.14 57.04 56.58 57.60 58.29 58.27 56.36 55.62 57.57 57.06
67.26 66.51 65.85 66.95 68.05 68.26 67.92 67.62 67.67 66.96 66.54 66.30 66.17 66.42 66.55 66.68 66.13 66.31 66.14 65.60 65.67 62.61 62.02 61.66 62.02 61.14 59.30 60.70 66.18 65.27 64.47 63.50 61.38 57.55 56.74 56.06 54.95 55.50 55.24 56.38 55.14 55.38 56.22
65.38 64.78 66.14 66.98 67.30 67.62 67.35 67.14 66.79 66.59 66.93 66.68 66.17 66.11 66.20 65.50 49.13 53.32 61.33 66.29 65.35 63.75 61.21 61.41 61.81 58.75 58.27 55.28 56.56 57.72 62.81 63.67 59.30 58.04 56.64 56.02 55.61 55.34 56.26 54.78 54.32 53.36 51.12
64.53 65.14 65.99 66.72 66.59 66.86 67.09 66.63 66.15 66.67 67.07 66.34 66.36 66.04 66.10 65.56 48.35 48.44 52.61 66.21 64.80 64.23 61.94 61.18 60.00 61.69 60.56 62.85 53.34 53.65 54.71 53.49 57.66 59.38 58.48 56.57 55.84 56.11 56.21 55.14 55.39 55.53 54.61
64.37 65.27 66.13 66.26 66.00 66.32 66.38 65.91 66.82 67.11 66.84 66.75 66.15 66.11 66.28 62.02 47.36 47.36 50.26 65.03 65.42 64.25 62.03 61.32 59.98 63.49 62.79 60.39 61.85 61.76 62.05 63.05 61.78 63.14 61.36 60.04 59.06 58.96 57.57 56.50 55.55 54.80 55.48
64.51 65.30 65.85 66.12 65.88 65.91 65.94 66.13 66.87 66.47 66.93 66.39 66.21 65.52 65.95 64.31 46.98 46.99 53.31 64.90 64.42 63.34 61.31 60.57 60.74 60.84 50.88 50.51 61.94 61.50 61.79 62.41 51.92 50.77 51.26 49.37 48.30 48.69 54.99 57.27 53.87 53.98 53.19
64.88 65.25 66.27 66.44 66.19 65.62 66.28 66.62 66.77 67.11 66.34 65.90 65.70 65.97 57.31 64.40 46.81 45.91 55.17 63.83 61.81 60.89 59.74 57.82 49.53 56.72 45.54 47.72 62.03 61.44 60.91 60.57 61.06 60.19 57.07 52.42 54.05 52.68 50.63 57.48 57.91 54.52 53.76
66.01 66.06 66.52 66.60 66.74 66.98 66.81 67.06 66.76 65.83 65.61 65.02 64.11 64.32 65.06 63.12 59.54 46.27 49.17 63.23 61.68 60.79 60.14 59.46 58.04 44.64 44.09 46.45 53.07 63.58 60.79 61.30 57.50 61.20 59.81 59.17 58.14 58.58 58.52 59.18 62.15 57.94 55.89
65.86 65.63 66.15 66.93 66.75 66.63 66.92 66.63 65.76 64.66 64.26 63.85 62.90 62.90 63.68 62.55 49.33 47.75 47.17 51.18 54.75 61.55 59.99 60.88 56.54 42.28 43.19 45.72 52.63 45.14 46.99 54.03 60.48 59.23 57.86 57.07 57.80 57.31 57.90 58.77 60.22 59.71 63.83
65.69 65.39 66.21 66.84 66.70 66.84 65.99 64.77 63.39 63.85 62.67 62.15 62.00 60.72 61.24 61.56 60.29 45.09 45.18 46.63 49.49 60.66 61.14 49.94 41.83 41.37 42.28 45.00 44.09 45.54 49.55 59.43 59.11 57.65 56.74 56.77 57.42 57.81 58.16 58.71 62.75 63.40 63.23
65.06 65.24 65.96 66.10 65.83 66.54 65.91 65.76 63.90 63.21 62.05 61.56 61.46 60.47 60.57 61.17 60.51 60.36 59.13 56.76 48.94 54.96 49.69 52.95 49.29 48.73 48.28 48.50 50.23 54.72 59.80 60.33 59.76 57.38 56.35 57.00 57.85 57.55 58.02 59.16 59.92 61.49 61.06
65.09 65.48 65.76 65.90 65.90 65.67 65.73 63.53 63.82 63.19 61.33 62.48 62.50 63.08 61.63 60.96 60.63 54.66 56.77 59.54 59.05 54.58 56.02 57.62 56.79 55.13 54.12 55.64 57.34 57.85 58.15 59.56 58.56 58.61 58.03 58.19 58.46 59.28 59.42 61.58 61.41 61.49 60.06
64.71 65.10 65.12 65.56 65.92 65.05 64.39 62.76 43.18 45.80 45.18 48.62 51.71 56.28 60.99 49.37 44.46 45.91 43.73 43.55 43.37 45.00 57.35 56.76 56.18 56.00 56.06 56.46 56.86 57.08 57.70 57.08 59.40 58.62 59.21 60.74 60.43 60.16 60.73 60.55 61.42 61.51 60.89
64.93 64.89 65.30 63.82 65.62 64.32 64.16 63.39 60.64 51.21 41.49 41.50 44.64 45.36 46.89 47.54 42.10 41.55 41.01 41.92 41.92 48.51 56.98 56.97 56.73 56.75 56.72 57.32 57.60 58.30 58.40 59.74 61.68 61.28 61.22 61.59 61.21 60.43 59.14 61.00 61.93 61.99 61.70
65.71 53.46 65.29 65.31 65.76 64.96 64.18 64.23 63.45 61.72 60.34 60.13 45.20 48.02 42.22 41.55 40.65 40.47 41.92 47.27 56.24 55.22 58.06 59.52 58.79 58.40 57.91 58.67 58.73 59.72 61.00 62.28 62.34 61.72 62.07 61.42 61.30 61.22 61.01 61.62 61.90 61.20 60.23
65.19 65.22 65.33 65.35 65.80 63.69 64.27 64.26 63.63 63.76 62.82 62.36 58.19 49.59 42.45 38.23 38.46 39.56 41.92 61.95 60.22 58.91 59.91 59.58 62.05 61.37 60.03 59.92 60.57 61.43 61.68 62.38 61.67 61.91 61.92 61.89 61.69 63.01 62.49 61.86 61.25 48.70 52.60
65.05 55.45 58.71 65.28 65.52 65.36 63.99 64.22 64.64 65.11 64.36 62.90 61.98 61.11 54.80 52.11 55.01 53.46 58.27 60.61 61.89 60.60 60.31 61.00 61.53 62.96 62.62 61.91 62.72 61.96 62.27 61.63 62.26 61.89 62.26 62.38 62.30 63.34 61.92 61.51 61.15 60.80 60.82
64.43 65.10 54.53 65.14 65.27 65.02 63.88 63.54 64.37 64.64 64.31 64.39 64.06 60.74 47.65 62.11 62.09 61.28 59.90 60.23 62.96 63.62 63.86 62.41 61.81 62.93 63.52 63.99 63.19 61.91 62.11 63.01 63.29 63.79 63.95 64.19 64.38 63.41 63.52 63.22 62.97 62.85 62.37
64.00 64.30 64.72 64.45 64.72 64.87 64.57 63.76 63.25 63.96 64.21 64.18 64.49 57.68 40.10 60.89 64.01 63.54 63.31 63.68 64.65 65.45 65.25 64.82 65.07 65.02 64.87 64.33 64.13 63.86 63.50 63.34 63.84 63.99 63.78 64.58 64.63 64.27 64.09 63.69 63.28 62.77 62.85
63.58 63.99 63.90 64.08 64.39 56.66 64.11 64.48 63.66 62.95 63.56 63.86 64.47 61.43 59.64 63.61 64.58 64.52 64.36 64.79 65.19 65.99 66.43 65.91 65.20 64.66 65.54 65.79 66.03 65.72 64.84 64.57 64.73 65.08 64.61 64.81 64.57 64.41 64.36 63.73 63.45 63.04 63.10
65.01 63.48 63.31 63.64 63.97 64.25 64.39 64.49 64.46 56.05 62.16 63.26 64.17 63.67 63.65 64.15 64.72 64.54 64.94 65.33 65.66 65.92 66.20 66.34 66.28 65.82 66.01 65.79 65.98 66.32 66.14 66.03 66.33 66.10 66.11 65.38 64.86 62.37 64.33 64.22 63.98 63.71 63.27
65.17 64.78 64.49 64.49 63.89 64.08 64.35 65.08 65.11 64.67 64.10 63.73 63.85 64.03 64.24 64.84 65.21 66.13 66.72 67.12 66.97 66.73 66.55 66.97 66.94 66.50 66.23 66.17 66.06 65.87 56.47 41.76 59.83 47.55 65.51 65.48 64.81 64.49 63.81 63.39 63.04 62.55 62.50
62.35 63.29 63.37 64.07 63.99 63.63 63.62 63.91 64.12 64.27 63.93 63.88 63.76 63.66 63.67 63.76 63.88 64.45 64.88 65.09 66.77 67.06 66.96 67.71 66.41 63.19 61.02 52.87 49.14 37.73 34.50 35.15 50.40 37.45 60.61 64.60 63.97 63.82 63.82 63.36 63.37 62.95 63.05

GFSGL_sfc_wetblb_057.txt.gz
Wetbulb
72.49 72.71 72.75 72.31 72.37 71.87 71.35 70.80 70.90 71.00 70.15 69.17 69.07 68.66 68.23 67.68 67.73 67.71 67.52 67.05 65.47 66.50 66.54 65.71 65.58 66.67 67.24 68.02 67.01 65.78 67.73 66.85 64.13 62.86 63.36 64.24 65.18 66.48 66.99 69.03 67.42 67.27 63.34
72.27 72.14 71.47 71.19 70.79 70.60 70.17 70.29 70.38 69.60 69.32 68.72 68.59 67.76 66.97 66.54 67.09 67.05 66.10 66.14 65.46 65.21 65.46 65.15 64.89 65.92 65.87 67.11 68.24 67.08 67.15 66.43 64.44 60.95 61.05 61.05 62.45 65.37 67.36 65.57 64.14 65.08 63.76
71.01 70.41 70.08 69.95 69.83 69.85 69.49 69.80 69.31 68.58 68.37 68.10 67.37 66.39 65.87 66.27 66.45 66.90 66.55 65.90 66.03 65.80 65.53 63.64 63.43 64.55 63.76 66.78 66.27 66.06 68.26 67.24 66.48 61.55 58.74 59.76 59.35 62.19 62.00 61.44 61.37 60.83 60.28
69.71 69.33 69.25 69.30 69.32 68.85 68.80 68.44 68.20 68.10 67.54 66.97 66.73 66.28 65.91 66.29 66.31 66.06 66.40 66.31 65.79 64.59 63.85 62.96 61.98 61.22 63.02 64.07 63.38 66.27 67.03 65.81 65.42 61.16 58.44 58.06 58.04 59.15 59.21 56.98 55.92 57.82 57.74
68.68 68.49 68.24 68.54 67.98 67.75 67.88 68.24 68.06 67.90 67.28 66.88 66.33 65.92 66.23 66.02 64.69 66.83 66.53 66.10 65.76 64.17 63.09 62.37 62.79 61.65 59.24 59.74 64.68 66.16 66.16 65.91 61.93 58.84 58.48 57.56 56.24 56.34 56.06 57.08 55.54 55.84 56.36
67.90 66.93 66.59 66.78 67.34 67.51 67.89 68.02 67.58 66.89 66.91 66.24 65.98 66.39 66.98 62.76 49.99 54.48 61.01 66.54 65.85 63.88 62.03 61.36 62.00 59.08 58.48 55.21 56.26 55.48 63.03 64.93 62.59 60.23 58.69 56.34 56.74 56.36 56.48 55.88 55.18 53.80 51.45
66.17 65.67 66.20 66.75 66.63 66.34 66.61 66.55 66.54 67.46 68.18 66.55 66.67 66.22 66.14 65.57 49.81 50.90 52.55 66.55 65.73 64.89 62.14 61.30 60.58 61.47 60.05 63.36 56.12 54.71 54.86 54.89 58.35 63.21 60.03 57.84 56.00 56.48 56.50 55.72 55.84 55.76 53.79
65.36 65.33 66.04 66.39 66.51 66.57 65.92 65.94 67.16 67.77 67.35 67.32 66.63 66.64 66.91 62.62 48.56 47.65 50.56 66.59 66.14 65.31 62.27 61.40 60.74 62.97 63.22 62.70 63.60 63.02 63.58 63.01 62.23 62.79 61.66 60.01 59.64 58.92 57.31 57.47 57.54 56.20 55.70
64.49 65.36 65.99 66.71 66.15 66.24 65.66 66.57 68.28 67.19 67.40 66.83 66.40 66.28 66.01 64.04 48.36 48.56 56.15 65.43 64.60 62.92 62.22 61.55 61.43 62.64 50.60 51.37 62.97 62.18 62.05 62.24 51.18 50.84 51.58 48.64 47.20 48.46 54.47 56.72 54.80 54.40 52.91
64.91 65.44 66.54 66.68 66.57 65.86 66.14 66.69 67.54 67.31 66.95 66.45 65.47 66.45 59.29 64.64 47.82 46.93 55.66 65.13 62.62 60.75 60.47 58.12 50.74 58.86 46.57 48.20 63.32 63.42 61.07 60.58 60.29 58.40 56.47 52.00 54.12 52.68 51.08 57.13 56.06 54.03 53.46
65.71 66.09 66.50 66.53 66.49 67.08 67.75 67.82 67.17 66.23 66.04 66.48 65.49 65.53 65.37 63.41 60.68 46.75 49.65 64.67 62.54 60.67 60.10 60.36 58.41 46.57 44.94 46.57 50.06 65.05 61.05 61.52 56.26 58.97 58.24 57.33 56.44 56.89 57.63 58.10 58.84 56.67 55.45
65.76 65.72 66.34 65.92 65.54 66.62 67.07 67.22 66.37 65.91 64.71 64.81 63.99 64.03 64.22 64.43 52.67 48.70 48.92 50.97 54.63 60.98 61.44 61.35 57.23 43.27 44.03 46.02 52.20 45.97 47.53 55.07 61.22 58.61 56.93 56.45 56.08 56.27 57.17 59.78 59.13 58.25 59.95
65.59 65.60 66.27 65.93 65.67 66.33 66.00 65.44 64.15 65.20 64.21 63.84 63.49 61.46 61.90 63.97 62.92 46.61 46.57 48.56 48.11 61.79 60.93 47.02 42.06 41.67 42.40 46.69 44.56 46.39 49.69 61.53 59.94 57.79 56.87 56.88 57.69 58.29 58.43 59.26 59.12 59.21 63.03
65.28 65.45 66.39 65.07 64.34 66.04 65.53 66.80 65.48 64.98 63.34 62.28 62.32 61.74 61.45 62.72 63.17 62.97 60.21 57.99 50.32 55.38 51.21 54.99 48.38 47.78 47.65 50.62 53.27 54.54 60.96 60.87 58.77 57.33 57.11 58.31 59.09 59.05 57.79 60.42 59.28 59.91 61.92
65.31 64.95 65.21 64.03 66.20 66.01 65.52 64.50 65.74 65.56 61.83 64.96 63.75 62.06 61.85 61.06 60.17 56.80 58.89 60.53 61.83 55.89 56.61 57.87 56.22 54.77 53.84 55.15 57.92 59.63 60.10 59.74 59.88 59.10 58.73 57.77 57.85 58.37 58.52 60.75 61.32 61.45 60.15
64.55 64.26 64.37 64.29 64.82 65.22 64.32 63.12 42.85 44.53 43.27 44.56 46.57 55.82 59.75 49.23 43.67 45.30 45.66 43.49 44.94 45.66 58.26 56.87 55.68 55.38 55.36 56.40 56.74 57.88 58.75 57.32 59.61 59.01 58.50 57.09 56.94 58.14 58.10 59.51 61.74 61.30 60.31
65.36 65.62 64.65 63.22 63.95 63.87 63.51 63.40 61.66 54.96 43.29 42.22 42.40 44.11 48.77 45.66 42.56 42.04 41.67 42.04 42.40 49.46 58.12 56.91 56.15 56.24 56.68 57.05 56.89 57.21 57.47 59.70 59.57 59.65 59.12 59.30 59.77 60.19 58.84 60.47 61.01 60.98 60.32
65.50 53.38 64.50 65.03 64.39 63.67 64.58 63.71 62.42 61.55 60.52 61.04 46.15 48.54 42.03 41.67 40.39 40.22 41.67 47.26 56.08 54.41 59.16 58.08 56.91 57.02 57.18 57.45 57.96 58.17 59.03 59.37 60.32 61.32 61.57 61.84 62.21 61.54 60.03 60.34 60.49 60.89 61.44
64.96 64.57 64.65 65.15 64.65 62.21 64.40 64.76 63.28 62.58 61.20 60.17 59.26 50.81 43.39 38.90 39.66 40.77 42.40 59.24 58.46 57.72 58.47 60.32 59.40 58.27 58.81 59.01 59.16 59.89 61.57 61.99 61.94 62.51 62.56 62.44 62.35 61.00 60.96 61.50 61.83 50.02 53.64
65.30 55.54 57.84 64.72 64.33 64.26 64.34 62.91 63.26 62.73 61.67 62.21 61.01 60.84 55.60 53.15 56.50 57.25 58.64 59.05 61.24 60.18 61.54 62.24 61.45 60.24 59.39 60.40 61.42 61.42 62.47 61.67 62.60 62.45 62.66 63.08 62.25 62.44 62.34 62.23 62.49 61.82 60.89
64.84 64.26 52.59 64.79 64.23 64.56 64.20 62.34 63.24 63.29 63.00 62.97 62.72 60.46 48.14 61.71 61.00 61.05 61.62 61.64 61.89 62.04 61.96 63.12 63.28 62.96 62.19 62.11 61.93 62.20 62.09 62.33 62.61 63.50 63.05 62.62 63.40 62.56 63.52 63.45 62.33 61.40 60.93
64.51 63.70 64.61 64.60 64.05 64.13 63.71 65.09 65.04 64.92 64.80 64.12 64.11 57.79 42.68 60.47 63.53 62.78 62.80 63.22 63.73 62.65 63.30 64.38 64.22 63.53 64.17 63.37 62.95 63.62 63.21 63.39 63.61 63.99 63.70 63.52 63.42 63.85 63.53 62.59 62.30 62.00 62.04
64.12 63.35 63.76 64.51 64.13 56.36 62.75 63.22 63.93 64.53 64.17 65.15 63.63 61.30 60.51 62.66 64.35 64.56 64.34 65.00 65.47 65.52 65.78 65.55 64.20 63.91 64.44 64.77 65.31 64.87 64.15 64.11 64.77 65.20 64.48 64.19 64.37 64.19 63.84 63.14 62.69 62.47 62.42
63.98 63.70 63.08 63.63 63.84 64.39 63.77 63.55 62.96 55.96 62.95 64.48 63.38 62.88 63.44 64.87 64.86 65.03 65.33 65.69 65.72 66.06 66.08 66.22 65.74 65.26 65.57 65.83 66.22 66.40 66.33 66.33 66.58 66.02 65.89 64.94 64.46 61.95 64.34 64.01 63.72 63.56 64.06
63.30 63.74 63.17 63.31 63.37 63.48 63.63 63.99 63.69 63.13 62.78 63.85 63.66 63.31 63.54 63.94 64.40 64.34 65.28 65.26 65.43 65.51 65.68 64.75 64.34 63.34 54.41 52.71 50.00 47.29 37.98 34.76 50.81 42.12 65.52 65.98 65.14 65.20 64.05 63.80 63.92 63.60 63.61
64.04 64.29 63.85 64.47 64.16 63.96 61.79 59.40 59.91 62.32 62.00 60.93 59.52 59.84 59.85 58.63 59.11 60.26 59.68 58.09 58.94 55.72 56.32 54.42 52.14 53.39 50.69 47.12 43.24 34.93 33.59 33.95 40.00 34.48 53.08 64.26 64.27 64.04 64.07 63.61 63.37 63.21 63.03

GFSGL_sfc_wetblb_060.txt.gz
Wetbulb
72.67 73.24 73.23 73.62 72.86 72.52 72.51 71.82 71.70 71.78 70.37 69.96 69.78 68.72 67.18 66.81 67.70 67.64 67.10 66.13 65.91 65.27 65.18 64.73 64.71 65.46 65.15 64.53 64.55 63.33 62.52 62.18 59.65 61.02 62.59 63.68 63.75 63.79 65.26 63.79 64.70 63.35 60.61
72.59 72.61 72.47 72.17 71.63 71.37 70.89 71.25 71.07 70.56 69.70 69.03 68.86 67.15 66.65 67.18 67.67 66.65 66.15 65.98 64.56 64.31 64.64 64.45 63.41 65.56 64.18 64.93 63.66 62.30 62.39 62.38 61.60 58.40 60.38 60.66 62.02 63.74 64.86 64.18 64.10 64.19 62.11
71.90 71.17 71.05 70.34 70.16 70.59 70.15 70.13 69.76 69.82 69.12 68.05 68.18 66.07 66.39 66.33 65.64 66.61 66.15 64.85 65.46 64.34 64.77 63.73 63.56 64.03 62.23 63.24 63.71 62.45 63.23 63.17 62.70 58.78 57.57 59.62 59.77 62.26 60.98 61.25 60.53 60.17 60.09
70.53 69.56 69.14 69.39 69.58 69.65 69.50 69.41 69.19 68.42 68.26 68.03 67.80 66.50 66.01 66.25 65.76 66.01 65.21 65.23 65.03 63.61 63.28 62.38 61.38 60.71 61.10 61.76 62.78 62.54 63.03 61.83 61.47 57.90 57.78 57.52 58.12 59.43 58.92 57.22 56.11 58.04 57.90
69.00 68.56 68.61 69.37 69.29 69.04 68.21 68.23 68.09 68.61 67.74 66.81 66.66 65.73 66.57 64.89 64.73 65.43 64.84 64.97 64.46 63.08 62.94 62.48 61.57 61.08 59.20 58.08 61.28 61.49 62.30 61.41 59.25 57.60 56.99 56.43 56.33 56.67 56.19 56.69 55.59 56.03 56.86
67.57 67.49 68.62 68.16 67.46 67.31 67.72 67.98 68.44 67.77 67.60 65.82 65.71 64.71 63.28 61.82 50.03 53.64 63.23 65.51 65.01 62.78 61.46 61.34 60.76 58.76 58.06 55.14 56.41 56.49 59.27 61.33 58.09 58.19 56.37 55.71 55.73 56.07 56.55 55.55 55.25 54.59 52.21
67.45 67.34 66.66 66.58 66.68 66.94 67.46 67.09 66.83 67.84 66.82 66.29 66.92 66.33 64.72 60.72 48.08 50.63 53.53 65.79 64.20 64.09 62.38 60.12 60.13 61.45 59.44 61.66 54.79 55.29 55.35 55.76 58.41 59.95 56.71 56.46 55.67 56.55 56.64 55.61 55.68 54.92 53.55
65.96 65.41 65.89 66.50 66.23 66.59 66.26 66.35 66.93 67.11 66.84 67.21 66.55 66.28 65.54 57.56 48.29 49.02 51.38 66.14 65.11 64.06 61.34 60.86 60.30 61.82 61.52 61.95 61.99 61.62 61.30 61.30 61.32 61.78 59.43 58.02 57.45 57.70 57.93 57.45 56.33 55.16 55.51
64.62 65.00 65.50 66.59 65.85 65.87 65.05 66.11 67.28 66.59 66.52 66.15 66.00 65.30 64.31 59.94 48.84 47.93 54.34 64.98 63.54 61.77 61.60 60.85 60.85 61.87 51.24 51.08 62.23 61.02 60.08 57.11 50.44 49.12 49.30 49.12 47.91 49.20 55.01 56.95 54.70 53.68 52.52
64.55 65.05 65.80 66.62 65.76 64.31 65.47 67.18 67.05 66.82 66.38 67.05 65.50 65.42 59.36 60.48 48.29 48.11 55.16 64.11 61.55 60.06 60.00 57.82 50.29 58.09 46.12 48.11 62.42 61.35 57.66 56.87 56.10 55.50 54.09 51.57 52.62 50.99 52.26 58.02 56.21 53.80 53.01
65.64 65.68 66.80 66.34 65.08 66.66 66.32 67.28 66.53 66.16 66.14 65.67 64.48 64.20 64.95 62.29 56.02 47.93 48.48 63.51 60.50 59.62 59.95 59.01 59.00 45.39 45.03 46.84 51.36 61.39 57.89 58.28 54.37 56.57 56.27 56.02 55.84 56.65 56.69 57.46 57.43 55.93 54.43
65.65 65.94 66.49 65.92 65.12 66.16 66.56 66.08 66.29 65.86 64.98 64.36 63.56 63.75 64.22 63.01 53.56 48.28 48.29 52.01 55.31 60.63 60.06 60.79 55.72 43.94 43.40 47.39 53.92 46.76 48.52 53.88 58.30 56.31 55.36 54.96 55.32 55.54 56.26 57.40 57.23 57.43 58.53
65.66 65.62 65.80 66.17 65.49 65.49 65.77 65.91 64.73 64.91 63.56 63.67 62.60 62.07 61.69 62.04 59.28 46.45 46.12 48.11 50.53 57.66 56.13 45.89 42.62 42.31 43.22 47.37 44.63 47.15 48.88 58.88 57.48 55.55 54.91 55.02 55.80 56.91 58.01 57.30 57.28 57.56 57.78
65.89 65.41 65.71 65.14 64.52 65.74 66.03 66.01 64.25 64.45 63.30 63.17 61.74 61.04 61.08 61.99 61.36 60.72 56.38 54.35 49.62 53.57 51.33 51.77 48.02 48.98 49.49 50.05 51.72 56.25 60.69 59.40 57.73 56.56 56.06 56.89 57.09 57.07 57.07 57.32 56.24 56.86 58.47
65.78 65.66 65.19 64.78 64.23 65.36 60.95 60.86 64.91 57.49 58.46 62.27 64.18 61.23 60.17 59.49 60.45 57.47 58.39 60.97 60.73 54.26 54.92 56.33 55.33 55.01 56.59 58.09 58.49 59.56 59.63 58.29 57.36 57.36 57.26 56.72 56.57 56.11 56.53 59.08 57.51 57.38 57.92
64.93 65.19 64.71 63.71 65.37 64.36 62.52 58.54 42.44 43.92 42.48 42.11 47.44 58.07 53.83 49.07 45.39 45.39 44.31 44.49 45.58 45.39 56.99 55.56 54.40 54.77 55.25 56.72 57.48 58.08 58.49 56.74 58.08 57.66 57.25 56.97 56.80 56.05 56.16 58.08 59.26 58.69 57.98
64.34 64.84 62.91 63.31 63.29 63.37 63.21 62.24 58.91 51.67 42.48 41.57 41.73 44.05 48.03 44.42 42.86 42.86 42.31 41.59 42.86 47.66 57.01 56.00 55.47 55.61 56.19 56.83 57.46 57.88 57.85 58.69 58.81 57.90 57.62 57.48 57.41 57.71 55.18 57.09 58.70 59.44 58.89
66.43 54.69 63.73 62.18 64.35 63.50 62.59 62.77 61.19 60.10 59.19 57.32 44.44 46.67 41.36 41.19 40.68 40.86 41.95 48.27 56.75 56.03 57.42 56.34 56.06 56.67 56.79 57.01 57.16 57.14 58.39 58.92 58.98 58.90 57.87 57.26 57.30 57.54 57.33 57.86 58.90 58.31 58.57
65.43 64.15 63.95 62.62 63.55 62.12 63.07 62.70 61.36 60.87 60.09 58.48 55.16 48.70 42.30 39.03 39.59 41.59 42.86 58.94 57.57 57.75 58.87 57.70 57.27 57.29 57.58 58.19 58.09 58.77 58.61 58.95 58.77 59.66 59.78 59.64 59.68 59.20 58.96 59.14 59.07 48.59 51.40
65.05 56.51 56.16 62.77 62.71 64.28 63.39 61.98 62.54 62.08 61.09 59.66 59.52 56.77 53.18 51.92 54.78 54.67 57.58 60.10 59.46 59.28 59.93 59.74 57.99 58.38 58.31 58.88 58.65 59.27 60.26 58.76 59.81 60.88 60.76 60.95 60.82 60.76 59.94 59.65 59.87 59.63 58.76
64.27 63.52 50.87 63.64 63.65 63.78 63.67 63.91 63.64 62.74 62.19 60.95 60.65 57.01 46.99 59.18 58.21 59.02 58.21 59.44 60.98 60.33 61.35 60.58 59.92 59.54 59.57 60.26 60.67 61.07 60.84 61.39 61.59 61.58 61.52 61.40 61.39 60.29 60.98 60.90 60.79 60.55 60.45
63.87 62.99 63.64 63.10 63.79 64.05 64.06 64.37 64.58 63.74 63.07 62.03 61.29 54.13 42.93 58.42 60.81 61.09 61.40 61.87 62.25 62.62 63.12 62.60 61.38 61.73 60.93 60.81 61.54 61.55 61.56 61.75 62.08 62.14 61.47 61.80 61.76 61.88 61.54 61.28 61.21 60.23 59.44
63.47 63.26 63.64 62.03 63.59 55.46 61.56 64.10 64.69 63.68 62.68 62.53 61.05 58.50 57.13 60.18 61.31 61.88 62.16 63.10 62.37 62.79 63.71 62.81 62.22 62.60 63.26 62.79 62.79 62.55 61.93 62.07 62.28 63.06 62.32 62.00 61.81 61.53 61.85 61.46 61.44 60.12 59.88
63.72 62.97 63.07 61.56 62.72 62.59 63.21 63.58 64.03 56.34 63.38 62.29 61.20 60.63 60.97 60.81 61.19 62.21 62.81 62.81 64.36 59.08 57.19 60.35 50.78 50.76 49.70 48.55 49.04 48.23 43.77 42.35 51.80 59.27 63.14 62.15 61.59 58.53 61.80 61.56 60.92 60.56 60.21
63.04 62.54 62.14 61.25 62.11 63.06 62.40 62.41 63.56 63.49 62.89 62.18 62.35 62.84 58.39 58.03 58.60 58.85 55.58 55.32 53.91 51.02 48.35 48.89 49.52 46.16 43.17 41.35 41.37 40.50 35.01 33.43 41.41 38.40 58.64 61.65 62.53 62.97 62.50 61.92 61.35 61.09 60.91
60.11 63.45 62.43 60.00 60.06 61.21 61.78 60.37 60.00 59.28 58.58 58.84 58.45 57.29 56.80 53.64 52.31 54.43 53.72 52.70 50.59 49.19 46.50 43.48 42.36 42.71 40.73 39.16 36.78 33.62 33.65 34.41 39.47 35.27 52.34 61.31 61.50 61.60 61.03 60.53 60.97 60.68 60.69

GFSGL_sfc_wetblb_063.txt.gz
Wetbulb
68.52 68.51 68.61 69.46 70.45 70.57 69.82 69.28 69.25 69.44 69.21 68.53 67.42 65.64 65.25 65.26 64.24 62.94 62.23 62.84 62.25 61.65 61.94 61.68 61.27 61.26 61.16 60.82 60.27 60.04 59.47 58.04 55.93 58.28 59.77 60.64 62.14 62.55 63.29 62.03 61.75 60.79 60.43
69.26 69.43 69.66 69.25 69.38 68.30 67.41 66.97 67.83 67.67 67.65 66.62 65.90 64.37 65.50 65.46 64.86 62.57 62.48 62.46 62.00 61.10 61.04 61.04 60.91 63.02 60.07 60.66 59.18 59.30 59.29 59.33 57.73 56.09 59.49 58.56 60.19 62.72 62.37 62.80 62.46 61.98 61.55
69.76 69.14 68.90 69.09 68.65 66.97 65.72 65.47 65.95 64.92 64.58 65.15 64.04 63.39 64.68 65.30 62.81 62.56 62.91 62.24 61.97 61.50 61.29 60.72 60.30 60.33 60.14 61.12 60.44 59.15 59.66 61.48 58.51 57.01 57.15 58.60 60.25 61.64 59.97 60.13 59.93 59.61 60.53
68.18 67.66 67.26 67.46 67.17 66.01 65.47 64.76 64.78 64.27 63.59 63.46 63.09 64.27 64.27 63.55 62.62 63.05 63.01 62.50 61.74 61.04 60.81 59.73 58.88 59.25 58.89 60.38 60.99 59.44 60.54 59.84 57.59 56.49 57.21 56.71 58.42 59.01 58.90 57.55 56.77 58.20 58.02
67.94 67.51 67.01 66.86 65.84 65.81 64.78 64.37 63.73 63.62 63.50 63.22 62.85 62.36 63.15 63.68 63.83 64.07 63.81 61.91 60.21 59.62 59.48 59.20 58.67 59.31 57.97 57.77 60.88 60.02 59.82 58.35 57.05 55.89 56.41 56.51 56.63 57.11 56.33 56.97 55.95 56.17 56.79
66.80 66.68 66.94 66.26 65.27 63.78 63.41 63.18 63.11 62.53 62.46 61.88 61.61 62.24 60.82 60.28 51.36 55.55 62.22 61.29 60.71 59.37 58.11 57.77 59.04 58.46 57.37 55.40 55.85 56.87 59.10 58.59 55.97 55.69 55.33 56.43 56.05 56.15 56.69 56.39 55.75 55.47 53.03
66.22 66.44 66.01 64.80 63.89 63.03 63.54 63.44 62.74 62.00 62.89 62.48 61.67 60.69 58.93 55.51 48.37 50.91 56.99 61.76 60.49 59.39 58.47 58.39 59.36 60.48 58.96 58.77 53.55 55.24 55.60 55.17 56.00 56.75 56.60 56.71 56.05 56.81 56.89 56.11 56.37 54.63 53.67
65.71 65.30 64.33 64.28 63.80 63.21 62.99 62.35 63.43 61.19 62.61 62.83 62.36 60.18 57.30 54.25 47.46 48.80 51.82 61.35 60.67 60.52 59.57 59.39 59.01 59.75 59.03 59.47 58.49 59.51 59.49 57.57 57.32 57.91 57.09 57.51 57.80 58.04 57.88 57.41 55.51 55.09 56.05
63.21 62.88 63.76 64.11 63.09 62.04 62.00 62.86 62.18 61.28 60.56 60.89 61.68 59.53 56.71 53.84 48.19 49.24 54.99 60.61 60.13 60.16 59.86 59.55 59.39 59.97 52.10 49.46 59.74 56.37 54.64 53.27 49.54 49.99 50.00 48.30 47.83 49.46 54.55 56.28 54.93 54.49 52.85
62.18 62.85 64.22 64.15 63.19 61.74 61.34 62.30 61.72 61.32 61.38 62.04 61.70 60.64 55.35 54.30 48.01 48.37 56.17 60.32 58.70 58.60 57.55 57.05 49.46 54.57 46.01 50.73 58.90 56.01 54.80 54.06 54.32 54.30 53.22 49.65 52.44 50.98 51.78 57.35 56.36 54.26 52.96
62.86 62.76 64.33 64.54 63.87 63.44 63.42 62.49 61.97 61.75 61.45 60.78 60.81 60.03 58.25 55.07 51.89 47.83 49.10 58.94 57.86 57.98 56.87 56.99 53.29 44.18 45.11 48.55 51.43 57.78 54.82 55.37 52.35 55.85 55.29 55.41 56.53 56.85 56.95 57.11 56.45 55.85 54.19
62.46 64.01 64.25 64.00 64.63 64.41 63.11 61.59 61.93 61.07 60.13 59.27 59.33 59.47 59.02 56.03 49.44 46.36 48.37 53.53 55.67 58.17 57.31 56.81 51.55 43.11 44.93 45.47 53.07 45.11 47.09 52.18 55.91 55.53 54.85 54.87 55.11 55.57 56.57 57.07 56.19 56.69 57.81
63.09 63.00 62.54 62.90 63.46 62.74 62.05 61.48 61.48 60.84 60.32 58.98 59.08 59.22 58.74 57.29 54.06 45.27 45.47 49.44 51.06 55.09 54.15 51.23 43.05 42.57 43.66 46.54 45.09 45.91 49.61 56.33 55.65 54.68 54.17 54.49 55.04 55.98 56.97 56.29 57.06 57.14 57.71
62.19 62.15 62.49 62.43 61.98 62.81 62.77 61.69 61.38 60.30 60.61 59.78 58.92 59.62 59.37 56.97 55.38 53.01 51.93 50.86 48.12 50.71 47.90 49.47 48.57 49.28 49.04 50.14 50.65 53.46 57.34 55.89 55.52 55.04 54.78 55.40 56.30 56.73 55.45 55.96 54.65 55.06 56.13
62.37 62.36 61.81 61.89 61.62 55.67 51.94 52.37 58.21 52.91 55.73 60.12 58.78 59.60 60.06 58.79 58.27 54.12 54.43 56.59 54.86 51.99 53.66 55.75 56.61 56.55 56.49 56.85 58.09 58.13 57.62 56.99 56.13 55.88 55.83 55.14 55.35 55.71 54.45 56.05 55.33 55.33 54.83
61.85 61.83 61.45 61.85 60.04 57.51 55.63 53.56 42.01 41.28 41.25 47.28 50.92 55.02 54.11 50.13 47.10 46.01 45.29 45.47 44.56 44.93 55.25 55.16 54.94 56.35 56.85 56.83 57.37 56.83 56.94 55.14 56.70 56.85 56.48 55.72 53.80 53.23 54.33 55.85 56.29 54.33 54.47
61.73 61.22 61.26 61.30 60.54 59.12 57.42 55.95 53.94 49.45 42.37 40.54 41.63 45.44 48.40 44.37 42.93 42.75 43.66 43.11 42.39 48.55 55.21 54.84 54.98 55.75 56.45 56.93 57.01 57.48 56.96 56.64 57.26 57.19 56.75 56.44 55.85 54.16 52.25 56.53 56.61 55.99 56.09
62.43 54.81 61.96 62.08 62.01 61.19 59.90 57.60 56.72 55.85 54.30 51.90 43.52 43.42 40.54 41.28 40.94 41.12 42.03 47.23 53.89 53.74 56.09 55.51 55.49 56.39 56.87 57.19 56.89 57.34 57.69 57.34 57.31 57.12 56.72 56.74 56.45 55.48 55.65 55.73 56.36 56.68 56.58
61.80 61.21 61.87 62.27 61.61 60.00 61.44 59.32 58.94 58.39 54.94 52.30 50.97 46.51 40.75 39.47 40.21 41.48 43.84 56.96 56.25 55.11 56.03 56.23 56.80 56.96 57.04 57.29 57.18 57.58 57.32 57.96 57.77 57.65 56.78 56.20 56.12 56.46 56.24 55.21 55.51 47.10 49.96
59.81 53.48 57.08 62.55 60.57 60.64 60.74 58.73 57.98 58.35 55.45 54.20 54.23 52.39 50.01 51.23 54.32 54.72 55.69 57.50 57.21 56.91 57.01 56.80 57.03 57.25 56.63 57.56 57.59 57.73 57.82 56.27 56.25 56.39 56.93 56.19 56.34 56.80 56.25 56.13 56.10 55.75 54.92
58.81 56.88 50.38 61.82 60.90 60.87 60.14 58.96 58.75 58.31 57.07 56.74 54.69 53.46 45.11 56.25 55.69 56.03 56.71 57.72 58.54 58.31 59.28 57.80 57.46 57.63 57.98 58.35 58.08 56.92 56.69 57.33 56.87 58.25 58.66 59.12 58.54 57.77 58.46 58.10 56.84 56.80 56.51
59.18 60.18 61.11 61.11 61.02 61.50 60.74 60.66 59.70 58.70 58.21 57.47 55.20 51.21 39.13 56.55 56.30 57.55 58.07 58.49 59.70 59.43 60.00 60.05 58.34 57.75 57.85 57.77 57.47 58.35 58.58 57.92 59.09 59.73 60.23 60.11 59.62 58.48 58.20 57.51 57.40 57.74 59.25
59.08 60.71 59.41 59.23 60.24 53.77 59.11 61.26 60.27 59.45 58.78 57.73 55.85 54.84 51.02 54.68 56.89 57.74 59.17 58.89 59.96 59.64 56.05 55.71 59.37 57.14 55.43 51.83 50.55 51.83 54.78 54.67 56.29 58.92 59.99 59.88 59.90 59.14 59.73 58.89 58.65 58.14 56.45
58.89 58.51 59.98 59.56 60.83 60.65 61.54 60.93 62.03 53.69 58.89 57.83 56.59 55.55 55.24 56.38 58.31 56.26 51.54 51.96 50.02 49.06 47.91 45.58 45.46 45.34 44.63 44.67 44.72 43.66 41.90 42.34 47.89 52.91 57.12 60.55 60.51 56.54 60.20 60.25 60.28 60.30 60.41
60.33 58.07 58.38 57.82 59.84 60.65 59.68 61.42 61.35 60.65 59.74 58.04 56.72 56.73 57.14 55.63 54.16 50.95 49.20 46.66 45.40 44.19 42.97 42.71 42.83 41.01 39.59 39.09 39.25 39.40 35.49 33.53 41.86 37.61 57.44 60.10 59.29 58.96 59.73 59.55 59.47 59.25 58.28
57.32 56.94 56.74 57.52 58.94 58.57 57.82 57.99 58.19 57.82 56.29 53.93 51.49 50.28 50.73 50.73 49.18 47.98 46.79 44.31 41.35 40.42 39.94 39.23 38.23 37.85 37.82 37.78 36.31 33.75 33.61 35.04 40.76 38.09 49.05 49.45 49.97 48.65 51.63 51.55 51.48 51.68 52.46

GFSGL_sfc_wetblb_069.txt.gz
Wetbulb
57.36 59.38 60.46 62.04 63.13 64.24 65.44 66.42 66.78 66.74 67.25 67.50 67.01 66.47 66.18 65.69 65.29 64.24 63.04 61.85 61.12 59.83 59.77 59.55 59.22 58.92 58.43 58.36 57.97 56.97 56.39 55.35 52.93 58.00 59.38 59.94 58.97 61.35 61.64 60.55 61.65 60.74 59.62
58.60 60.72 62.28 63.01 64.92 65.30 65.87 66.56 66.44 66.60 67.43 67.41 67.03 66.22 66.03 65.88 64.56 63.10 61.90 61.59 61.10 59.99 59.84 59.30 59.17 60.01 58.39 58.23 57.79 57.07 56.89 56.25 55.55 55.79 57.85 59.40 59.76 61.82 61.32 60.87 61.11 61.33 60.62
60.40 61.36 63.33 64.69 65.77 66.06 66.44 66.33 66.58 66.67 66.81 67.21 66.54 65.76 65.27 64.36 62.89 61.34 61.58 61.41 60.87 60.33 59.79 59.34 58.97 58.40 57.99 57.65 57.67 56.93 57.57 58.36 56.33 55.44 56.81 59.34 60.10 60.79 59.12 59.30 59.51 59.62 59.52
63.70 63.85 64.50 65.84 66.51 66.51 66.73 66.71 66.85 66.94 66.81 66.16 65.82 65.72 64.82 63.68 62.47 61.52 61.65 60.76 60.31 59.92 59.17 58.89 58.49 58.38 58.22 57.65 57.91 57.45 57.25 56.85 57.03 55.40 57.15 58.08 58.46 59.39 59.48 57.79 56.99 58.06 58.26
65.47 65.31 65.30 65.88 65.63 66.10 66.53 66.75 66.22 66.36 65.96 65.90 64.46 63.70 62.80 62.40 62.37 61.75 60.80 59.95 59.40 58.59 58.43 58.19 57.84 57.92 58.32 56.90 57.79 58.11 57.89 57.47 57.43 55.83 54.47 56.87 56.83 57.19 57.27 56.97 55.70 56.07 56.83
65.77 64.98 65.18 65.06 65.22 64.93 64.75 64.93 64.83 64.59 63.94 63.34 62.50 61.88 60.71 61.12 51.64 53.67 58.61 59.59 59.96 59.72 56.93 55.83 56.25 56.59 55.93 55.27 54.55 56.00 58.22 57.77 56.41 55.00 52.35 56.43 56.85 56.61 57.49 56.67 56.09 55.90 53.95
65.21 65.24 64.82 64.80 64.48 64.04 64.32 64.16 63.35 62.08 61.38 60.60 59.71 60.29 59.82 58.50 48.81 51.15 54.20 60.82 58.77 57.19 55.95 55.39 56.45 59.01 57.73 58.33 53.06 53.28 53.81 53.65 55.17 56.57 53.93 54.70 56.99 57.55 57.91 56.53 54.96 53.19 54.27
64.50 64.36 64.32 64.27 63.44 63.53 62.75 61.62 59.64 59.83 59.89 59.01 58.46 58.75 57.44 54.03 46.89 48.39 50.57 58.41 57.19 56.55 55.55 57.01 57.59 58.61 58.39 58.13 57.31 58.74 58.92 58.18 57.65 57.91 56.88 55.99 55.97 58.21 58.90 58.08 55.23 55.54 55.82
64.02 63.83 63.87 63.93 62.87 62.19 60.86 60.04 59.11 58.97 58.30 57.65 57.67 56.09 54.95 53.39 45.13 46.03 54.88 57.53 57.03 56.57 56.83 57.05 57.91 58.27 50.89 48.75 58.90 58.50 56.59 54.74 48.84 48.93 49.58 48.03 46.76 48.93 53.96 56.39 55.59 55.09 52.84
63.74 63.63 63.78 63.79 62.35 61.19 60.41 59.42 58.59 59.97 59.17 58.80 57.94 57.42 52.48 52.92 44.95 46.21 55.46 60.54 58.68 58.22 57.13 55.18 47.85 55.10 45.31 46.21 57.99 57.13 55.16 53.96 53.84 54.52 54.20 50.29 50.73 51.38 50.36 58.42 56.92 54.86 53.26
63.97 63.89 63.39 62.62 61.25 60.80 59.79 59.99 58.93 59.11 58.25 57.31 55.63 54.05 53.83 53.07 51.03 46.21 48.57 59.38 58.65 57.39 55.90 54.09 54.20 44.22 43.86 44.04 49.84 56.67 54.60 54.19 52.35 55.73 55.47 55.60 55.58 55.45 56.65 56.81 57.91 56.39 54.07
60.92 62.54 61.08 60.72 61.40 60.83 59.53 60.55 60.39 59.33 58.13 56.17 54.82 53.67 55.08 54.96 48.01 45.85 45.67 49.48 50.93 55.60 54.48 54.76 52.81 42.41 41.50 43.86 50.35 42.77 45.13 51.47 55.85 55.39 55.10 54.84 55.12 55.64 56.23 56.39 56.57 56.24 56.12
61.44 61.12 60.67 60.78 60.59 60.27 59.59 59.19 58.79 59.07 58.36 58.08 56.79 55.49 55.45 55.64 52.25 44.22 43.86 43.86 46.94 54.80 54.80 51.63 42.95 42.05 41.68 44.04 43.68 44.40 47.85 55.22 55.33 54.66 54.26 54.44 55.73 56.35 56.19 55.81 56.43 57.35 57.00
60.91 60.93 60.62 60.13 59.73 60.22 60.45 60.15 59.07 58.44 58.50 58.62 57.79 55.67 55.87 55.67 54.78 52.96 50.93 50.01 46.89 49.94 47.68 48.50 47.94 47.85 47.30 47.59 49.24 52.70 55.02 54.50 54.75 54.65 54.50 54.84 56.01 55.84 55.30 55.57 55.24 55.75 54.06
60.95 60.82 60.03 59.74 59.92 56.77 51.67 55.26 59.18 58.09 57.83 58.87 58.51 58.02 56.33 55.95 56.05 51.66 52.85 54.76 54.98 51.28 51.53 53.16 54.82 53.87 52.87 53.81 55.50 55.35 54.67 52.76 54.53 54.75 54.74 54.52 55.06 55.28 54.74 55.41 54.26 53.06 53.04
61.12 60.75 60.42 59.05 57.60 55.21 54.07 50.98 40.91 41.02 43.31 45.67 47.85 55.12 55.18 49.92 43.50 42.77 43.31 43.86 43.13 44.40 54.60 55.24 55.00 54.54 54.42 55.04 55.38 54.54 54.50 52.58 54.65 55.11 54.73 55.07 54.73 54.43 54.45 54.59 55.09 54.11 54.49
61.07 60.26 58.70 56.93 57.46 56.57 55.85 55.41 52.44 46.60 40.68 39.64 43.31 45.67 48.75 46.03 42.05 41.50 41.68 41.14 41.50 46.76 55.24 55.66 55.80 55.56 55.51 56.47 56.03 55.19 54.50 55.29 55.87 55.65 54.82 54.61 54.71 54.61 53.81 54.22 54.62 54.38 54.19
60.77 51.60 59.38 58.07 57.19 56.29 55.69 54.84 54.76 54.16 53.69 52.33 42.07 42.72 40.78 41.50 40.23 39.87 40.78 45.11 52.28 52.16 55.66 55.62 55.99 56.71 56.97 56.63 56.21 55.65 55.59 56.17 56.21 55.87 55.53 54.86 54.70 54.16 54.06 54.33 54.36 53.94 54.24
59.92 60.03 59.84 58.14 57.19 55.04 55.43 55.12 54.58 54.42 54.23 51.01 49.21 44.43 39.87 39.13 39.33 40.59 42.77 55.81 54.94 54.22 55.14 55.82 56.51 57.15 57.25 57.17 57.05 56.83 56.15 56.07 55.59 56.01 55.93 55.73 54.88 53.91 53.56 54.36 54.81 46.49 48.95
61.25 50.82 55.21 58.04 56.53 56.25 55.97 54.80 54.83 54.48 54.27 55.01 55.11 51.66 47.88 50.54 52.35 53.96 56.01 56.23 55.39 55.16 56.11 56.27 56.63 57.23 57.79 57.81 57.43 57.09 56.41 54.74 55.83 56.09 55.69 55.87 56.17 55.13 53.78 54.15 54.54 55.02 54.00
60.69 58.12 48.44 58.54 58.07 56.90 56.39 55.05 54.92 54.90 54.82 54.53 54.14 51.85 42.59 56.11 55.41 55.57 55.91 56.29 56.27 56.03 56.59 56.83 56.79 57.51 58.03 58.26 57.75 57.03 56.25 56.73 56.83 56.25 56.59 56.17 56.35 55.87 56.43 55.75 55.13 55.33 54.92
60.51 58.28 59.53 59.05 58.73 57.63 56.98 56.11 54.74 54.92 54.62 53.57 53.40 47.75 39.51 56.09 55.91 56.21 57.13 57.69 58.15 58.95 58.20 57.35 57.16 57.37 58.13 58.07 57.92 57.45 56.87 57.07 56.95 56.89 57.11 57.48 56.90 56.36 56.10 55.77 56.01 55.37 54.43
60.92 59.83 59.60 59.20 58.74 50.36 55.97 56.19 55.13 54.78 53.86 53.54 53.62 52.16 53.23 55.67 56.45 57.04 56.31 52.78 51.75 51.45 52.30 54.90 53.84 50.66 50.21 50.11 50.60 53.29 56.89 57.17 56.85 57.69 57.87 58.45 57.97 57.53 56.81 55.33 55.39 54.11 54.01
59.47 60.13 59.57 59.12 57.34 57.17 56.81 56.15 55.15 49.26 53.83 53.56 53.05 53.51 54.88 54.49 50.13 47.12 47.59 47.77 46.62 45.53 44.74 44.01 43.29 44.15 45.05 45.22 45.62 45.58 45.32 46.99 49.80 53.76 55.16 58.13 59.47 54.76 58.53 58.11 58.04 57.87 56.31
57.16 59.25 59.06 58.28 57.78 57.62 56.49 56.49 55.83 55.21 54.83 54.37 53.54 51.68 47.97 47.31 45.57 44.05 43.09 43.88 43.06 43.06 42.26 41.11 39.94 39.08 39.31 39.31 39.58 40.01 35.64 35.03 45.27 44.22 54.25 54.98 54.24 53.39 53.43 54.70 54.41 53.72 52.20
53.22 55.67 56.66 58.51 59.12 58.85 57.66 56.42 55.77 55.03 54.67 53.20 48.70 45.95 43.87 41.96 41.31 40.92 40.36 39.47 39.56 38.73 38.53 38.27 37.62 37.59 36.64 36.04 34.79 33.96 35.00 35.34 39.88 37.05 48.40 50.91 50.76 50.71 50.72 50.11 48.98 48.36 47.66

GFSGL_sfc_wetblb_072.txt.gz
Wetbulb
55.85 55.97 59.61 61.42 62.05 61.92 63.29 64.75 65.82 66.49 67.32 67.56 67.65 67.45 67.34 66.71 66.62 66.26 65.77 64.12 63.01 62.83 62.50 62.07 61.52 61.55 61.35 61.41 61.21 60.71 60.15 59.33 57.96 59.30 60.85 61.68 61.93 62.15 61.97 62.39 62.58 61.89 61.63
55.14 56.63 59.72 60.92 61.86 62.58 63.76 65.18 66.29 66.40 67.67 67.85 67.87 67.29 66.73 66.11 66.11 65.53 64.31 63.91 62.65 62.15 61.87 61.85 61.78 61.40 61.59 61.42 61.25 60.74 60.50 59.85 59.27 57.91 59.32 60.50 60.60 61.98 61.15 61.20 61.47 61.43 62.22
55.98 58.07 59.60 61.29 62.64 63.05 63.98 65.41 66.37 66.87 67.36 67.74 67.36 66.93 66.11 66.02 65.38 65.00 64.20 63.13 63.00 62.58 62.15 61.75 61.46 61.36 61.03 61.02 61.19 60.86 60.66 60.14 59.81 58.25 58.00 60.68 60.85 60.98 60.32 60.67 60.37 60.07 60.28
57.25 59.02 60.80 62.24 63.37 64.05 65.06 65.64 66.44 67.07 67.09 67.27 67.24 66.84 66.17 65.96 64.88 63.28 62.99 62.76 62.64 62.41 62.10 62.04 61.41 60.82 61.26 61.15 61.18 60.94 60.55 59.93 59.36 58.47 58.19 58.97 59.46 59.98 59.88 58.18 56.83 58.42 58.40
58.67 59.93 61.57 63.59 64.71 65.66 65.75 66.08 66.64 66.93 67.16 67.09 66.64 66.28 65.62 64.93 63.58 62.75 62.70 62.78 62.35 61.44 61.08 60.77 61.08 60.42 58.84 59.30 61.35 60.97 60.28 59.43 59.13 58.59 58.30 58.52 57.98 58.08 57.45 57.75 57.55 57.51 57.71
62.43 61.73 64.11 64.97 65.75 66.18 66.31 66.73 66.78 66.78 66.44 66.20 65.75 65.11 64.19 63.81 52.45 53.90 60.04 62.07 61.70 60.94 60.20 59.86 59.83 57.79 56.17 53.89 53.46 55.16 59.43 59.69 58.03 57.33 56.47 56.88 58.41 57.92 57.43 57.25 57.25 57.85 56.53
64.27 64.61 65.06 65.42 65.37 65.75 66.13 66.22 65.85 65.43 65.08 64.82 64.12 63.96 62.75 61.55 49.52 50.81 53.71 61.98 61.59 61.24 59.70 58.70 58.73 59.41 58.32 58.72 53.07 52.68 53.93 53.49 55.10 57.55 57.31 58.21 58.46 58.63 58.47 57.83 58.51 57.75 56.03
64.61 64.61 65.13 65.24 64.52 65.27 65.61 65.04 64.95 63.81 63.69 63.59 62.87 62.39 60.99 57.19 48.17 47.70 50.79 61.28 60.67 59.95 59.12 58.66 59.47 60.09 59.33 59.39 57.93 59.22 59.97 58.54 58.14 58.79 59.51 59.59 61.05 60.92 60.62 59.86 57.72 56.33 57.15
64.23 64.32 64.82 64.80 64.07 64.43 64.13 62.84 62.55 62.02 62.36 61.54 61.01 59.51 59.05 55.45 44.42 45.53 55.89 60.49 59.65 58.64 58.52 58.98 59.52 59.22 51.14 48.43 58.51 59.22 58.04 56.29 48.90 48.25 49.28 49.88 48.07 49.70 55.29 57.91 56.46 56.52 54.50
63.50 63.78 63.94 63.63 63.39 62.91 62.34 61.54 61.66 61.94 60.65 59.86 58.39 58.76 53.78 54.45 43.35 46.25 55.65 60.27 58.69 58.44 58.44 57.03 48.79 55.65 45.53 45.89 60.03 58.42 56.29 55.56 55.40 55.95 55.43 51.39 51.02 51.63 50.66 59.56 58.76 56.15 55.00
62.73 64.07 63.43 63.19 62.26 61.49 61.20 60.99 60.65 59.98 58.96 57.92 56.69 56.71 56.47 54.59 50.68 46.07 48.79 61.11 59.70 58.98 58.25 57.48 56.49 45.35 43.35 44.44 50.06 58.93 55.85 55.49 53.36 56.71 56.79 56.69 56.87 56.97 58.78 60.27 60.42 57.94 57.34
60.69 61.65 63.07 62.21 61.78 61.62 60.82 60.32 59.59 58.49 56.83 55.93 55.27 54.46 55.75 55.25 48.92 46.04 45.71 49.70 54.00 59.16 57.80 57.48 52.72 43.17 42.09 42.63 50.51 42.99 44.99 51.55 56.76 56.81 56.03 55.77 55.77 56.29 57.37 58.34 58.38 58.25 58.40
60.33 61.96 61.20 61.53 61.28 61.19 60.58 59.59 58.71 58.02 56.66 56.19 55.69 54.30 54.69 55.13 53.01 44.62 44.08 43.17 46.98 57.26 57.84 52.09 42.99 40.80 41.16 44.26 43.17 44.08 47.29 56.30 56.68 55.77 55.67 55.63 56.51 57.25 57.31 57.25 57.69 58.49 57.73
57.84 59.03 60.98 60.15 59.76 60.50 60.51 60.21 59.27 58.59 58.18 57.46 56.45 55.45 56.15 56.31 55.25 52.90 51.14 51.05 47.23 50.06 47.60 49.49 48.14 47.25 47.34 47.05 49.17 52.63 55.89 56.47 56.11 55.59 55.21 55.83 56.41 56.01 55.50 56.19 56.47 56.76 56.13
57.46 60.46 60.10 59.85 59.43 54.55 49.79 55.09 59.78 58.92 58.56 58.64 57.99 56.95 55.75 56.05 56.29 51.61 52.42 55.75 56.05 51.40 51.72 54.35 54.83 53.76 52.96 53.92 55.22 55.33 55.20 56.30 55.67 55.71 55.31 55.25 55.29 55.24 54.68 56.13 55.81 56.23 55.39
60.22 59.77 59.70 58.90 57.14 55.27 54.55 51.66 40.75 42.56 44.80 46.44 48.43 55.03 56.77 49.29 44.26 43.90 44.44 44.26 42.81 44.44 54.89 55.43 54.56 54.26 53.86 54.76 54.76 54.65 54.82 53.47 56.43 56.12 55.69 55.57 54.95 54.58 54.59 55.43 55.53 56.17 57.03
59.77 59.47 58.37 57.14 57.24 56.38 56.56 56.49 52.52 46.20 41.09 41.34 44.08 45.71 47.89 44.97 42.81 42.27 41.90 41.00 41.72 46.44 56.31 55.39 55.47 55.00 54.94 56.07 55.21 54.85 54.54 55.45 56.53 56.00 55.80 56.01 55.23 54.69 53.66 54.73 54.79 56.14 56.12
59.86 50.79 58.91 58.54 58.52 57.72 57.59 57.02 56.27 56.83 56.19 53.61 42.66 43.68 40.44 40.45 40.27 39.91 39.91 44.37 51.67 52.75 56.63 56.31 55.99 55.85 56.41 56.59 56.43 55.89 55.79 56.09 56.45 56.08 55.69 55.87 55.91 55.06 54.47 54.20 54.67 54.39 54.67
59.73 59.40 58.97 58.37 57.58 55.73 56.78 56.51 56.52 56.75 55.97 52.47 49.39 44.20 39.47 38.41 38.62 40.09 42.63 55.81 55.31 55.10 56.03 56.53 58.00 57.23 57.31 57.43 57.18 56.85 56.83 56.36 56.64 56.50 56.09 55.73 55.63 55.06 54.64 55.24 54.74 46.40 49.56
59.38 49.81 54.09 57.23 56.74 56.84 56.67 56.03 55.67 54.74 54.36 55.10 54.35 50.90 47.54 50.14 51.69 51.79 55.72 56.49 55.77 55.97 56.82 56.87 57.03 57.79 57.93 58.01 57.65 57.35 57.10 55.55 56.35 56.97 57.48 56.65 55.90 55.73 55.12 55.78 56.97 56.46 55.73
58.92 57.12 47.02 57.85 57.35 57.06 56.47 56.37 55.78 55.96 55.63 55.26 53.54 50.90 42.99 56.17 54.93 55.99 56.11 56.11 55.99 56.62 57.30 56.83 57.46 58.19 58.77 58.43 57.75 57.56 57.16 56.95 57.14 57.12 57.20 57.51 57.17 56.24 56.27 57.02 56.34 56.51 55.95
59.32 58.44 59.19 58.00 57.86 56.95 56.14 56.24 56.10 55.29 54.84 54.02 53.13 48.30 39.55 56.95 56.36 56.84 57.40 57.45 58.31 58.35 58.62 57.80 57.40 57.89 58.39 58.59 58.31 57.45 58.34 57.88 57.88 57.81 57.38 57.48 57.84 56.86 56.97 56.53 56.78 56.30 55.31
59.80 59.82 59.42 58.51 57.90 50.17 55.02 55.47 55.33 55.09 54.37 54.21 53.75 54.70 55.79 56.39 56.78 55.41 52.64 50.98 49.98 49.67 51.59 53.93 53.37 51.26 50.87 51.09 52.84 56.88 57.58 58.78 57.98 59.66 58.93 58.50 58.02 57.69 57.14 56.56 55.99 55.63 57.08
60.49 60.02 59.24 57.73 57.68 57.20 56.29 55.20 54.35 49.81 53.90 54.04 53.94 54.84 55.75 52.20 49.78 48.95 47.62 46.54 45.68 44.43 44.51 43.85 43.83 44.90 44.84 45.48 46.50 46.48 47.21 46.61 49.44 54.36 55.49 56.51 59.85 56.49 59.36 58.14 57.75 57.57 58.08
60.28 60.18 58.76 57.87 57.52 57.14 56.23 56.07 54.38 54.13 53.80 53.82 53.72 50.12 48.74 47.52 45.82 44.87 43.95 43.87 43.27 41.81 40.67 40.96 40.63 39.47 39.13 40.47 40.04 40.48 34.73 34.22 46.14 44.44 56.15 57.46 56.23 56.76 57.44 58.25 57.10 54.94 52.71
58.99 59.11 58.84 58.71 58.01 57.70 57.03 56.04 54.94 54.25 53.60 51.37 47.92 46.13 45.50 43.55 42.39 41.42 41.41 40.30 39.21 38.59 38.13 38.34 38.28 37.62 37.61 37.10 36.18 33.84 34.30 34.29 39.35 36.83 47.17 47.77 48.12 49.01 48.54 47.68 46.78 46.15 44.64

GFSGL_sfc_wetblb_075.txt.gz
Wetbulb
58.31 59.51 60.17 61.69 62.83 65.64 67.26 68.58 68.98 71.19 71.71 70.83 71.16 71.56 71.56 72.03 72.45 72.05 71.74 70.78 69.02 66.99 68.84 68.32 67.87 68.15 66.76 66.27 66.13 65.72 64.80 63.87 62.04 62.62 62.54 64.28 63.64 64.07 64.66 64.64 64.64 66.44 65.48
58.59 60.91 61.90 62.36 63.63 65.73 67.35 68.52 69.94 70.69 70.74 70.61 71.32 71.51 71.87 72.08 72.15 71.36 70.75 69.48 66.58 65.83 66.46 67.66 67.19 66.32 67.05 66.94 66.00 65.96 65.29 65.41 64.00 63.16 61.57 62.29 62.35 62.63 64.12 63.11 62.94 64.75 67.00
54.70 59.84 63.50 62.34 63.19 65.89 67.33 69.05 69.79 69.95 70.44 70.97 71.17 71.38 71.46 71.38 71.16 71.27 70.47 69.19 66.35 65.78 67.24 67.27 66.71 66.77 66.50 65.87 65.84 65.56 65.46 65.15 64.53 63.40 61.95 62.33 62.24 62.42 61.65 62.06 61.86 62.53 62.70
53.01 57.96 63.25 63.69 63.97 66.20 67.68 68.78 69.69 70.31 70.15 70.51 71.18 71.33 71.44 71.05 70.74 70.36 69.28 66.93 66.44 67.12 67.53 67.39 66.88 66.49 66.27 66.18 66.00 66.25 65.87 64.83 64.28 63.27 62.27 60.88 61.24 61.35 62.54 59.74 59.91 61.22 60.77
51.54 54.54 63.42 64.07 65.34 66.27 67.10 68.67 70.02 70.34 70.26 70.69 70.80 71.16 71.37 70.84 69.76 69.28 68.21 67.03 67.56 67.00 67.30 66.78 67.23 65.07 61.56 63.33 65.71 66.05 65.53 64.33 63.48 62.58 60.56 59.82 60.26 59.48 60.81 60.12 58.18 58.34 60.09
51.15 52.76 62.14 63.13 64.04 66.49 67.94 69.01 69.84 69.65 70.19 70.45 70.41 70.49 70.38 69.63 53.36 55.72 63.58 67.34 67.24 66.81 66.24 66.19 65.80 59.97 58.80 54.37 53.78 54.88 62.07 64.62 63.60 61.15 60.72 60.17 60.37 60.06 59.24 59.59 58.97 58.40 57.34
51.02 52.94 61.54 63.21 64.75 66.59 67.81 68.34 68.77 68.77 69.54 70.18 70.33 70.29 69.86 69.25 50.79 52.37 55.70 67.57 67.05 67.07 66.51 65.71 64.69 64.29 61.70 63.69 53.85 52.92 53.60 53.96 56.18 64.43 59.81 59.39 60.77 60.39 59.41 58.06 58.92 60.40 59.52
51.71 55.67 62.96 64.02 65.63 67.05 67.44 67.25 67.28 67.17 68.89 68.86 69.41 69.89 69.51 66.82 50.91 49.77 52.80 67.58 67.22 66.97 66.38 66.10 65.44 64.59 63.79 63.03 62.76 62.17 63.07 60.91 60.59 60.80 60.42 60.78 63.60 63.94 61.61 60.56 60.64 59.61 60.06
60.36 63.17 63.65 65.99 65.97 65.45 65.43 65.52 66.16 66.93 67.39 68.45 68.42 66.17 65.19 61.73 47.29 46.74 57.65 66.63 66.09 65.62 65.34 65.02 64.57 64.02 50.82 48.92 62.08 62.15 60.94 58.24 49.97 49.10 50.19 51.82 50.01 52.50 58.85 61.97 60.33 59.32 57.53
63.41 63.83 65.72 66.01 65.54 65.50 65.58 65.52 66.45 67.70 66.79 64.62 64.75 65.36 60.13 61.31 43.83 47.29 58.08 65.59 64.91 64.00 64.01 62.59 50.66 58.83 45.66 45.66 63.07 61.50 59.31 57.44 57.91 57.26 56.17 53.09 53.57 54.88 51.25 62.96 62.01 59.32 58.28
60.75 64.62 66.42 67.67 67.20 65.60 64.81 66.03 65.99 63.95 62.72 63.16 62.85 64.54 63.84 60.88 53.28 45.11 48.74 65.71 64.75 63.79 62.65 62.32 61.84 46.56 44.03 44.03 49.48 61.42 59.19 59.66 55.00 58.42 59.62 58.86 59.20 58.89 60.45 62.31 63.11 62.46 60.37
60.67 63.94 65.11 65.98 65.38 65.03 65.39 65.19 62.98 62.61 60.97 62.59 61.13 59.13 58.61 59.06 50.69 45.57 47.29 53.21 55.91 64.38 62.19 63.17 58.67 43.30 42.39 43.66 51.36 43.84 45.11 53.11 59.84 58.37 58.80 58.12 57.21 57.90 59.57 60.82 62.79 63.30 61.33
62.30 62.70 63.58 64.37 64.26 64.75 64.25 65.03 63.36 62.79 63.16 61.11 60.07 57.83 57.68 58.25 55.79 43.90 44.21 46.38 51.80 62.26 63.53 54.49 43.74 41.11 41.47 45.97 42.69 44.03 48.10 59.63 59.67 58.26 57.79 57.82 58.58 59.44 60.12 59.39 60.00 60.38 59.91
59.74 61.59 62.37 62.24 62.28 63.51 63.79 63.97 62.99 62.70 61.98 60.99 59.67 58.77 58.16 57.97 57.39 56.94 55.12 54.35 48.32 54.10 49.38 53.47 50.13 48.86 47.00 50.19 51.17 53.96 59.67 60.03 58.56 58.04 57.87 58.19 58.39 58.51 57.96 58.50 57.49 58.33 58.32
58.88 60.77 60.38 61.25 60.75 57.00 55.26 61.09 63.36 63.81 61.00 61.16 61.01 60.37 58.86 58.08 58.29 54.73 56.23 59.81 61.12 55.32 55.10 56.27 56.33 55.72 55.02 55.63 57.05 58.53 58.90 59.69 59.22 57.61 57.37 56.93 56.77 56.60 56.01 57.34 57.87 57.92 57.09
60.77 60.04 60.20 58.46 57.97 57.19 57.64 54.69 41.91 45.59 44.93 45.66 49.43 57.84 60.69 50.32 44.75 43.84 44.39 43.84 43.48 44.93 57.41 57.67 56.46 55.90 55.74 55.98 56.75 56.90 57.97 56.24 59.25 57.14 56.94 56.45 55.78 55.36 55.03 55.83 57.05 56.64 59.61
60.03 61.04 60.38 58.25 59.72 60.31 60.54 59.02 55.46 47.96 41.42 42.03 42.94 44.03 47.76 47.52 42.94 42.58 41.85 41.13 42.21 46.93 58.51 58.01 56.99 56.24 56.20 56.59 57.37 57.38 56.61 58.17 59.29 58.28 57.29 56.54 56.19 56.12 54.15 55.26 55.60 57.39 57.66
60.76 51.84 59.75 60.40 61.07 61.34 61.61 61.42 59.79 57.88 56.75 54.90 42.32 45.98 40.99 41.49 41.49 41.13 40.58 44.92 52.32 53.94 58.55 57.71 59.07 57.00 57.39 58.16 57.34 56.75 57.52 57.12 57.66 57.64 57.96 57.89 56.29 55.48 56.21 57.08 57.09 58.39 57.84
60.45 60.99 61.44 61.72 61.97 60.61 62.11 61.49 61.35 60.36 58.29 54.08 51.38 44.81 40.31 38.55 38.74 39.86 42.21 58.75 56.43 56.25 57.07 57.44 58.80 59.15 58.29 58.39 58.10 58.62 57.81 57.53 57.32 57.38 57.50 57.90 57.86 56.83 55.48 55.67 55.16 46.56 49.66
61.59 50.80 56.52 61.03 60.66 62.17 62.35 62.14 61.93 59.95 58.48 58.01 57.04 50.32 48.18 50.61 53.09 53.43 57.45 58.48 59.80 58.94 58.28 58.36 59.65 58.62 58.51 59.57 58.86 58.53 58.23 58.59 59.39 59.19 58.34 57.43 57.54 57.60 56.12 56.42 55.98 56.02 56.99
61.20 60.06 49.82 62.14 62.63 62.75 62.74 61.84 61.00 60.47 59.80 56.87 53.73 51.60 44.03 56.73 54.52 55.59 56.23 57.95 57.30 58.45 59.72 58.79 58.17 58.88 59.20 61.44 60.22 59.25 59.13 58.20 59.19 58.79 59.02 59.43 57.72 56.14 56.77 57.45 57.60 60.01 60.01
61.83 61.92 62.86 62.90 62.71 62.35 61.64 60.76 60.61 58.88 56.96 54.27 53.55 48.93 38.77 57.59 57.13 57.40 57.49 57.82 58.87 60.03 60.48 59.62 59.74 59.55 60.07 59.50 59.13 58.35 59.05 58.68 59.67 58.98 58.94 58.79 59.95 58.68 58.28 59.26 59.63 59.34 58.51
63.04 62.97 62.63 62.48 61.62 53.17 59.08 59.49 57.75 56.83 55.95 55.95 56.90 57.38 57.67 57.61 56.90 53.83 51.36 49.67 51.40 52.50 51.34 53.75 53.19 52.24 51.95 53.20 55.68 57.74 59.70 61.46 60.83 61.22 59.13 58.50 58.47 58.91 58.16 57.86 56.77 57.23 58.88
63.59 63.08 62.29 60.57 60.79 58.73 58.32 57.20 56.52 52.08 56.22 57.08 57.18 57.25 55.30 52.94 50.22 48.45 47.70 46.79 46.16 46.36 45.26 45.14 45.28 45.88 47.53 50.61 47.90 48.97 52.57 53.99 57.58 62.03 60.14 61.79 60.75 57.83 60.36 58.18 57.98 57.88 56.86
63.63 62.89 62.46 61.43 60.67 58.09 55.95 56.14 56.55 56.94 56.42 56.44 54.58 52.08 50.20 47.43 46.59 45.00 44.09 43.53 43.72 44.08 42.66 41.89 41.12 41.98 42.73 44.40 45.52 45.17 38.74 34.95 50.35 45.54 58.48 56.51 56.31 55.97 56.93 54.85 52.10 50.63 50.29
63.32 62.96 62.49 62.16 61.24 60.47 57.00 55.13 55.37 55.56 53.67 51.43 49.63 48.32 45.83 43.43 42.22 41.03 39.92 40.01 38.86 40.10 41.23 39.61 38.74 37.99 38.89 36.37 34.97 33.67 33.32 34.63 40.53 36.99 49.15 50.72 49.54 48.25 47.57 46.52 45.94 45.51 44.86

GFSGL_sfc_wetblb_078.txt.gz
Wetbulb
58.44 59.76 61.20 62.30 63.30 63.88 65.24 65.87 68.39 71.53 70.99 71.15 73.09 74.10 73.85 73.24 73.88 74.29 75.22 74.07 72.99 72.88 72.12 71.18 71.61 71.61 69.69 68.47 68.44 67.72 66.64 65.88 63.20 66.38 67.43 65.94 65.92 67.05 66.67 68.00 67.94 69.05 67.00
58.55 58.87 60.66 62.06 63.40 65.42 65.54 67.35 68.90 69.40 70.21 69.85 72.49 72.62 72.37 72.88 74.15 74.25 73.71 73.10 72.39 71.75 71.27 71.23 70.34 69.86 69.79 69.55 68.05 68.21 67.22 67.52 64.97 64.91 64.65 64.20 65.34 66.24 65.19 64.90 66.98 68.42 67.98
57.80 58.45 59.40 59.86 61.72 65.13 67.08 68.01 68.53 70.00 69.62 70.41 71.79 72.21 72.15 72.84 73.91 74.08 73.49 72.70 72.52 71.73 71.15 70.62 70.31 69.70 68.64 68.00 68.13 67.35 66.82 66.59 66.62 64.27 64.05 64.30 64.47 63.69 62.78 63.56 64.77 65.52 66.18
57.29 57.58 58.44 59.47 59.77 63.80 67.25 67.54 68.55 68.41 68.86 70.48 71.91 72.34 72.24 72.93 73.58 73.66 73.41 72.70 72.06 71.38 71.12 70.97 69.61 68.68 68.30 68.28 67.75 67.35 67.27 66.26 66.01 64.74 64.56 62.88 63.27 63.03 63.41 61.27 61.82 63.10 62.01
56.17 56.44 57.51 59.42 59.73 63.10 67.05 67.32 68.54 69.36 69.30 71.00 71.78 72.31 72.48 73.20 72.79 73.25 73.09 72.09 71.30 70.61 70.85 69.51 69.47 67.20 63.07 64.65 67.03 67.56 67.91 65.87 65.63 62.95 63.22 61.76 61.79 61.50 61.64 61.66 60.79 61.93 61.72
54.52 55.53 57.38 58.96 60.10 62.44 67.99 67.41 68.51 68.85 70.45 71.37 71.87 71.71 72.44 71.96 55.70 57.88 68.05 71.40 70.93 69.71 68.60 68.33 68.86 62.86 61.68 56.54 55.27 55.76 61.01 67.13 65.80 64.36 64.51 62.92 62.45 62.74 63.37 61.77 59.84 58.78 57.73
53.52 55.11 56.10 58.07 59.55 62.33 67.08 67.24 69.06 71.16 73.40 73.71 73.32 72.84 72.54 72.88 53.70 53.83 57.63 71.16 69.40 68.79 68.21 68.35 67.51 66.53 64.19 66.39 54.59 52.93 53.71 53.62 55.52 66.35 64.71 64.76 64.36 62.26 62.75 61.36 61.96 59.69 59.20
51.14 52.22 54.64 57.80 59.76 63.42 66.70 67.88 70.80 73.13 73.48 73.62 73.30 73.35 72.97 68.69 51.36 52.01 54.62 69.58 69.11 68.81 68.76 68.54 68.01 67.66 66.77 66.06 66.15 65.20 65.29 64.89 64.25 64.24 64.81 65.08 64.29 63.19 64.20 63.52 61.73 62.06 62.14
49.62 52.57 55.99 58.42 59.68 65.21 65.95 69.61 72.34 73.01 73.01 73.19 72.78 72.69 71.20 64.75 49.45 50.32 59.41 68.83 67.98 67.83 68.21 68.29 67.72 67.31 53.03 49.45 64.85 64.30 63.77 62.84 52.36 48.75 50.97 51.46 49.47 51.46 59.51 61.33 59.01 59.75 59.14
53.72 57.11 58.69 59.24 61.87 66.32 69.36 70.16 71.34 72.18 71.87 70.95 71.01 71.54 64.26 66.15 46.37 49.47 58.72 66.67 66.35 66.51 67.64 67.51 51.11 61.31 46.75 47.11 64.60 64.14 61.06 61.60 59.88 57.68 57.69 54.63 53.38 56.54 51.91 65.39 61.63 59.98 59.40
51.83 53.33 56.81 64.12 66.60 67.38 67.94 67.85 68.42 68.49 69.14 69.82 69.08 69.80 69.48 65.47 56.74 48.02 48.24 66.46 65.71 65.85 65.69 65.62 64.93 46.12 44.94 45.12 47.49 64.96 62.27 62.53 56.66 59.04 59.24 59.69 62.58 63.01 63.56 64.96 65.73 64.73 61.74
60.09 63.03 64.09 64.90 65.39 66.13 66.26 66.85 67.52 67.70 67.45 67.18 67.40 66.81 65.94 65.92 53.19 46.63 47.30 51.12 58.46 66.28 65.68 65.94 62.28 44.52 43.67 43.85 50.54 45.63 47.48 53.50 61.24 60.04 59.47 58.87 59.75 60.34 62.12 64.44 65.35 66.66 64.55
59.90 62.42 64.15 65.20 65.33 66.03 65.77 65.78 65.76 68.10 65.03 64.57 65.27 62.48 64.06 64.19 60.95 45.18 45.66 47.48 48.49 65.18 66.58 52.44 44.17 41.81 42.51 48.07 43.65 44.21 47.01 60.78 61.52 61.22 59.82 60.28 60.60 60.60 61.47 63.92 63.45 62.23 64.00
58.53 61.82 63.21 64.46 64.53 65.69 66.64 67.82 67.73 66.52 65.60 63.94 62.17 63.72 63.10 62.80 61.76 62.70 61.38 61.17 51.04 59.07 52.25 57.34 52.86 51.69 47.28 53.95 52.57 53.59 61.23 62.10 60.25 59.64 59.41 60.82 61.50 60.07 59.37 59.92 59.73 61.84 61.37
59.93 60.68 61.91 62.57 62.37 61.83 60.81 65.87 67.59 68.07 64.49 65.27 65.56 64.40 62.79 62.75 62.82 59.03 60.24 64.25 64.64 59.41 60.54 59.95 59.72 59.68 59.12 58.51 59.37 61.30 62.94 62.39 60.65 59.75 59.82 59.53 59.01 58.95 58.16 59.48 59.65 60.00 59.18
59.99 59.83 58.65 59.11 60.55 62.06 61.72 57.20 44.56 48.36 46.39 47.10 50.84 60.01 64.09 52.92 46.53 44.94 42.76 43.85 45.66 46.57 61.15 60.85 58.69 59.17 58.37 59.34 59.98 61.42 62.10 58.81 59.72 59.25 59.01 59.01 58.39 57.99 57.12 57.00 59.05 58.06 58.97
59.99 59.75 60.14 60.19 62.92 62.53 63.39 61.47 57.50 52.57 42.81 41.28 42.76 46.38 49.68 48.20 44.03 43.49 42.40 42.40 43.31 46.42 61.97 60.08 59.06 59.27 59.64 59.15 60.99 61.26 61.12 62.00 61.81 59.91 59.74 58.97 58.04 57.20 54.70 55.48 56.30 57.66 56.85
60.54 51.83 62.27 62.76 62.30 63.69 62.71 62.00 60.27 61.01 59.52 58.01 44.42 47.13 42.25 42.04 41.86 41.49 41.86 46.54 56.59 57.38 60.90 60.10 59.63 59.60 59.83 58.89 61.02 61.55 61.19 61.47 61.33 60.35 59.09 58.34 57.77 56.08 55.53 55.57 55.64 57.45 57.30
58.81 60.83 63.25 64.53 63.87 61.78 63.55 62.72 62.50 62.10 59.75 56.40 54.90 46.72 41.99 39.47 40.23 41.49 44.39 61.39 59.46 59.27 60.08 60.19 61.11 60.66 59.98 60.36 61.87 59.35 60.80 59.75 59.90 59.80 59.94 59.25 58.33 56.49 56.60 58.04 56.75 46.03 51.69
61.95 53.97 58.27 64.27 63.79 63.58 63.74 62.95 61.68 60.99 61.34 61.78 61.17 55.33 50.50 50.83 53.20 54.99 60.21 61.92 61.24 60.88 59.98 60.28 61.22 62.14 60.12 61.36 59.51 61.03 60.49 60.09 60.05 59.72 59.77 60.12 59.65 58.52 56.99 56.91 56.34 55.54 55.37
61.34 62.89 52.42 63.97 64.47 64.05 64.03 63.99 62.96 62.66 61.60 62.43 60.46 55.56 47.06 62.04 57.96 59.00 60.99 61.80 61.24 60.91 61.46 61.43 61.01 61.94 62.33 61.44 61.75 60.86 61.20 62.06 62.27 61.55 60.64 59.94 58.39 58.39 59.10 58.29 57.43 57.26 58.61
63.58 63.58 63.69 63.57 64.15 63.84 63.72 63.36 63.37 62.73 62.09 60.17 56.89 53.82 40.23 60.12 58.71 57.58 57.40 58.00 59.15 59.62 61.58 61.60 60.96 59.80 59.98 61.33 62.70 62.23 61.09 60.22 61.53 60.58 59.68 60.56 60.11 58.76 57.74 57.69 58.06 58.56 59.66
64.21 63.66 64.17 64.18 63.29 56.11 62.28 62.71 62.39 62.67 60.61 58.05 57.88 58.32 59.44 58.20 55.96 54.57 53.39 56.88 56.21 57.12 56.93 56.76 55.01 54.11 55.17 59.30 58.82 60.55 60.33 61.52 61.79 61.61 60.93 59.70 59.12 60.50 60.57 58.13 59.07 59.31 59.09
63.93 63.74 63.61 63.53 63.61 62.92 62.68 62.14 60.99 55.30 58.65 58.75 58.77 55.62 52.86 50.86 49.11 48.14 46.97 48.28 46.91 45.68 45.83 45.33 46.65 48.13 50.44 50.38 49.98 51.34 53.66 51.81 64.23 62.07 62.45 59.89 59.42 56.86 58.80 58.22 58.77 57.96 57.50
64.42 64.18 63.77 63.08 62.21 61.27 60.80 59.95 58.39 58.63 58.63 56.59 53.77 49.78 48.28 46.70 44.86 44.76 44.55 45.75 43.25 41.39 40.86 41.31 41.33 41.29 42.78 43.81 42.70 42.29 35.83 34.92 53.42 44.85 61.03 59.95 56.54 57.23 56.02 55.25 55.09 52.63 51.46
64.61 64.11 63.04 62.10 59.58 59.70 59.22 58.07 57.48 56.51 54.56 52.41 48.96 46.28 44.97 43.41 41.57 41.49 41.94 46.41 43.85 40.88 40.39 39.50 38.76 38.00 37.94 38.65 38.36 34.44 34.29 36.07 42.41 37.97 51.57 50.82 48.81 47.46 46.62 45.82 45.10 44.88 45.67

GFSGL_sfc_wetblb_081.txt.gz
Wetbulb
58.86 59.41 61.19 61.06 62.23 64.66 65.81 66.66 67.27 68.23 68.78 68.44 72.10 73.57 75.16 76.40 77.05 76.75 76.14 74.80 73.22 74.30 74.80 74.21 73.51 74.43 71.71 70.25 69.53 67.51 66.70 66.40 63.52 66.93 67.49 68.29 67.26 67.75 67.83 68.19 68.79 69.26 66.45
58.02 58.62 60.26 60.24 61.17 64.12 64.91 66.69 67.87 68.08 68.57 69.55 71.50 70.12 74.04 75.08 76.29 75.61 73.83 73.46 73.84 74.19 73.70 73.25 71.23 71.40 72.51 72.96 68.70 71.36 69.45 70.37 65.48 66.05 67.75 65.75 66.15 67.34 68.02 66.87 66.59 69.11 68.47
57.18 57.07 60.17 60.97 60.94 62.82 63.98 65.53 68.41 68.61 68.76 69.65 69.72 70.53 72.72 74.80 75.09 74.82 73.93 74.42 74.64 73.83 72.81 71.74 71.77 71.87 71.29 71.29 69.78 68.94 67.47 68.02 68.90 65.21 66.15 65.57 65.62 66.18 64.93 64.53 65.67 66.65 65.65
56.63 56.51 58.52 59.92 60.93 62.27 63.24 64.16 66.57 68.87 68.17 69.22 69.92 69.75 72.13 73.51 73.61 74.09 74.21 74.76 74.40 73.52 73.91 73.03 71.70 71.05 70.55 70.04 69.67 69.38 69.17 67.46 67.62 66.24 65.41 65.34 64.26 65.04 63.74 62.56 62.59 64.12 64.13
55.80 55.41 55.28 57.91 60.02 61.30 62.22 62.73 65.41 67.66 69.08 69.22 70.05 71.11 72.64 73.52 73.36 74.22 74.60 74.57 74.24 73.47 72.85 71.53 73.06 69.81 65.54 67.00 68.24 68.95 68.86 66.32 66.78 65.96 64.65 64.19 63.01 62.56 62.76 63.23 62.66 62.13 62.27
55.01 54.17 55.57 56.18 56.35 59.62 62.24 62.89 63.78 66.98 69.16 68.81 68.78 70.61 72.57 72.94 59.26 59.96 70.38 74.31 73.69 72.26 71.44 71.16 70.69 64.85 62.50 58.68 57.42 56.02 63.05 67.55 66.39 65.87 66.29 64.79 64.30 62.80 63.91 63.38 61.58 60.22 58.82
54.56 53.73 53.47 54.39 54.91 56.05 60.07 61.57 63.28 66.30 69.24 69.21 69.37 71.24 72.70 74.16 53.60 54.75 58.81 74.42 73.05 72.51 71.84 70.54 69.32 67.98 65.34 67.31 55.66 54.45 54.16 53.88 57.02 67.15 65.84 65.93 65.31 64.54 65.22 64.92 63.23 63.08 61.00
53.34 52.25 52.70 52.78 53.33 54.29 56.94 60.37 63.35 65.68 68.62 69.20 70.22 72.93 73.96 72.97 52.04 52.99 56.83 73.85 72.89 72.15 71.27 70.08 69.71 68.67 66.83 66.34 66.16 65.42 65.55 65.53 65.01 64.74 65.60 66.45 66.49 63.05 63.53 64.22 63.12 62.62 61.22
52.48 51.79 51.96 52.01 51.29 52.72 55.53 58.98 63.70 66.45 68.70 70.00 72.07 73.25 74.02 66.90 51.02 52.89 62.28 72.15 70.62 70.10 69.24 69.07 68.83 68.69 55.83 52.87 66.09 65.12 65.44 65.09 52.19 49.89 50.44 50.29 49.57 50.11 58.61 61.64 60.30 60.29 58.70
51.34 50.90 50.75 50.40 50.57 53.63 56.81 59.88 64.60 67.24 68.47 71.14 72.12 73.86 66.75 68.35 49.07 52.13 62.49 69.67 68.75 67.68 69.22 66.54 51.26 62.98 47.57 50.84 65.88 65.47 63.75 63.91 63.01 62.38 62.32 57.18 56.40 56.72 51.54 63.44 61.25 59.18 58.96
51.65 51.07 49.78 50.85 52.26 56.02 58.97 62.18 65.22 67.85 69.74 71.10 71.96 72.77 70.53 67.29 60.51 51.23 49.58 69.82 67.46 66.64 66.32 66.56 65.12 46.81 45.40 45.94 47.21 66.19 63.18 63.37 58.16 61.74 62.01 62.49 62.53 62.25 62.91 65.67 66.23 63.31 59.57
51.86 50.58 49.63 50.90 54.85 59.58 62.39 64.81 67.32 68.75 69.69 70.06 69.49 68.81 69.67 67.91 56.41 48.20 49.21 53.03 58.94 67.11 66.23 66.16 59.96 44.62 44.13 45.40 51.41 47.16 48.82 55.67 62.37 60.76 59.17 59.80 61.17 63.02 64.23 65.89 66.12 66.18 63.55
50.71 52.47 54.86 54.51 57.11 57.26 61.75 66.05 67.02 67.14 67.23 67.03 66.75 66.50 65.60 67.05 61.98 46.38 46.12 47.72 51.88 65.81 60.80 54.66 44.72 43.22 43.72 48.65 45.58 46.12 47.63 62.33 62.46 61.11 59.56 59.53 61.59 62.77 64.00 65.04 65.66 65.19 65.01
52.28 60.02 57.29 55.39 53.93 58.59 66.23 66.28 65.31 65.58 66.27 67.65 66.85 65.70 65.77 64.54 63.70 65.25 62.51 60.91 52.91 55.48 51.99 57.93 54.16 53.21 49.30 54.89 55.99 55.44 62.25 63.58 62.10 61.19 60.86 62.43 62.70 61.91 61.61 63.29 62.71 62.48 62.04
55.76 60.04 63.09 64.81 64.69 64.03 62.37 64.14 66.56 69.59 68.10 68.62 67.96 66.85 65.08 63.89 63.98 59.88 61.62 65.50 65.46 60.36 60.64 62.17 61.83 61.36 60.98 60.73 61.11 61.73 61.43 61.48 60.47 60.81 60.89 60.85 60.54 59.64 59.66 61.37 61.21 61.01 60.50
57.26 58.59 59.93 61.25 60.52 60.39 59.53 55.50 43.91 46.44 46.94 48.67 52.42 62.48 64.55 53.04 46.31 45.47 44.90 45.59 47.37 49.53 61.44 61.12 59.61 59.88 59.70 59.48 60.80 61.71 62.77 58.91 60.29 60.08 60.30 60.06 59.72 59.36 58.32 59.34 59.90 60.33 59.23
56.48 59.47 60.47 61.61 64.67 63.42 63.81 62.76 58.64 51.36 44.22 42.32 45.55 48.65 50.51 46.16 42.50 42.86 43.95 44.98 45.11 49.58 61.75 60.52 59.38 59.35 60.01 60.96 61.91 61.85 61.36 61.38 62.26 60.59 59.99 59.43 59.68 59.79 57.50 57.88 57.53 57.27 58.63
59.56 50.84 62.25 64.50 63.82 64.53 64.42 64.07 63.49 62.63 61.24 58.74 45.11 47.98 42.78 42.14 41.23 41.96 43.41 49.58 58.60 56.96 61.71 60.18 59.41 60.04 60.65 61.24 61.65 61.46 61.64 61.59 61.12 59.94 60.11 59.79 59.48 58.27 57.03 56.12 55.72 56.18 58.08
58.93 58.39 61.67 65.13 65.03 62.57 64.22 64.32 63.43 62.80 59.99 56.43 53.07 46.96 43.04 40.87 41.59 42.86 44.79 62.35 61.24 60.98 61.15 60.70 61.71 61.06 61.38 61.84 61.96 62.03 61.67 61.16 60.50 59.61 60.20 60.41 59.46 58.47 57.33 57.39 56.42 47.00 49.87
58.30 51.12 56.12 62.32 63.76 63.58 63.74 62.98 62.40 61.12 61.10 60.28 58.75 53.04 51.29 52.63 54.95 58.37 62.21 61.97 61.08 61.26 61.78 61.40 61.89 61.64 61.95 62.30 62.59 61.46 60.73 60.34 60.23 59.61 59.71 60.21 60.14 58.96 57.60 57.34 58.27 56.77 56.99
58.84 62.33 50.07 62.15 63.49 63.15 63.68 62.95 62.52 62.90 62.03 61.45 59.66 56.92 45.93 58.37 57.93 61.05 62.20 61.91 62.02 61.24 61.80 61.83 61.83 62.09 62.50 62.77 61.41 60.60 61.30 61.63 61.36 60.43 60.59 60.24 59.96 59.31 58.83 58.65 58.11 58.63 58.27
63.52 63.54 64.81 64.03 64.35 64.20 64.09 64.01 63.75 62.76 60.30 60.94 60.37 56.74 40.87 61.45 60.67 60.95 61.70 61.70 61.47 61.94 63.27 63.02 62.87 62.16 62.84 62.96 61.80 61.36 61.63 61.58 62.02 61.85 61.26 61.24 60.24 58.74 60.02 59.57 59.51 58.45 58.36
62.49 64.09 63.83 62.29 63.54 55.58 61.92 63.06 62.77 61.16 60.58 60.83 60.78 60.53 60.40 59.85 58.22 56.35 55.25 57.51 59.06 55.24 53.11 55.79 56.88 57.09 60.02 60.85 62.69 62.43 62.42 62.39 62.97 63.22 60.98 61.98 60.46 60.33 59.82 57.91 58.63 59.07 58.30
63.29 64.37 64.15 63.69 62.84 63.31 63.21 63.74 61.81 55.02 59.86 59.82 57.86 56.64 55.72 54.31 51.59 52.01 50.46 50.39 52.54 50.43 48.61 45.83 46.25 49.42 48.64 49.96 50.01 53.19 51.20 55.16 58.81 62.86 61.45 61.50 60.39 57.26 60.72 60.49 58.17 57.61 57.61
63.68 63.43 64.79 64.14 62.92 61.67 61.09 60.53 60.27 58.85 56.89 55.56 52.90 50.10 48.60 48.10 46.60 45.56 44.77 43.58 42.51 41.99 40.50 41.02 41.43 43.14 43.47 43.99 44.84 45.55 37.89 35.74 54.42 48.14 61.93 59.67 55.84 53.73 52.25 51.36 51.74 49.82 50.88
63.46 64.10 62.60 61.97 60.72 61.31 59.72 58.35 57.41 56.30 53.20 49.76 47.41 45.38 44.86 44.24 43.55 45.10 41.77 40.40 39.39 38.37 37.47 37.50 37.72 37.30 39.01 38.42 36.55 33.93 34.59 36.13 43.28 38.76 54.43 52.89 49.46 47.16 46.57 46.13 45.81 44.97 44.97

GFSGL_sfc_wetblb_084.txt.gz
Wetbulb
60.57 61.25 61.89 60.41 60.36 61.60 61.80 62.53 63.77 64.26 64.42 64.43 64.16 63.69 65.77 71.29 73.39 73.86 73.06 72.65 72.31 72.57 72.67 71.82 71.54 72.25 70.98 69.83 69.08 68.84 65.74 64.93 62.53 63.45 66.32 66.88 65.15 65.14 65.59 65.81 66.06 65.77 63.90
60.32 59.42 59.41 62.19 61.41 61.17 61.17 62.14 63.70 64.02 64.98 64.79 64.48 64.49 64.34 67.56 71.99 73.14 72.96 73.25 72.59 72.09 71.82 71.57 71.77 72.06 71.14 70.34 69.34 67.72 65.53 65.74 64.95 62.04 64.76 64.23 63.96 64.35 64.95 64.42 65.22 67.98 65.86
58.26 58.03 59.46 59.40 59.59 59.70 61.00 61.48 62.51 62.96 63.70 65.13 64.92 65.01 65.25 65.49 65.85 72.21 73.07 72.90 72.26 72.23 72.03 72.02 71.58 70.36 70.15 69.22 68.61 67.53 66.29 66.65 65.42 64.43 63.07 64.42 63.44 64.39 62.85 62.68 63.65 63.82 64.13
57.33 57.78 58.63 59.58 58.93 57.97 60.11 61.71 61.59 62.19 61.82 62.98 65.06 65.94 66.01 67.24 66.84 70.44 72.83 72.71 71.93 71.86 72.41 72.53 71.12 70.21 70.15 69.26 68.38 67.23 67.00 65.50 65.05 63.61 63.36 62.87 62.52 63.15 63.22 60.73 61.41 62.62 62.75
56.66 55.69 57.74 58.94 58.90 57.90 57.62 58.50 59.94 61.03 61.61 61.83 63.65 66.27 67.18 66.98 67.91 70.52 72.33 72.40 71.55 71.34 72.33 71.98 70.99 69.64 66.26 68.13 67.91 67.50 66.55 65.07 64.44 63.27 62.21 62.16 61.79 61.09 60.56 61.23 61.39 60.13 61.25
57.04 56.50 56.90 56.58 55.91 56.37 57.05 56.78 57.08 57.48 60.82 61.97 62.37 64.51 65.34 67.72 58.65 57.15 68.57 72.25 71.47 71.10 71.33 71.09 68.63 61.81 58.88 56.04 55.90 56.64 64.75 65.42 63.88 62.80 62.19 60.89 61.85 61.54 62.40 61.39 60.20 58.97 56.68
56.98 56.50 56.23 56.06 54.93 54.91 54.97 55.02 55.30 56.04 57.88 60.43 61.45 63.04 66.01 67.64 56.34 52.86 58.63 71.54 71.12 70.92 70.62 69.22 66.98 66.70 63.30 61.61 54.96 56.04 54.35 55.80 59.81 64.17 62.21 62.05 61.45 62.51 61.74 61.52 60.35 59.52 59.62
56.26 56.05 55.83 54.75 53.40 53.26 53.69 53.67 53.95 54.01 54.97 56.26 60.77 62.86 65.71 67.32 55.09 50.30 55.83 70.80 70.57 70.45 70.32 69.77 67.68 66.32 66.48 65.70 63.60 63.65 63.45 61.31 61.18 62.11 63.59 63.57 64.35 63.91 63.47 61.75 61.10 60.45 60.22
54.41 54.24 54.76 54.93 52.63 52.18 52.24 52.25 53.75 53.15 52.80 54.13 58.12 61.93 64.87 66.81 49.87 50.16 59.70 69.82 69.82 69.42 69.84 69.14 68.43 66.71 55.57 54.02 64.66 63.19 63.25 60.30 50.62 49.47 50.58 48.40 47.68 49.31 58.59 61.56 59.84 58.35 56.68
53.29 53.38 54.04 54.07 53.16 52.18 52.21 52.10 52.10 52.38 52.49 53.75 55.77 61.70 62.52 67.07 47.88 49.50 63.08 69.61 68.32 68.21 68.02 65.75 56.71 64.83 48.90 51.65 64.68 63.99 62.62 62.49 61.46 60.75 60.04 56.30 54.00 54.89 51.30 61.60 60.70 58.31 57.37
53.50 53.21 52.74 52.81 52.40 52.19 51.59 51.88 51.53 51.49 52.39 54.38 56.64 62.84 65.80 67.00 58.25 49.43 56.76 68.93 68.16 66.83 66.11 64.27 60.84 48.55 47.62 47.13 52.24 64.69 62.23 63.01 57.50 61.20 60.16 61.14 61.95 62.24 61.57 61.61 62.90 60.56 58.83
50.75 50.38 50.21 50.38 50.80 50.68 50.24 49.70 49.53 51.25 52.71 55.45 59.40 63.37 66.50 66.20 55.40 50.76 54.67 60.18 59.77 65.94 65.29 65.68 54.64 43.87 43.69 44.78 53.63 49.13 49.46 56.69 61.40 59.26 58.65 59.42 60.81 60.80 61.97 62.47 63.03 63.41 61.95
49.64 48.88 49.14 49.51 49.07 49.43 49.26 48.24 49.54 52.80 54.18 56.78 61.20 63.67 65.04 64.86 57.53 48.77 49.62 52.65 53.48 65.10 66.43 56.16 44.00 43.15 43.87 46.75 44.78 45.14 48.19 61.41 61.24 59.36 58.31 57.96 58.99 61.62 62.64 62.52 63.26 63.30 62.71
49.64 49.27 51.05 53.21 50.13 48.80 49.96 50.95 51.08 55.95 56.86 60.61 63.07 63.79 64.61 61.66 60.11 59.25 56.11 54.57 49.72 51.91 49.53 51.02 51.57 52.00 53.18 53.18 53.29 53.15 60.88 61.64 61.59 60.58 60.81 61.08 61.42 61.21 60.32 61.30 60.90 61.25 60.47
51.39 53.47 54.72 51.07 49.98 48.45 49.31 51.37 56.62 60.48 61.64 63.80 64.46 65.06 62.98 61.47 62.20 57.93 59.90 62.52 62.59 57.33 57.42 58.70 59.54 59.78 59.67 59.66 60.18 60.23 60.86 61.25 60.49 59.79 59.68 60.00 59.81 59.54 58.54 60.38 59.99 59.71 58.51
53.36 58.51 58.01 55.09 54.43 53.62 55.42 54.90 43.15 52.10 50.38 51.79 53.87 61.49 63.37 54.86 48.62 48.14 47.44 48.21 47.77 49.44 60.13 60.11 59.74 59.85 59.35 58.87 59.76 60.25 61.15 58.64 60.49 59.69 59.39 59.14 58.71 58.23 57.92 58.99 59.19 58.89 57.94
57.33 58.71 60.20 58.17 57.95 57.05 57.79 57.64 53.16 49.78 46.01 46.95 46.80 48.23 50.17 46.97 45.73 45.55 46.17 46.14 46.37 51.29 60.75 59.83 59.23 59.20 59.07 58.94 60.08 60.94 60.70 60.53 60.62 59.70 58.78 58.28 58.21 58.35 55.88 57.00 57.58 57.72 57.09
58.10 50.58 63.04 62.86 62.09 62.03 62.07 61.31 61.61 60.56 58.08 55.55 46.18 48.73 44.96 43.51 42.78 43.53 44.21 49.43 57.51 57.90 60.87 59.20 58.93 58.71 58.84 59.90 60.27 60.47 61.05 60.78 60.48 59.27 58.95 58.35 58.06 57.42 56.49 55.63 56.08 56.64 55.68
57.62 58.57 61.73 63.78 64.03 61.93 63.45 62.89 60.90 58.58 55.07 52.02 51.60 47.06 42.98 41.33 42.78 44.53 47.60 60.58 60.05 60.59 60.54 59.85 59.47 59.47 60.38 61.13 61.54 61.60 61.03 60.66 59.89 59.39 58.57 58.42 58.01 56.65 55.81 56.41 56.22 45.87 48.44
58.38 50.38 54.29 62.84 62.56 62.78 62.39 60.84 59.79 58.83 58.26 57.09 55.31 53.69 54.36 55.18 57.86 58.59 61.39 61.24 61.07 61.03 60.71 60.63 60.80 60.87 61.51 60.62 61.69 61.30 59.46 59.22 59.57 59.10 58.35 58.95 58.53 57.93 56.94 56.82 57.61 55.35 55.39
57.10 59.65 47.50 62.93 61.89 61.44 60.97 60.76 60.38 59.24 57.64 56.51 55.71 55.27 46.09 59.82 59.45 60.72 60.59 60.33 60.65 60.25 60.78 61.89 61.01 60.44 61.48 61.92 61.70 60.78 60.32 59.51 59.52 59.03 58.80 59.54 59.47 58.08 58.15 57.79 57.95 57.33 55.98
58.37 61.17 63.50 62.65 62.07 62.03 62.10 62.35 61.22 59.36 57.90 57.04 56.36 51.91 38.80 61.76 60.87 60.77 61.35 60.88 60.04 60.72 62.92 61.40 61.47 61.92 61.35 61.79 61.28 60.36 59.46 60.38 61.07 60.51 60.27 59.51 58.90 58.56 58.52 57.83 57.86 58.28 56.97
59.68 61.63 61.61 61.90 62.38 55.52 62.34 62.04 61.11 60.28 59.42 58.92 58.61 58.80 59.26 57.56 56.92 56.86 57.15 55.28 53.47 52.42 53.46 56.50 58.81 58.09 57.68 58.96 58.01 58.45 59.82 59.95 61.79 61.77 60.15 60.47 59.74 58.86 58.15 56.45 57.17 57.46 57.63
62.77 62.35 61.94 61.16 61.88 62.11 60.37 59.90 59.02 54.45 59.80 59.70 58.15 55.63 53.62 52.55 50.99 50.97 50.43 50.17 46.54 45.05 45.04 45.42 47.58 49.16 51.07 51.43 51.37 50.62 51.91 54.17 61.34 62.53 61.29 59.93 58.93 56.68 59.44 57.88 57.63 57.69 56.52
62.59 61.75 60.74 60.60 61.12 60.45 59.41 58.56 58.12 58.10 56.50 54.09 52.13 49.83 47.98 46.14 44.60 43.50 43.93 42.23 40.94 40.34 39.62 40.10 42.24 42.56 42.88 44.85 45.07 46.23 37.57 37.31 52.88 48.76 58.26 55.36 53.93 52.41 51.99 50.44 49.76 48.92 49.59
62.27 61.84 61.92 61.38 60.55 59.46 57.99 56.09 54.25 52.44 49.92 48.36 47.36 46.11 45.27 42.21 41.51 40.43 39.83 38.47 37.17 37.13 37.25 37.31 37.57 38.86 39.04 38.76 38.50 35.52 35.56 36.21 43.12 40.01 52.75 50.65 48.78 47.65 47.08 46.28 46.25 45.97 45.93

GFSGL_sfc_wetblb_087.txt.gz
Wetbulb
55.13 55.72 55.45 54.95 55.56 55.40 57.23 58.72 59.82 60.49 61.32 61.82 62.11 62.16 61.94 61.15 61.51 67.24 68.02 66.29 67.30 69.15 70.07 67.23 65.74 64.53 65.59 69.03 66.65 64.96 63.69 61.21 57.95 59.93 62.96 62.74 61.89 63.04 62.60 63.82 63.78 62.93 62.73
55.61 55.46 55.48 55.32 55.93 55.38 55.96 56.82 57.52 59.24 61.40 62.32 62.88 62.81 62.77 62.82 61.41 62.84 66.10 70.99 69.97 69.99 70.03 70.03 69.86 71.02 69.17 68.56 66.43 64.66 63.37 61.53 60.52 58.36 60.56 60.87 60.80 61.64 62.46 61.60 63.46 65.50 63.68
55.78 54.09 52.34 53.31 52.59 52.43 53.43 55.52 56.72 57.11 58.53 59.72 60.66 61.22 62.49 63.20 62.84 61.95 62.60 66.41 70.97 69.52 70.04 70.57 70.34 69.37 69.28 68.10 65.78 64.70 63.50 63.38 61.70 60.42 59.60 60.53 60.43 61.32 59.91 60.16 60.52 61.10 62.02
53.21 52.27 52.35 53.05 52.58 53.39 54.70 54.63 55.62 57.25 57.57 57.54 58.68 60.28 61.01 61.46 63.95 63.62 63.74 62.17 66.49 70.99 70.59 70.68 69.91 69.79 69.96 68.11 65.60 64.40 63.07 61.96 60.96 60.06 59.54 59.00 58.87 59.85 59.61 57.60 57.86 60.38 62.04
52.51 52.67 51.34 53.39 53.41 52.88 52.82 53.25 54.46 55.19 55.81 56.36 57.43 58.91 59.36 60.18 62.01 64.22 63.43 63.73 63.08 69.22 70.44 71.03 70.50 68.36 65.34 66.52 66.45 64.40 63.27 60.66 60.04 59.14 58.38 58.10 58.16 57.90 57.08 57.86 57.88 60.11 60.42
52.63 51.90 52.65 53.27 53.57 52.95 53.21 53.46 54.31 53.80 52.84 53.68 54.31 55.19 57.65 60.08 54.82 53.46 57.88 64.15 66.35 70.47 69.22 70.09 69.83 62.95 62.31 59.32 59.85 60.51 63.40 61.48 60.16 58.82 58.18 57.31 57.61 58.06 58.46 57.94 57.40 57.78 56.29
52.67 52.83 53.40 52.95 52.85 52.00 52.08 52.53 51.63 50.71 51.10 52.01 52.74 54.18 55.43 57.77 51.97 51.43 53.20 60.02 63.47 68.94 68.93 69.41 66.50 66.15 62.26 61.94 55.93 54.48 56.47 58.04 60.30 60.85 58.57 58.41 58.17 59.63 58.50 57.80 56.75 55.65 56.55
51.38 52.40 53.48 53.66 53.00 52.54 51.50 50.93 49.54 49.41 50.01 51.06 51.40 52.02 52.70 54.28 50.87 49.96 51.48 59.14 63.38 68.18 68.74 67.82 66.48 62.06 62.07 61.61 60.81 60.74 59.70 59.28 59.03 61.48 60.55 60.21 59.91 60.49 59.75 59.98 58.58 58.22 58.48
51.53 51.96 52.78 53.69 53.47 52.47 50.67 49.75 49.80 49.41 49.32 49.67 51.06 51.43 51.31 52.25 48.19 48.43 52.14 59.74 63.49 67.52 68.22 67.42 65.26 63.91 53.66 52.72 62.31 60.82 58.89 56.21 50.11 49.44 49.97 48.54 46.18 47.99 55.89 59.39 58.42 57.80 56.27
51.27 51.92 52.87 53.36 53.44 53.27 52.71 51.03 50.33 49.77 49.46 50.11 50.52 51.14 50.04 50.51 48.22 47.11 51.18 60.04 63.51 66.79 66.52 66.14 56.91 62.61 50.35 51.93 61.49 60.33 58.46 56.47 56.45 55.51 55.09 53.72 52.12 52.87 50.53 58.54 58.56 56.23 56.27
49.74 49.99 49.90 50.43 51.84 53.04 52.94 52.72 50.58 48.87 49.28 49.05 49.27 49.88 50.66 51.09 51.67 47.18 49.36 57.94 64.51 66.36 65.29 63.75 63.16 51.44 49.17 49.07 54.96 61.02 59.51 58.95 55.85 57.49 57.04 57.81 57.30 57.12 58.24 57.96 58.68 57.66 55.93
48.73 48.82 49.13 50.36 51.26 52.24 52.24 51.87 51.23 49.76 48.15 47.96 47.95 48.38 50.11 51.37 50.16 49.87 48.70 47.72 58.73 65.35 63.65 62.55 58.80 47.99 46.00 48.72 55.05 46.54 48.90 55.09 58.28 56.33 56.65 57.57 57.76 58.18 57.78 58.58 59.18 59.04 59.03
47.79 48.07 49.05 50.00 49.98 50.25 50.05 50.54 50.52 49.84 48.07 47.28 47.42 47.37 48.46 52.18 56.25 50.86 47.09 46.90 52.16 63.98 63.21 56.25 45.62 43.10 43.82 47.25 45.09 46.36 49.97 58.38 56.67 55.01 55.23 55.62 56.41 60.63 58.42 58.32 59.01 59.97 59.63
46.41 46.98 47.85 48.03 47.91 48.39 49.21 49.57 49.12 48.55 47.49 47.20 46.80 46.96 49.04 53.73 59.31 55.89 55.69 55.09 51.58 54.74 50.06 50.27 49.70 50.44 52.19 49.80 50.60 51.04 58.32 58.20 57.10 55.49 55.31 55.91 57.83 57.58 56.99 58.33 58.50 57.78 58.58
47.80 48.28 48.49 49.20 50.00 50.03 49.25 48.71 48.65 48.60 48.24 47.00 47.50 49.01 51.53 56.73 59.66 56.45 58.30 60.51 59.74 55.37 54.41 56.13 56.65 56.35 55.09 54.83 55.13 56.13 56.73 57.67 58.02 56.83 56.93 57.06 58.55 56.71 55.27 58.27 57.83 57.26 55.72
47.60 48.31 50.29 48.81 48.28 49.07 49.45 47.68 44.31 45.80 43.84 44.06 46.13 51.47 58.02 55.53 48.68 47.63 49.04 48.17 46.90 48.84 57.61 56.90 56.65 56.81 55.95 56.03 56.01 55.51 57.38 56.23 56.95 56.89 58.61 58.44 57.75 57.02 56.07 57.38 57.29 57.47 56.71
50.03 53.95 51.31 49.51 47.19 46.80 47.07 46.82 46.78 46.01 43.61 43.54 43.01 46.43 49.08 47.59 44.10 46.54 47.63 47.81 46.54 52.20 57.93 57.39 57.17 56.91 56.57 56.87 56.61 57.38 56.73 57.09 57.25 56.41 55.64 57.59 57.74 57.21 55.17 56.23 56.49 54.49 56.23
55.46 49.80 55.30 54.17 52.83 52.37 51.32 51.13 50.97 50.39 52.31 52.36 44.51 48.63 45.45 45.09 47.27 47.38 46.72 50.48 57.02 56.46 58.28 57.50 56.83 56.61 56.10 56.10 56.45 57.81 57.31 57.07 56.75 56.07 55.48 55.92 57.59 56.85 55.87 55.33 55.41 55.55 55.31
55.26 57.70 59.29 58.42 58.25 57.09 58.23 57.73 58.02 57.45 54.21 52.39 52.25 48.24 45.86 45.82 46.11 46.25 48.75 59.06 57.84 57.22 57.22 56.79 57.16 56.78 57.34 57.16 58.82 59.80 58.34 57.03 56.43 55.74 55.48 55.86 57.26 55.24 53.27 54.89 54.58 44.73 47.45
53.60 51.76 55.69 59.01 58.87 58.83 57.99 57.57 57.73 57.28 57.47 57.58 55.90 52.35 52.95 55.10 57.77 57.59 58.73 59.33 58.54 57.86 57.56 57.11 58.50 58.70 57.30 58.53 58.86 57.78 56.23 56.09 56.13 55.60 55.54 57.35 56.80 54.52 55.08 55.22 55.62 51.93 51.12
53.42 59.79 50.49 58.06 58.56 58.37 58.44 57.94 57.86 56.96 56.43 55.92 56.07 54.55 45.71 58.31 57.63 57.98 58.47 58.73 58.51 58.35 58.81 57.95 58.09 59.44 59.10 59.80 58.28 56.44 56.83 57.99 56.37 55.74 56.74 57.83 55.40 54.28 54.60 56.40 55.66 54.59 55.42
55.09 60.26 60.30 59.90 59.86 59.06 58.10 57.60 56.97 56.75 57.48 56.68 55.43 49.32 43.13 59.52 58.73 57.55 56.49 55.90 56.27 58.09 60.07 58.52 58.82 59.51 59.55 58.56 57.71 58.07 57.50 56.54 55.87 55.87 55.70 56.37 56.53 55.76 56.89 56.18 56.24 56.11 55.10
56.94 61.24 60.96 60.24 58.86 52.32 57.00 57.17 56.75 57.06 57.36 57.01 57.05 57.17 56.62 56.13 53.74 51.32 49.36 48.54 49.40 49.49 51.37 53.97 54.24 55.00 54.68 54.26 54.61 57.91 58.80 58.12 57.88 58.05 58.23 57.32 55.79 56.50 55.93 55.89 56.41 56.10 55.65
60.54 61.00 60.94 59.84 59.02 58.10 57.28 56.50 55.90 52.44 55.61 54.63 53.53 51.94 50.00 48.62 47.53 46.05 45.02 44.74 44.32 44.17 45.59 46.62 47.55 48.03 48.98 49.65 49.71 50.22 53.33 56.37 60.17 60.01 58.75 57.79 57.41 55.35 55.43 56.61 55.97 55.73 51.83
61.30 60.70 59.87 58.45 58.06 57.37 57.30 56.94 55.09 53.10 51.69 50.08 48.16 46.69 45.26 43.97 42.53 41.75 41.58 41.42 41.01 40.56 40.51 41.74 42.62 43.59 44.72 46.10 46.44 46.12 38.25 39.65 51.85 45.45 54.07 52.89 50.35 50.67 50.29 50.03 50.26 50.12 50.34
60.79 60.34 59.06 57.91 56.98 55.49 52.68 50.96 50.23 49.27 47.67 46.23 44.28 43.26 41.89 40.23 39.64 38.78 38.34 38.12 37.55 37.16 36.81 37.22 38.08 38.71 39.53 39.21 38.45 35.56 36.48 37.81 43.28 40.67 49.74 49.00 48.41 47.91 48.11 47.25 46.37 45.99 45.81